<?xml version='1.0' encoding='UTF-8'?>
<gpx version="1.1" creator="https://www.komoot.de" xmlns="http://www.topografix.com/GPX/1/1" xmlns:xsi="http://www.w3.org/2001/XMLSchema-instance" xsi:schemaLocation="http://www.topografix.com/GPX/1/1 http://www.topografix.com/GPX/1/1/gpx.xsd">
  <metadata>
    <name>66_790DuggigenGiebenach</name>
    <author>
      <link href="https://www.komoot.de">
        <text>komoot</text>
        <type>text/html</type>
      </link>
    </author>
  </metadata>
  <trk>
    <name>66_790DuggigenGiebenach</name>
    <trkseg>
      <trkpt lat="47.541031" lon="7.871105">
        <ele>339.253352</ele>
        <time>2021-11-18T21:16:20.585Z</time>
      </trkpt>
      <trkpt lat="47.541410" lon="7.870791">
        <ele>339.253352</ele>
        <time>2021-11-18T21:16:26.787Z</time>
      </trkpt>
      <trkpt lat="47.541576" lon="7.870664">
        <ele>339.253352</ele>
        <time>2021-11-18T21:16:29.213Z</time>
      </trkpt>
      <trkpt lat="47.541550" lon="7.870601">
        <ele>339.253352</ele>
        <time>2021-11-18T21:16:30.018Z</time>
      </trkpt>
      <trkpt lat="47.541521" lon="7.870517">
        <ele>339.253352</ele>
        <time>2021-11-18T21:16:31.066Z</time>
      </trkpt>
      <trkpt lat="47.541606" lon="7.870424">
        <ele>339.253352</ele>
        <time>2021-11-18T21:16:32.725Z</time>
      </trkpt>
      <trkpt lat="47.541910" lon="7.870106">
        <ele>339.034731</ele>
        <time>2021-11-18T21:16:38.386Z</time>
      </trkpt>
      <trkpt lat="47.542014" lon="7.870126">
        <ele>338.961508</ele>
        <time>2021-11-18T21:16:39.847Z</time>
      </trkpt>
      <trkpt lat="47.542118" lon="7.870135">
        <ele>338.888771</ele>
        <time>2021-11-18T21:16:41.577Z</time>
      </trkpt>
      <trkpt lat="47.542181" lon="7.870131">
        <ele>338.844744</ele>
        <time>2021-11-18T21:16:42.456Z</time>
      </trkpt>
      <trkpt lat="47.542317" lon="7.870012">
        <ele>338.734461</ele>
        <time>2021-11-18T21:16:44.567Z</time>
      </trkpt>
      <trkpt lat="47.542348" lon="7.869983">
        <ele>338.708862</ele>
        <time>2021-11-18T21:16:45.004Z</time>
      </trkpt>
      <trkpt lat="47.542329" lon="7.869820">
        <ele>338.630900</ele>
        <time>2021-11-18T21:16:46.776Z</time>
      </trkpt>
      <trkpt lat="47.542372" lon="7.869746">
        <ele>338.584880</ele>
        <time>2021-11-18T21:16:47.597Z</time>
      </trkpt>
      <trkpt lat="47.542657" lon="7.869354">
        <ele>338.313344</ele>
        <time>2021-11-18T21:16:52.399Z</time>
      </trkpt>
      <trkpt lat="47.542696" lon="7.869257">
        <ele>338.260132</ele>
        <time>2021-11-18T21:16:53.335Z</time>
      </trkpt>
      <trkpt lat="47.542722" lon="7.869201">
        <ele>338.228098</ele>
        <time>2021-11-18T21:16:53.926Z</time>
      </trkpt>
      <trkpt lat="47.543049" lon="7.868759">
        <ele>337.834297</ele>
        <time>2021-11-18T21:16:58.839Z</time>
      </trkpt>
      <trkpt lat="47.543105" lon="7.868711">
        <ele>337.740368</ele>
        <time>2021-11-18T21:16:59.577Z</time>
      </trkpt>
      <trkpt lat="47.543201" lon="7.868657">
        <ele>337.591287</ele>
        <time>2021-11-18T21:17:00.656Z</time>
      </trkpt>
      <trkpt lat="47.543657" lon="7.868359">
        <ele>336.867713</ele>
        <time>2021-11-18T21:17:06.451Z</time>
      </trkpt>
      <trkpt lat="47.543801" lon="7.868269">
        <ele>336.640811</ele>
        <time>2021-11-18T21:17:08.930Z</time>
      </trkpt>
      <trkpt lat="47.544214" lon="7.867988">
        <ele>335.981004</ele>
        <time>2021-11-18T21:17:16.547Z</time>
      </trkpt>
      <trkpt lat="47.544246" lon="7.867967">
        <ele>335.930193</ele>
        <time>2021-11-18T21:17:17.144Z</time>
      </trkpt>
      <trkpt lat="47.544410" lon="7.867825">
        <ele>335.654413</ele>
        <time>2021-11-18T21:17:20.397Z</time>
      </trkpt>
      <trkpt lat="47.544469" lon="7.867776">
        <ele>335.556215</ele>
        <time>2021-11-18T21:17:21.419Z</time>
      </trkpt>
      <trkpt lat="47.544568" lon="7.867693">
        <ele>335.391068</ele>
        <time>2021-11-18T21:17:23.346Z</time>
      </trkpt>
      <trkpt lat="47.545003" lon="7.867278">
        <ele>335.569066</ele>
        <time>2021-11-18T21:17:32.194Z</time>
      </trkpt>
      <trkpt lat="47.545160" lon="7.866985">
        <ele>335.658856</ele>
        <time>2021-11-18T21:17:36.844Z</time>
      </trkpt>
      <trkpt lat="47.545240" lon="7.866887">
        <ele>335.695768</ele>
        <time>2021-11-18T21:17:39.118Z</time>
      </trkpt>
      <trkpt lat="47.546096" lon="7.866147">
        <ele>336.151057</ele>
        <time>2021-11-18T21:18:04.188Z</time>
      </trkpt>
      <trkpt lat="47.546327" lon="7.865959">
        <ele>336.676205</ele>
        <time>2021-11-18T21:18:11.925Z</time>
      </trkpt>
      <trkpt lat="47.546510" lon="7.865766">
        <ele>337.123790</ele>
        <time>2021-11-18T21:18:19.026Z</time>
      </trkpt>
      <trkpt lat="47.546819" lon="7.865489">
        <ele>337.843415</ele>
        <time>2021-11-18T21:18:29.257Z</time>
      </trkpt>
      <trkpt lat="47.546889" lon="7.865225">
        <ele>338.224886</ele>
        <time>2021-11-18T21:18:34.449Z</time>
      </trkpt>
      <trkpt lat="47.546894" lon="7.864837">
        <ele>338.746810</ele>
        <time>2021-11-18T21:18:41.869Z</time>
      </trkpt>
      <trkpt lat="47.546885" lon="7.864500">
        <ele>339.200402</ele>
        <time>2021-11-18T21:18:48.657Z</time>
      </trkpt>
      <trkpt lat="47.546877" lon="7.864345">
        <ele>339.409473</ele>
        <time>2021-11-18T21:18:51.551Z</time>
      </trkpt>
      <trkpt lat="47.546592" lon="7.863006">
        <ele>340.544362</ele>
        <time>2021-11-18T21:19:17.592Z</time>
      </trkpt>
      <trkpt lat="47.546526" lon="7.861665">
        <ele>341.545658</ele>
        <time>2021-11-18T21:19:38.441Z</time>
      </trkpt>
      <trkpt lat="47.546503" lon="7.860127">
        <ele>341.364262</ele>
        <time>2021-11-18T21:19:58.452Z</time>
      </trkpt>
      <trkpt lat="47.546499" lon="7.859927">
        <ele>341.333056</ele>
        <time>2021-11-18T21:20:00.979Z</time>
      </trkpt>
      <trkpt lat="47.546487" lon="7.859119">
        <ele>341.207012</ele>
        <time>2021-11-18T21:20:11.080Z</time>
      </trkpt>
      <trkpt lat="47.546537" lon="7.857497">
        <ele>340.891509</ele>
        <time>2021-11-18T21:20:32.021Z</time>
      </trkpt>
      <trkpt lat="47.546582" lon="7.856413">
        <ele>340.675185</ele>
        <time>2021-11-18T21:20:46.330Z</time>
      </trkpt>
      <trkpt lat="47.546945" lon="7.851719">
        <ele>339.303203</ele>
        <time>2021-11-18T21:21:47.364Z</time>
      </trkpt>
      <trkpt lat="47.547141" lon="7.850355">
        <ele>338.145957</ele>
        <time>2021-11-18T21:22:02.929Z</time>
      </trkpt>
      <trkpt lat="47.547143" lon="7.849985">
        <ele>337.678364</ele>
        <time>2021-11-18T21:22:06.838Z</time>
      </trkpt>
      <trkpt lat="47.547124" lon="7.848795">
        <ele>336.174111</ele>
        <time>2021-11-18T21:22:19.436Z</time>
      </trkpt>
      <trkpt lat="47.547274" lon="7.845536">
        <ele>332.049700</ele>
        <time>2021-11-18T21:22:54.195Z</time>
      </trkpt>
      <trkpt lat="47.547295" lon="7.844722">
        <ele>331.408171</ele>
        <time>2021-11-18T21:23:03.677Z</time>
      </trkpt>
      <trkpt lat="47.547313" lon="7.843735">
        <ele>330.630581</ele>
        <time>2021-11-18T21:23:15.433Z</time>
      </trkpt>
      <trkpt lat="47.547354" lon="7.842839">
        <ele>329.842024</ele>
        <time>2021-11-18T21:23:25.717Z</time>
      </trkpt>
      <trkpt lat="47.547448" lon="7.842262">
        <ele>329.113221</ele>
        <time>2021-11-18T21:23:32.511Z</time>
      </trkpt>
      <trkpt lat="47.547549" lon="7.842268">
        <ele>328.929347</ele>
        <time>2021-11-18T21:23:34.203Z</time>
      </trkpt>
      <trkpt lat="47.547674" lon="7.842266">
        <ele>328.701951</ele>
        <time>2021-11-18T21:23:36.311Z</time>
      </trkpt>
      <trkpt lat="47.547863" lon="7.842274">
        <ele>328.358007</ele>
        <time>2021-11-18T21:23:39.317Z</time>
      </trkpt>
      <trkpt lat="47.548105" lon="7.842284">
        <ele>327.917621</ele>
        <time>2021-11-18T21:23:43.069Z</time>
      </trkpt>
      <trkpt lat="47.549188" lon="7.842622">
        <ele>326.028748</ele>
        <time>2021-11-18T21:23:59.982Z</time>
      </trkpt>
      <trkpt lat="47.549582" lon="7.842702">
        <ele>325.406172</ele>
        <time>2021-11-18T21:24:06.179Z</time>
      </trkpt>
      <trkpt lat="47.549927" lon="7.842747">
        <ele>324.863983</ele>
        <time>2021-11-18T21:24:11.963Z</time>
      </trkpt>
      <trkpt lat="47.551243" lon="7.842849">
        <ele>323.720766</ele>
        <time>2021-11-18T21:24:36.101Z</time>
      </trkpt>
      <trkpt lat="47.551454" lon="7.842815">
        <ele>323.647470</ele>
        <time>2021-11-18T21:24:40.759Z</time>
      </trkpt>
      <trkpt lat="47.551668" lon="7.842770">
        <ele>323.572827</ele>
        <time>2021-11-18T21:24:45.317Z</time>
      </trkpt>
      <trkpt lat="47.551922" lon="7.842704">
        <ele>323.483772</ele>
        <time>2021-11-18T21:24:50.240Z</time>
      </trkpt>
      <trkpt lat="47.552380" lon="7.842592">
        <ele>323.241693</ele>
        <time>2021-11-18T21:24:59.134Z</time>
      </trkpt>
      <trkpt lat="47.552833" lon="7.842495">
        <ele>322.729374</ele>
        <time>2021-11-18T21:25:07.372Z</time>
      </trkpt>
      <trkpt lat="47.553133" lon="7.842431">
        <ele>322.390117</ele>
        <time>2021-11-18T21:25:12.698Z</time>
      </trkpt>
      <trkpt lat="47.553123" lon="7.842222">
        <ele>322.231835</ele>
        <time>2021-11-18T21:25:14.268Z</time>
      </trkpt>
      <trkpt lat="47.553216" lon="7.841849">
        <ele>321.931445</ele>
        <time>2021-11-18T21:25:17.496Z</time>
      </trkpt>
      <trkpt lat="47.553216" lon="7.841843">
        <ele>321.926912</ele>
        <time>2021-11-18T21:25:17.533Z</time>
      </trkpt>
      <trkpt lat="47.553231" lon="7.841529">
        <ele>321.689113</ele>
        <time>2021-11-18T21:25:20.005Z</time>
      </trkpt>
      <trkpt lat="47.552939" lon="7.839526">
        <ele>319.616073</ele>
        <time>2021-11-18T21:25:35.535Z</time>
      </trkpt>
      <trkpt lat="47.552802" lon="7.839009">
        <ele>319.013770</ele>
        <time>2021-11-18T21:25:39.863Z</time>
      </trkpt>
      <trkpt lat="47.552736" lon="7.838578">
        <ele>318.534511</ele>
        <time>2021-11-18T21:25:43.303Z</time>
      </trkpt>
      <trkpt lat="47.552697" lon="7.838068">
        <ele>318.008372</ele>
        <time>2021-11-18T21:25:47.318Z</time>
      </trkpt>
      <trkpt lat="47.552719" lon="7.836790">
        <ele>316.710205</ele>
        <time>2021-11-18T21:25:57.346Z</time>
      </trkpt>
      <trkpt lat="47.552714" lon="7.835010">
        <ele>314.376438</ele>
        <time>2021-11-18T21:26:11.095Z</time>
      </trkpt>
      <trkpt lat="47.552700" lon="7.833938">
        <ele>312.611910</ele>
        <time>2021-11-18T21:26:18.609Z</time>
      </trkpt>
      <trkpt lat="47.552696" lon="7.833789">
        <ele>312.366506</ele>
        <time>2021-11-18T21:26:19.610Z</time>
      </trkpt>
      <trkpt lat="47.552452" lon="7.833284">
        <ele>311.339754</ele>
        <time>2021-11-18T21:26:23.930Z</time>
      </trkpt>
      <trkpt lat="47.552467" lon="7.833198">
        <ele>311.160154</ele>
        <time>2021-11-18T21:26:24.539Z</time>
      </trkpt>
      <trkpt lat="47.552511" lon="7.833072">
        <ele>310.873306</ele>
        <time>2021-11-18T21:26:25.535Z</time>
      </trkpt>
      <trkpt lat="47.552556" lon="7.832977">
        <ele>310.638634</ele>
        <time>2021-11-18T21:26:26.353Z</time>
      </trkpt>
      <trkpt lat="47.552616" lon="7.832891">
        <ele>310.388539</ele>
        <time>2021-11-18T21:26:27.163Z</time>
      </trkpt>
      <trkpt lat="47.552690" lon="7.832598">
        <ele>309.755989</ele>
        <time>2021-11-18T21:26:29.353Z</time>
      </trkpt>
      <trkpt lat="47.552677" lon="7.832053">
        <ele>308.653345</ele>
        <time>2021-11-18T21:26:33.106Z</time>
      </trkpt>
      <trkpt lat="47.552670" lon="7.831764">
        <ele>308.068628</ele>
        <time>2021-11-18T21:26:35.082Z</time>
      </trkpt>
      <trkpt lat="47.552645" lon="7.830686">
        <ele>305.915472</ele>
        <time>2021-11-18T21:26:42.488Z</time>
      </trkpt>
      <trkpt lat="47.552554" lon="7.829266">
        <ele>303.935905</ele>
        <time>2021-11-18T21:26:52.824Z</time>
      </trkpt>
      <trkpt lat="47.552416" lon="7.828822">
        <ele>303.257511</ele>
        <time>2021-11-18T21:26:56.503Z</time>
      </trkpt>
      <trkpt lat="47.552404" lon="7.828582">
        <ele>302.923521</ele>
        <time>2021-11-18T21:26:58.425Z</time>
      </trkpt>
      <trkpt lat="47.552421" lon="7.828481">
        <ele>302.779058</ele>
        <time>2021-11-18T21:26:59.180Z</time>
      </trkpt>
      <trkpt lat="47.552477" lon="7.828294">
        <ele>302.495135</ele>
        <time>2021-11-18T21:27:00.755Z</time>
      </trkpt>
      <trkpt lat="47.552515" lon="7.828094">
        <ele>302.247303</ele>
        <time>2021-11-18T21:27:02.474Z</time>
      </trkpt>
      <trkpt lat="47.552491" lon="7.827227">
        <ele>301.730782</ele>
        <time>2021-11-18T21:27:09.381Z</time>
      </trkpt>
      <trkpt lat="47.552567" lon="7.824508">
        <ele>300.226110</ele>
        <time>2021-11-18T21:27:33.230Z</time>
      </trkpt>
      <trkpt lat="47.552896" lon="7.820699">
        <ele>298.313304</ele>
        <time>2021-11-18T21:28:05.968Z</time>
      </trkpt>
      <trkpt lat="47.552948" lon="7.819358">
        <ele>297.813581</ele>
        <time>2021-11-18T21:28:17.507Z</time>
      </trkpt>
      <trkpt lat="47.552844" lon="7.816432">
        <ele>297.491556</ele>
        <time>2021-11-18T21:28:45.141Z</time>
      </trkpt>
      <trkpt lat="47.552711" lon="7.812955">
        <ele>298.597631</ele>
        <time>2021-11-18T21:29:25.796Z</time>
      </trkpt>
      <trkpt lat="47.552566" lon="7.810386">
        <ele>299.748136</ele>
        <time>2021-11-18T21:29:55.828Z</time>
      </trkpt>
      <trkpt lat="47.552398" lon="7.808880">
        <ele>300.367254</ele>
        <time>2021-11-18T21:30:14.309Z</time>
      </trkpt>
      <trkpt lat="47.552068" lon="7.806445">
        <ele>300.871681</ele>
        <time>2021-11-18T21:30:42.649Z</time>
      </trkpt>
      <trkpt lat="47.552015" lon="7.806307">
        <ele>300.814106</ele>
        <time>2021-11-18T21:30:44.371Z</time>
      </trkpt>
      <trkpt lat="47.551895" lon="7.806278">
        <ele>300.748781</ele>
        <time>2021-11-18T21:30:45.681Z</time>
      </trkpt>
      <trkpt lat="47.551651" lon="7.806246">
        <ele>300.617175</ele>
        <time>2021-11-18T21:30:49.443Z</time>
      </trkpt>
      <trkpt lat="47.551671" lon="7.806117">
        <ele>300.569179</ele>
        <time>2021-11-18T21:30:50.757Z</time>
      </trkpt>
      <trkpt lat="47.551681" lon="7.805477">
        <ele>300.337041</ele>
        <time>2021-11-18T21:30:58.455Z</time>
      </trkpt>
      <trkpt lat="47.551709" lon="7.805000">
        <ele>300.163420</ele>
        <time>2021-11-18T21:31:04.094Z</time>
      </trkpt>
      <trkpt lat="47.551731" lon="7.804667">
        <ele>300.007692</ele>
        <time>2021-11-18T21:31:08.680Z</time>
      </trkpt>
      <trkpt lat="47.551744" lon="7.804473">
        <ele>299.884154</ele>
        <time>2021-11-18T21:31:10.656Z</time>
      </trkpt>
      <trkpt lat="47.551741" lon="7.804294">
        <ele>299.770691</ele>
        <time>2021-11-18T21:31:12.707Z</time>
      </trkpt>
      <trkpt lat="47.551692" lon="7.803510">
        <ele>299.271763</ele>
        <time>2021-11-18T21:31:22.074Z</time>
      </trkpt>
      <trkpt lat="47.551751" lon="7.803369">
        <ele>299.166636</ele>
        <time>2021-11-18T21:31:23.727Z</time>
      </trkpt>
      <trkpt lat="47.551744" lon="7.803277">
        <ele>299.107969</ele>
        <time>2021-11-18T21:31:24.370Z</time>
      </trkpt>
      <trkpt lat="47.551732" lon="7.803125">
        <ele>299.010993</ele>
        <time>2021-11-18T21:31:26.441Z</time>
      </trkpt>
      <trkpt lat="47.551700" lon="7.802648">
        <ele>298.707240</ele>
        <time>2021-11-18T21:31:30.382Z</time>
      </trkpt>
      <trkpt lat="47.551688" lon="7.802394">
        <ele>298.545893</ele>
        <time>2021-11-18T21:31:33.263Z</time>
      </trkpt>
      <trkpt lat="47.551679" lon="7.802228">
        <ele>298.440363</ele>
        <time>2021-11-18T21:31:34.422Z</time>
      </trkpt>
      <trkpt lat="47.551671" lon="7.802077">
        <ele>298.297741</ele>
        <time>2021-11-18T21:31:36.770Z</time>
      </trkpt>
      <trkpt lat="47.551669" lon="7.801853">
        <ele>298.035415</ele>
        <time>2021-11-18T21:31:38.936Z</time>
      </trkpt>
      <trkpt lat="47.551666" lon="7.801632">
        <ele>297.776572</ele>
        <time>2021-11-18T21:31:40.609Z</time>
      </trkpt>
      <trkpt lat="47.551669" lon="7.801438">
        <ele>297.549338</ele>
        <time>2021-11-18T21:31:42.500Z</time>
      </trkpt>
      <trkpt lat="47.551672" lon="7.801147">
        <ele>297.208538</ele>
        <time>2021-11-18T21:31:44.631Z</time>
      </trkpt>
      <trkpt lat="47.551704" lon="7.800451">
        <ele>296.391635</ele>
        <time>2021-11-18T21:31:50.329Z</time>
      </trkpt>
      <trkpt lat="47.551712" lon="7.800249">
        <ele>296.154686</ele>
        <time>2021-11-18T21:31:51.809Z</time>
      </trkpt>
      <trkpt lat="47.551754" lon="7.799766">
        <ele>295.584420</ele>
        <time>2021-11-18T21:31:55.159Z</time>
      </trkpt>
      <trkpt lat="47.551793" lon="7.799434">
        <ele>295.079257</ele>
        <time>2021-11-18T21:31:57.459Z</time>
      </trkpt>
      <trkpt lat="47.551805" lon="7.799326">
        <ele>294.791762</ele>
        <time>2021-11-18T21:31:58.182Z</time>
      </trkpt>
      <trkpt lat="47.551948" lon="7.798607">
        <ele>292.822926</ele>
        <time>2021-11-18T21:32:03.325Z</time>
      </trkpt>
      <trkpt lat="47.552084" lon="7.798083">
        <ele>291.348317</ele>
        <time>2021-11-18T21:32:07.003Z</time>
      </trkpt>
      <trkpt lat="47.552152" lon="7.797876">
        <ele>290.743624</ele>
        <time>2021-11-18T21:32:08.467Z</time>
      </trkpt>
      <trkpt lat="47.552493" lon="7.797048">
        <ele>288.224111</ele>
        <time>2021-11-18T21:32:14.693Z</time>
      </trkpt>
      <trkpt lat="47.552762" lon="7.796425">
        <ele>286.942474</ele>
        <time>2021-11-18T21:32:19.653Z</time>
      </trkpt>
      <trkpt lat="47.552817" lon="7.796239">
        <ele>286.590574</ele>
        <time>2021-11-18T21:32:21.076Z</time>
      </trkpt>
      <trkpt lat="47.552828" lon="7.796198">
        <ele>286.514117</ele>
        <time>2021-11-18T21:32:21.379Z</time>
      </trkpt>
      <trkpt lat="47.552886" lon="7.795976">
        <ele>286.101594</ele>
        <time>2021-11-18T21:32:23.056Z</time>
      </trkpt>
      <trkpt lat="47.552930" lon="7.795600">
        <ele>285.440301</ele>
        <time>2021-11-18T21:32:25.963Z</time>
      </trkpt>
      <trkpt lat="47.552917" lon="7.795354">
        <ele>285.012702</ele>
        <time>2021-11-18T21:32:27.849Z</time>
      </trkpt>
      <trkpt lat="47.552909" lon="7.795229">
        <ele>284.795117</ele>
        <time>2021-11-18T21:32:28.881Z</time>
      </trkpt>
      <trkpt lat="47.552892" lon="7.795106">
        <ele>284.577546</ele>
        <time>2021-11-18T21:32:29.789Z</time>
      </trkpt>
      <trkpt lat="47.552861" lon="7.794992">
        <ele>284.364563</ele>
        <time>2021-11-18T21:32:30.668Z</time>
      </trkpt>
      <trkpt lat="47.552837" lon="7.794925">
        <ele>284.233119</ele>
        <time>2021-11-18T21:32:31.240Z</time>
      </trkpt>
      <trkpt lat="47.552826" lon="7.794894">
        <ele>284.172426</ele>
        <time>2021-11-18T21:32:31.505Z</time>
      </trkpt>
      <trkpt lat="47.552786" lon="7.794796">
        <ele>283.973961</ele>
        <time>2021-11-18T21:32:32.346Z</time>
      </trkpt>
      <trkpt lat="47.552763" lon="7.794750">
        <ele>283.874755</ele>
        <time>2021-11-18T21:32:32.996Z</time>
      </trkpt>
      <trkpt lat="47.552644" lon="7.794507">
        <ele>283.575514</ele>
        <time>2021-11-18T21:32:35.230Z</time>
      </trkpt>
      <trkpt lat="47.552532" lon="7.794285">
        <ele>283.441948</ele>
        <time>2021-11-18T21:32:37.443Z</time>
      </trkpt>
      <trkpt lat="47.552494" lon="7.794200">
        <ele>283.392815</ele>
        <time>2021-11-18T21:32:38.235Z</time>
      </trkpt>
      <trkpt lat="47.552384" lon="7.793915">
        <ele>283.234602</ele>
        <time>2021-11-18T21:32:40.951Z</time>
      </trkpt>
      <trkpt lat="47.552369" lon="7.793872">
        <ele>283.211276</ele>
        <time>2021-11-18T21:32:41.706Z</time>
      </trkpt>
      <trkpt lat="47.552292" lon="7.793607">
        <ele>283.072241</ele>
        <time>2021-11-18T21:32:44.061Z</time>
      </trkpt>
      <trkpt lat="47.552233" lon="7.793294">
        <ele>282.915634</ele>
        <time>2021-11-18T21:32:47.575Z</time>
      </trkpt>
      <trkpt lat="47.552216" lon="7.793160">
        <ele>282.849929</ele>
        <time>2021-11-18T21:32:48.704Z</time>
      </trkpt>
      <trkpt lat="47.552198" lon="7.792976">
        <ele>282.760332</ele>
        <time>2021-11-18T21:32:50.406Z</time>
      </trkpt>
      <trkpt lat="47.552184" lon="7.792540">
        <ele>282.549986</ele>
        <time>2021-11-18T21:32:54.816Z</time>
      </trkpt>
      <trkpt lat="47.552180" lon="7.792294">
        <ele>282.431404</ele>
        <time>2021-11-18T21:32:57.333Z</time>
      </trkpt>
      <trkpt lat="47.552182" lon="7.792040">
        <ele>282.313426</ele>
        <time>2021-11-18T21:32:59.499Z</time>
      </trkpt>
      <trkpt lat="47.552201" lon="7.791031">
        <ele>281.858986</ele>
        <time>2021-11-18T21:33:07.997Z</time>
      </trkpt>
      <trkpt lat="47.552135" lon="7.790302">
        <ele>281.527843</ele>
        <time>2021-11-18T21:33:14.425Z</time>
      </trkpt>
      <trkpt lat="47.552036" lon="7.789826">
        <ele>281.303597</ele>
        <time>2021-11-18T21:33:18.818Z</time>
      </trkpt>
      <trkpt lat="47.551858" lon="7.788906">
        <ele>280.771198</ele>
        <time>2021-11-18T21:33:27.142Z</time>
      </trkpt>
      <trkpt lat="47.551712" lon="7.788013">
        <ele>280.219330</ele>
        <time>2021-11-18T21:33:34.912Z</time>
      </trkpt>
      <trkpt lat="47.551694" lon="7.787879">
        <ele>280.137268</ele>
        <time>2021-11-18T21:33:36.015Z</time>
      </trkpt>
      <trkpt lat="47.551690" lon="7.787827">
        <ele>280.105833</ele>
        <time>2021-11-18T21:33:36.437Z</time>
      </trkpt>
      <trkpt lat="47.551672" lon="7.787603">
        <ele>279.970343</ele>
        <time>2021-11-18T21:33:38.309Z</time>
      </trkpt>
      <trkpt lat="47.551498" lon="7.785081">
        <ele>278.184998</ele>
        <time>2021-11-18T21:33:58.688Z</time>
      </trkpt>
      <trkpt lat="47.551479" lon="7.784929">
        <ele>278.070534</ele>
        <time>2021-11-18T21:33:59.854Z</time>
      </trkpt>
      <trkpt lat="47.551510" lon="7.784910">
        <ele>278.033730</ele>
        <time>2021-11-18T21:34:00.318Z</time>
      </trkpt>
      <trkpt lat="47.551531" lon="7.784884">
        <ele>278.003706</ele>
        <time>2021-11-18T21:34:00.665Z</time>
      </trkpt>
      <trkpt lat="47.551548" lon="7.784841">
        <ele>277.966806</ele>
        <time>2021-11-18T21:34:01.120Z</time>
      </trkpt>
      <trkpt lat="47.551554" lon="7.784788">
        <ele>277.927014</ele>
        <time>2021-11-18T21:34:01.585Z</time>
      </trkpt>
      <trkpt lat="47.551547" lon="7.784737">
        <ele>277.888477</ele>
        <time>2021-11-18T21:34:02.030Z</time>
      </trkpt>
      <trkpt lat="47.551525" lon="7.784691">
        <ele>277.846732</ele>
        <time>2021-11-18T21:34:02.531Z</time>
      </trkpt>
      <trkpt lat="47.551500" lon="7.784666">
        <ele>277.813642</ele>
        <time>2021-11-18T21:34:02.906Z</time>
      </trkpt>
      <trkpt lat="47.551472" lon="7.784654">
        <ele>277.781664</ele>
        <time>2021-11-18T21:34:03.258Z</time>
      </trkpt>
      <trkpt lat="47.551437" lon="7.784657">
        <ele>277.743202</ele>
        <time>2021-11-18T21:34:03.657Z</time>
      </trkpt>
      <trkpt lat="47.551439" lon="7.784323">
        <ele>277.560587</ele>
        <time>2021-11-18T21:34:06.484Z</time>
      </trkpt>
      <trkpt lat="47.551400" lon="7.783856">
        <ele>277.423241</ele>
        <time>2021-11-18T21:34:10.451Z</time>
      </trkpt>
      <trkpt lat="47.551302" lon="7.782671">
        <ele>277.074779</ele>
        <time>2021-11-18T21:34:21.506Z</time>
      </trkpt>
      <trkpt lat="47.551230" lon="7.781831">
        <ele>276.827632</ele>
        <time>2021-11-18T21:34:29.683Z</time>
      </trkpt>
      <trkpt lat="47.551198" lon="7.781475">
        <ele>276.753570</ele>
        <time>2021-11-18T21:34:33.204Z</time>
      </trkpt>
      <trkpt lat="47.551270" lon="7.781390">
        <ele>276.725759</ele>
        <time>2021-11-18T21:34:34.984Z</time>
      </trkpt>
      <trkpt lat="47.551208" lon="7.780694">
        <ele>276.582623</ele>
        <time>2021-11-18T21:34:41.734Z</time>
      </trkpt>
      <trkpt lat="47.551085" lon="7.779125">
        <ele>276.256759</ele>
        <time>2021-11-18T21:34:56.214Z</time>
      </trkpt>
      <trkpt lat="47.550982" lon="7.777915">
        <ele>275.962808</ele>
        <time>2021-11-18T21:35:06.775Z</time>
      </trkpt>
      <trkpt lat="47.550963" lon="7.777797">
        <ele>275.933568</ele>
        <time>2021-11-18T21:35:07.788Z</time>
      </trkpt>
      <trkpt lat="47.550782" lon="7.776690">
        <ele>275.659034</ele>
        <time>2021-11-18T21:35:18.560Z</time>
      </trkpt>
      <trkpt lat="47.550651" lon="7.776079">
        <ele>275.803144</ele>
        <time>2021-11-18T21:35:25.393Z</time>
      </trkpt>
      <trkpt lat="47.550607" lon="7.775871">
        <ele>275.867100</ele>
        <time>2021-11-18T21:35:27.895Z</time>
      </trkpt>
      <trkpt lat="47.550598" lon="7.775828">
        <ele>275.880310</ele>
        <time>2021-11-18T21:35:28.381Z</time>
      </trkpt>
      <trkpt lat="47.550505" lon="7.775364">
        <ele>276.022329</ele>
        <time>2021-11-18T21:35:33.895Z</time>
      </trkpt>
      <trkpt lat="47.550320" lon="7.774602">
        <ele>276.259933</ele>
        <time>2021-11-18T21:35:43.381Z</time>
      </trkpt>
      <trkpt lat="47.550090" lon="7.773646">
        <ele>276.542992</ele>
        <time>2021-11-18T21:35:55.261Z</time>
      </trkpt>
      <trkpt lat="47.550061" lon="7.773283">
        <ele>276.638680</ele>
        <time>2021-11-18T21:35:59.399Z</time>
      </trkpt>
      <trkpt lat="47.550203" lon="7.772543">
        <ele>276.840071</ele>
        <time>2021-11-18T21:36:07.609Z</time>
      </trkpt>
      <trkpt lat="47.550199" lon="7.772076">
        <ele>276.962330</ele>
        <time>2021-11-18T21:36:12.597Z</time>
      </trkpt>
      <trkpt lat="47.550069" lon="7.771373">
        <ele>277.184851</ele>
        <time>2021-11-18T21:36:20.411Z</time>
      </trkpt>
      <trkpt lat="47.549845" lon="7.770734">
        <ele>277.546912</ele>
        <time>2021-11-18T21:36:28.567Z</time>
      </trkpt>
      <trkpt lat="47.549714" lon="7.770276">
        <ele>277.797035</ele>
        <time>2021-11-18T21:36:34.339Z</time>
      </trkpt>
      <trkpt lat="47.549678" lon="7.770148">
        <ele>277.866763</ele>
        <time>2021-11-18T21:36:36.130Z</time>
      </trkpt>
      <trkpt lat="47.549363" lon="7.768846">
        <ele>278.608204</ele>
        <time>2021-11-18T21:36:53.312Z</time>
      </trkpt>
      <trkpt lat="47.549184" lon="7.768021">
        <ele>279.237336</ele>
        <time>2021-11-18T21:37:05.754Z</time>
      </trkpt>
      <trkpt lat="47.548990" lon="7.767248">
        <ele>279.836073</ele>
        <time>2021-11-18T21:37:17.428Z</time>
      </trkpt>
      <trkpt lat="47.548565" lon="7.765680">
        <ele>279.927222</ele>
        <time>2021-11-18T21:37:36.238Z</time>
      </trkpt>
      <trkpt lat="47.547909" lon="7.763208">
        <ele>278.061397</ele>
        <time>2021-11-18T21:37:57.112Z</time>
      </trkpt>
      <trkpt lat="47.547848" lon="7.762928">
        <ele>277.744175</ele>
        <time>2021-11-18T21:37:59.256Z</time>
      </trkpt>
      <trkpt lat="47.547778" lon="7.762713">
        <ele>277.486811</ele>
        <time>2021-11-18T21:38:01.070Z</time>
      </trkpt>
      <trkpt lat="47.547676" lon="7.762506">
        <ele>277.210486</ele>
        <time>2021-11-18T21:38:02.970Z</time>
      </trkpt>
      <trkpt lat="47.547577" lon="7.762307">
        <ele>276.943949</ele>
        <time>2021-11-18T21:38:04.842Z</time>
      </trkpt>
      <trkpt lat="47.547194" lon="7.761352">
        <ele>276.056919</ele>
        <time>2021-11-18T21:38:13.349Z</time>
      </trkpt>
      <trkpt lat="47.546989" lon="7.760612">
        <ele>275.821921</ele>
        <time>2021-11-18T21:38:19.823Z</time>
      </trkpt>
      <trkpt lat="47.546948" lon="7.760482">
        <ele>275.779766</ele>
        <time>2021-11-18T21:38:21.070Z</time>
      </trkpt>
      <trkpt lat="47.546870" lon="7.760301">
        <ele>275.716677</ele>
        <time>2021-11-18T21:38:22.970Z</time>
      </trkpt>
      <trkpt lat="47.546804" lon="7.760164">
        <ele>275.667229</ele>
        <time>2021-11-18T21:38:24.423Z</time>
      </trkpt>
      <trkpt lat="47.546552" lon="7.759727">
        <ele>275.498372</ele>
        <time>2021-11-18T21:38:30.407Z</time>
      </trkpt>
      <trkpt lat="47.546312" lon="7.759326">
        <ele>275.690665</ele>
        <time>2021-11-18T21:38:36.771Z</time>
      </trkpt>
      <trkpt lat="47.546264" lon="7.759224">
        <ele>275.912237</ele>
        <time>2021-11-18T21:38:38.405Z</time>
      </trkpt>
      <trkpt lat="47.545911" lon="7.758393">
        <ele>277.661884</ele>
        <time>2021-11-18T21:38:54.805Z</time>
      </trkpt>
      <trkpt lat="47.545677" lon="7.757815">
        <ele>278.862917</ele>
        <time>2021-11-18T21:39:07.257Z</time>
      </trkpt>
      <trkpt lat="47.545429" lon="7.757231">
        <ele>280.092413</ele>
        <time>2021-11-18T21:39:20.563Z</time>
      </trkpt>
      <trkpt lat="47.545360" lon="7.757065">
        <ele>280.486247</ele>
        <time>2021-11-18T21:39:25.222Z</time>
      </trkpt>
      <trkpt lat="47.545326" lon="7.756949">
        <ele>280.746368</ele>
        <time>2021-11-18T21:39:27.974Z</time>
      </trkpt>
      <trkpt lat="47.545304" lon="7.756852">
        <ele>280.956846</ele>
        <time>2021-11-18T21:39:30.175Z</time>
      </trkpt>
      <trkpt lat="47.545260" lon="7.756637">
        <ele>281.418953</ele>
        <time>2021-11-18T21:39:35.232Z</time>
      </trkpt>
      <trkpt lat="47.545021" lon="7.756243">
        <ele>282.508521</ele>
        <time>2021-11-18T21:39:46.322Z</time>
      </trkpt>
      <trkpt lat="47.544022" lon="7.753705">
        <ele>287.353574</ele>
        <time>2021-11-18T21:40:34.792Z</time>
      </trkpt>
      <trkpt lat="47.543798" lon="7.753068">
        <ele>288.227280</ele>
        <time>2021-11-18T21:40:44.532Z</time>
      </trkpt>
      <trkpt lat="47.543319" lon="7.751355">
        <ele>289.455356</ele>
        <time>2021-11-18T21:41:07.597Z</time>
      </trkpt>
      <trkpt lat="47.543222" lon="7.751091">
        <ele>289.589379</ele>
        <time>2021-11-18T21:41:10.891Z</time>
      </trkpt>
      <trkpt lat="47.543115" lon="7.750826">
        <ele>289.727065</ele>
        <time>2021-11-18T21:41:15.611Z</time>
      </trkpt>
      <trkpt lat="47.543033" lon="7.750614">
        <ele>289.836013</ele>
        <time>2021-11-18T21:41:18.228Z</time>
      </trkpt>
      <trkpt lat="47.542912" lon="7.750367">
        <ele>289.972093</ele>
        <time>2021-11-18T21:41:21.732Z</time>
      </trkpt>
      <trkpt lat="47.542614" lon="7.749755">
        <ele>290.076535</ele>
        <time>2021-11-18T21:41:29.768Z</time>
      </trkpt>
      <trkpt lat="47.542390" lon="7.749307">
        <ele>290.102967</ele>
        <time>2021-11-18T21:41:35.577Z</time>
      </trkpt>
      <trkpt lat="47.542347" lon="7.749227">
        <ele>290.107815</ele>
        <time>2021-11-18T21:41:37.107Z</time>
      </trkpt>
      <trkpt lat="47.542132" lon="7.748742">
        <ele>290.135324</ele>
        <time>2021-11-18T21:41:44.667Z</time>
      </trkpt>
      <trkpt lat="47.541758" lon="7.747784">
        <ele>290.184503</ele>
        <time>2021-11-18T21:41:59.457Z</time>
      </trkpt>
      <trkpt lat="47.541583" lon="7.747186">
        <ele>290.207298</ele>
        <time>2021-11-18T21:42:08.635Z</time>
      </trkpt>
      <trkpt lat="47.541511" lon="7.746885">
        <ele>290.218467</ele>
        <time>2021-11-18T21:42:13.106Z</time>
      </trkpt>
      <trkpt lat="47.541432" lon="7.746552">
        <ele>290.230812</ele>
        <time>2021-11-18T21:42:18.217Z</time>
      </trkpt>
      <trkpt lat="47.541167" lon="7.745463">
        <ele>290.271025</ele>
        <time>2021-11-18T21:42:34.055Z</time>
      </trkpt>
      <trkpt lat="47.541160" lon="7.745250">
        <ele>290.277768</ele>
        <time>2021-11-18T21:42:36.927Z</time>
      </trkpt>
      <trkpt lat="47.541148" lon="7.745144">
        <ele>290.281167</ele>
        <time>2021-11-18T21:42:38.458Z</time>
      </trkpt>
      <trkpt lat="47.541130" lon="7.745083">
        <ele>290.283272</ele>
        <time>2021-11-18T21:42:39.350Z</time>
      </trkpt>
      <trkpt lat="47.541038" lon="7.744940">
        <ele>290.289518</ele>
        <time>2021-11-18T21:42:41.740Z</time>
      </trkpt>
      <trkpt lat="47.541019" lon="7.744859">
        <ele>290.292229</ele>
        <time>2021-11-18T21:42:42.985Z</time>
      </trkpt>
      <trkpt lat="47.540913" lon="7.744421">
        <ele>290.306942</ele>
        <time>2021-11-18T21:42:49.528Z</time>
      </trkpt>
      <trkpt lat="47.540748" lon="7.743687">
        <ele>290.331404</ele>
        <time>2021-11-18T21:43:00.638Z</time>
      </trkpt>
      <trkpt lat="47.540738" lon="7.743641">
        <ele>290.332932</ele>
        <time>2021-11-18T21:43:01.314Z</time>
      </trkpt>
      <trkpt lat="47.540617" lon="7.742875">
        <ele>290.289161</ele>
        <time>2021-11-18T21:43:12.282Z</time>
      </trkpt>
      <trkpt lat="47.540589" lon="7.742558">
        <ele>290.163668</ele>
        <time>2021-11-18T21:43:16.636Z</time>
      </trkpt>
      <trkpt lat="47.540552" lon="7.742240">
        <ele>290.037002</ele>
        <time>2021-11-18T21:43:20.926Z</time>
      </trkpt>
      <trkpt lat="47.540438" lon="7.740453">
        <ele>289.332421</ele>
        <time>2021-11-18T21:43:42.597Z</time>
      </trkpt>
      <trkpt lat="47.540374" lon="7.739620">
        <ele>288.673962</ele>
        <time>2021-11-18T21:43:52.017Z</time>
      </trkpt>
      <trkpt lat="47.540372" lon="7.739490">
        <ele>288.567527</ele>
        <time>2021-11-18T21:43:53.567Z</time>
      </trkpt>
      <trkpt lat="47.540387" lon="7.739372">
        <ele>288.469244</ele>
        <time>2021-11-18T21:43:55.054Z</time>
      </trkpt>
      <trkpt lat="47.540394" lon="7.739259">
        <ele>288.376363</ele>
        <time>2021-11-18T21:43:56.384Z</time>
      </trkpt>
      <trkpt lat="47.540388" lon="7.739213">
        <ele>288.338014</ele>
        <time>2021-11-18T21:43:56.777Z</time>
      </trkpt>
      <trkpt lat="47.540300" lon="7.738699">
        <ele>287.903975</ele>
        <time>2021-11-18T21:44:02.779Z</time>
      </trkpt>
      <trkpt lat="47.540032" lon="7.737141">
        <ele>287.127412</ele>
        <time>2021-11-18T21:44:21.310Z</time>
      </trkpt>
      <trkpt lat="47.539305" lon="7.734151">
        <ele>287.682980</ele>
        <time>2021-11-18T21:45:08.420Z</time>
      </trkpt>
      <trkpt lat="47.539263" lon="7.733885">
        <ele>287.811572</ele>
        <time>2021-11-18T21:45:12.821Z</time>
      </trkpt>
      <trkpt lat="47.539178" lon="7.733656">
        <ele>287.934587</ele>
        <time>2021-11-18T21:45:16.971Z</time>
      </trkpt>
      <trkpt lat="47.538887" lon="7.732454">
        <ele>288.532918</ele>
        <time>2021-11-18T21:45:37.658Z</time>
      </trkpt>
      <trkpt lat="47.538512" lon="7.730958">
        <ele>289.270240</ele>
        <time>2021-11-18T21:46:03.162Z</time>
      </trkpt>
      <trkpt lat="47.538339" lon="7.730082">
        <ele>289.537429</ele>
        <time>2021-11-18T21:46:16.531Z</time>
      </trkpt>
      <trkpt lat="47.538275" lon="7.729744">
        <ele>289.365475</ele>
        <time>2021-11-18T21:46:21.388Z</time>
      </trkpt>
      <trkpt lat="47.538248" lon="7.729713">
        <ele>289.340688</ele>
        <time>2021-11-18T21:46:22.001Z</time>
      </trkpt>
      <trkpt lat="47.538168" lon="7.729263">
        <ele>289.112746</ele>
        <time>2021-11-18T21:46:28.088Z</time>
      </trkpt>
      <trkpt lat="47.538148" lon="7.729131">
        <ele>289.046479</ele>
        <time>2021-11-18T21:46:29.758Z</time>
      </trkpt>
      <trkpt lat="47.538123" lon="7.729100">
        <ele>289.022823</ele>
        <time>2021-11-18T21:46:30.354Z</time>
      </trkpt>
      <trkpt lat="47.538083" lon="7.728919">
        <ele>288.929532</ele>
        <time>2021-11-18T21:46:32.687Z</time>
      </trkpt>
      <trkpt lat="47.538050" lon="7.728701">
        <ele>288.820096</ele>
        <time>2021-11-18T21:46:35.420Z</time>
      </trkpt>
      <trkpt lat="47.537932" lon="7.727936">
        <ele>288.435711</ele>
        <time>2021-11-18T21:46:44.497Z</time>
      </trkpt>
      <trkpt lat="47.537861" lon="7.727909">
        <ele>288.382525</ele>
        <time>2021-11-18T21:46:45.683Z</time>
      </trkpt>
      <trkpt lat="47.537824" lon="7.727674">
        <ele>288.112646</ele>
        <time>2021-11-18T21:46:47.535Z</time>
      </trkpt>
      <trkpt lat="47.537675" lon="7.726458">
        <ele>285.576752</ele>
        <time>2021-11-18T21:46:56.478Z</time>
      </trkpt>
      <trkpt lat="47.537323" lon="7.724748">
        <ele>281.787634</ele>
        <time>2021-11-18T21:47:08.221Z</time>
      </trkpt>
      <trkpt lat="47.537127" lon="7.723974">
        <ele>279.872530</ele>
        <time>2021-11-18T21:47:13.657Z</time>
      </trkpt>
      <trkpt lat="47.537106" lon="7.723875">
        <ele>279.632124</ele>
        <time>2021-11-18T21:47:14.341Z</time>
      </trkpt>
      <trkpt lat="47.537075" lon="7.723694">
        <ele>279.199520</ele>
        <time>2021-11-18T21:47:15.570Z</time>
      </trkpt>
      <trkpt lat="47.536854" lon="7.722329">
        <ele>276.104753</ele>
        <time>2021-11-18T21:47:25.484Z</time>
      </trkpt>
      <trkpt lat="47.536667" lon="7.721718">
        <ele>274.887372</ele>
        <time>2021-11-18T21:47:30.606Z</time>
      </trkpt>
      <trkpt lat="47.536590" lon="7.721558">
        <ele>274.530806</ele>
        <time>2021-11-18T21:47:32.066Z</time>
      </trkpt>
      <trkpt lat="47.536471" lon="7.721389">
        <ele>274.087672</ele>
        <time>2021-11-18T21:47:33.586Z</time>
      </trkpt>
      <trkpt lat="47.536092" lon="7.720862">
        <ele>272.690388</ele>
        <time>2021-11-18T21:47:39.446Z</time>
      </trkpt>
      <trkpt lat="47.535988" lon="7.720671">
        <ele>272.245098</ele>
        <time>2021-11-18T21:47:40.940Z</time>
      </trkpt>
      <trkpt lat="47.535897" lon="7.720461">
        <ele>271.799179</ele>
        <time>2021-11-18T21:47:43.158Z</time>
      </trkpt>
      <trkpt lat="47.535876" lon="7.720409">
        <ele>271.705743</ele>
        <time>2021-11-18T21:47:43.810Z</time>
      </trkpt>
      <trkpt lat="47.535806" lon="7.720212">
        <ele>271.362460</ele>
        <time>2021-11-18T21:47:45.158Z</time>
      </trkpt>
      <trkpt lat="47.535746" lon="7.719899">
        <ele>270.860728</ele>
        <time>2021-11-18T21:47:48.658Z</time>
      </trkpt>
      <trkpt lat="47.535713" lon="7.719682">
        <ele>270.517725</ele>
        <time>2021-11-18T21:47:49.995Z</time>
      </trkpt>
      <trkpt lat="47.535661" lon="7.719317">
        <ele>269.942491</ele>
        <time>2021-11-18T21:47:53.874Z</time>
      </trkpt>
      <trkpt lat="47.535620" lon="7.719033">
        <ele>269.494655</ele>
        <time>2021-11-18T21:47:55.862Z</time>
      </trkpt>
      <trkpt lat="47.535608" lon="7.718948">
        <ele>269.360747</ele>
        <time>2021-11-18T21:47:56.613Z</time>
      </trkpt>
      <trkpt lat="47.535572" lon="7.718705">
        <ele>268.977119</ele>
        <time>2021-11-18T21:47:58.222Z</time>
      </trkpt>
      <trkpt lat="47.535558" lon="7.718578">
        <ele>268.778688</ele>
        <time>2021-11-18T21:47:59.200Z</time>
      </trkpt>
      <trkpt lat="47.535516" lon="7.718273">
        <ele>268.298685</ele>
        <time>2021-11-18T21:48:02.024Z</time>
      </trkpt>
      <trkpt lat="47.535494" lon="7.718111">
        <ele>268.043873</ele>
        <time>2021-11-18T21:48:03.009Z</time>
      </trkpt>
      <trkpt lat="47.535490" lon="7.718086">
        <ele>268.004254</ele>
        <time>2021-11-18T21:48:03.820Z</time>
      </trkpt>
      <trkpt lat="47.535419" lon="7.717562">
        <ele>267.912295</ele>
        <time>2021-11-18T21:48:07.846Z</time>
      </trkpt>
      <trkpt lat="47.535384" lon="7.717243">
        <ele>268.077375</ele>
        <time>2021-11-18T21:48:12.958Z</time>
      </trkpt>
      <trkpt lat="47.535370" lon="7.716931">
        <ele>268.237094</ele>
        <time>2021-11-18T21:48:16.768Z</time>
      </trkpt>
      <trkpt lat="47.535347" lon="7.716584">
        <ele>268.415190</ele>
        <time>2021-11-18T21:48:20.044Z</time>
      </trkpt>
      <trkpt lat="47.535313" lon="7.716133">
        <ele>268.646989</ele>
        <time>2021-11-18T21:48:27.194Z</time>
      </trkpt>
      <trkpt lat="47.535254" lon="7.715336">
        <ele>269.056530</ele>
        <time>2021-11-18T21:48:39.743Z</time>
      </trkpt>
      <trkpt lat="47.535269" lon="7.714924">
        <ele>269.392977</ele>
        <time>2021-11-18T21:48:45.876Z</time>
      </trkpt>
      <trkpt lat="47.535269" lon="7.714705">
        <ele>269.584568</ele>
        <time>2021-11-18T21:48:49.136Z</time>
      </trkpt>
      <trkpt lat="47.535269" lon="7.714432">
        <ele>269.823401</ele>
        <time>2021-11-18T21:48:52.780Z</time>
      </trkpt>
      <trkpt lat="47.535222" lon="7.713738">
        <ele>270.433591</ele>
        <time>2021-11-18T21:49:02.293Z</time>
      </trkpt>
      <trkpt lat="47.535202" lon="7.713540">
        <ele>270.608738</ele>
        <time>2021-11-18T21:49:04.983Z</time>
      </trkpt>
      <trkpt lat="47.535174" lon="7.713262">
        <ele>270.854637</ele>
        <time>2021-11-18T21:49:08.441Z</time>
      </trkpt>
      <trkpt lat="47.535128" lon="7.712889">
        <ele>271.186355</ele>
        <time>2021-11-18T21:49:13.231Z</time>
      </trkpt>
      <trkpt lat="47.535110" lon="7.712748">
        <ele>271.311894</ele>
        <time>2021-11-18T21:49:14.977Z</time>
      </trkpt>
      <trkpt lat="47.535067" lon="7.712436">
        <ele>271.494739</ele>
        <time>2021-11-18T21:49:19.011Z</time>
      </trkpt>
      <trkpt lat="47.535046" lon="7.712285">
        <ele>271.553146</ele>
        <time>2021-11-18T21:49:20.774Z</time>
      </trkpt>
      <trkpt lat="47.535045" lon="7.712277">
        <ele>271.556228</ele>
        <time>2021-11-18T21:49:20.878Z</time>
      </trkpt>
      <trkpt lat="47.534965" lon="7.711682">
        <ele>271.786070</ele>
        <time>2021-11-18T21:49:28.080Z</time>
      </trkpt>
      <trkpt lat="47.534909" lon="7.711265">
        <ele>271.947145</ele>
        <time>2021-11-18T21:49:33.101Z</time>
      </trkpt>
      <trkpt lat="47.534768" lon="7.710504">
        <ele>272.246110</ele>
        <time>2021-11-18T21:49:42.207Z</time>
      </trkpt>
      <trkpt lat="47.534734" lon="7.710344">
        <ele>272.309658</ele>
        <time>2021-11-18T21:49:44.085Z</time>
      </trkpt>
      <trkpt lat="47.534641" lon="7.709912">
        <ele>272.410645</ele>
        <time>2021-11-18T21:49:48.926Z</time>
      </trkpt>
      <trkpt lat="47.534615" lon="7.709805">
        <ele>272.393369</ele>
        <time>2021-11-18T21:49:50.117Z</time>
      </trkpt>
      <trkpt lat="47.534577" lon="7.709613">
        <ele>272.362973</ele>
        <time>2021-11-18T21:49:52.195Z</time>
      </trkpt>
      <trkpt lat="47.534509" lon="7.709297">
        <ele>272.312588</ele>
        <time>2021-11-18T21:49:55.358Z</time>
      </trkpt>
      <trkpt lat="47.534390" lon="7.708741">
        <ele>272.223978</ele>
        <time>2021-11-18T21:50:00.755Z</time>
      </trkpt>
      <trkpt lat="47.534357" lon="7.708594">
        <ele>272.200444</ele>
        <time>2021-11-18T21:50:02.146Z</time>
      </trkpt>
      <trkpt lat="47.534132" lon="7.707553">
        <ele>272.034390</ele>
        <time>2021-11-18T21:50:11.954Z</time>
      </trkpt>
      <trkpt lat="47.534017" lon="7.707047">
        <ele>271.874735</ele>
        <time>2021-11-18T21:50:16.979Z</time>
      </trkpt>
      <trkpt lat="47.533747" lon="7.705801">
        <ele>271.461748</ele>
        <time>2021-11-18T21:50:28.712Z</time>
      </trkpt>
      <trkpt lat="47.533715" lon="7.705652">
        <ele>271.412403</ele>
        <time>2021-11-18T21:50:30.116Z</time>
      </trkpt>
      <trkpt lat="47.533704" lon="7.705593">
        <ele>271.393086</ele>
        <time>2021-11-18T21:50:30.662Z</time>
      </trkpt>
      <trkpt lat="47.533527" lon="7.704796">
        <ele>271.133318</ele>
        <time>2021-11-18T21:50:38.066Z</time>
      </trkpt>
      <trkpt lat="47.533301" lon="7.703780">
        <ele>270.825377</ele>
        <time>2021-11-18T21:50:47.853Z</time>
      </trkpt>
      <trkpt lat="47.532835" lon="7.701725">
        <ele>270.196061</ele>
        <time>2021-11-18T21:51:07.603Z</time>
      </trkpt>
      <trkpt lat="47.532793" lon="7.701522">
        <ele>270.133459</ele>
        <time>2021-11-18T21:51:09.520Z</time>
      </trkpt>
      <trkpt lat="47.532428" lon="7.699970">
        <ele>269.648883</ele>
        <time>2021-11-18T21:51:24.445Z</time>
      </trkpt>
      <trkpt lat="47.532407" lon="7.699875">
        <ele>269.599806</ele>
        <time>2021-11-18T21:51:25.350Z</time>
      </trkpt>
      <trkpt lat="47.532378" lon="7.699751">
        <ele>269.505541</ele>
        <time>2021-11-18T21:51:26.480Z</time>
      </trkpt>
      <trkpt lat="47.532326" lon="7.699504">
        <ele>269.319688</ele>
        <time>2021-11-18T21:51:28.914Z</time>
      </trkpt>
      <trkpt lat="47.532317" lon="7.699464">
        <ele>269.289402</ele>
        <time>2021-11-18T21:51:29.243Z</time>
      </trkpt>
      <trkpt lat="47.532234" lon="7.699115">
        <ele>269.023607</ele>
        <time>2021-11-18T21:51:32.453Z</time>
      </trkpt>
      <trkpt lat="47.532082" lon="7.698472">
        <ele>268.534228</ele>
        <time>2021-11-18T21:51:38.075Z</time>
      </trkpt>
      <trkpt lat="47.531987" lon="7.698056">
        <ele>268.218771</ele>
        <time>2021-11-18T21:51:41.592Z</time>
      </trkpt>
      <trkpt lat="47.531820" lon="7.697324">
        <ele>267.651438</ele>
        <time>2021-11-18T21:51:47.559Z</time>
      </trkpt>
      <trkpt lat="47.531503" lon="7.695640">
        <ele>266.118222</ele>
        <time>2021-11-18T21:52:00.816Z</time>
      </trkpt>
      <trkpt lat="47.531279" lon="7.693388">
        <ele>265.686695</ele>
        <time>2021-11-18T21:52:21.228Z</time>
      </trkpt>
      <trkpt lat="47.531252" lon="7.693049">
        <ele>265.758744</ele>
        <time>2021-11-18T21:52:25.890Z</time>
      </trkpt>
      <trkpt lat="47.531247" lon="7.692506">
        <ele>265.873366</ele>
        <time>2021-11-18T21:52:33.396Z</time>
      </trkpt>
      <trkpt lat="47.531250" lon="7.692032">
        <ele>265.987251</ele>
        <time>2021-11-18T21:52:39.964Z</time>
      </trkpt>
      <trkpt lat="47.531253" lon="7.691880">
        <ele>266.035204</ele>
        <time>2021-11-18T21:52:41.781Z</time>
      </trkpt>
      <trkpt lat="47.531254" lon="7.691721">
        <ele>266.085347</ele>
        <time>2021-11-18T21:52:43.873Z</time>
      </trkpt>
      <trkpt lat="47.531257" lon="7.691497">
        <ele>266.155998</ele>
        <time>2021-11-18T21:52:46.806Z</time>
      </trkpt>
      <trkpt lat="47.531218" lon="7.691259">
        <ele>266.233230</ele>
        <time>2021-11-18T21:52:49.417Z</time>
      </trkpt>
      <trkpt lat="47.531228" lon="7.690572">
        <ele>266.449924</ele>
        <time>2021-11-18T21:52:57.966Z</time>
      </trkpt>
      <trkpt lat="47.531244" lon="7.689927">
        <ele>266.653461</ele>
        <time>2021-11-18T21:53:04.453Z</time>
      </trkpt>
      <trkpt lat="47.531254" lon="7.689619">
        <ele>266.750700</ele>
        <time>2021-11-18T21:53:07.243Z</time>
      </trkpt>
      <trkpt lat="47.531264" lon="7.689333">
        <ele>266.706775</ele>
        <time>2021-11-18T21:53:09.918Z</time>
      </trkpt>
      <trkpt lat="47.531265" lon="7.689138">
        <ele>266.619621</ele>
        <time>2021-11-18T21:53:11.570Z</time>
      </trkpt>
      <trkpt lat="47.531267" lon="7.688842">
        <ele>266.487323</ele>
        <time>2021-11-18T21:53:14.269Z</time>
      </trkpt>
      <trkpt lat="47.531309" lon="7.687734">
        <ele>265.991344</ele>
        <time>2021-11-18T21:53:23.277Z</time>
      </trkpt>
      <trkpt lat="47.531311" lon="7.686964">
        <ele>265.647205</ele>
        <time>2021-11-18T21:53:29.857Z</time>
      </trkpt>
      <trkpt lat="47.531302" lon="7.686543">
        <ele>265.658148</ele>
        <time>2021-11-18T21:53:34.110Z</time>
      </trkpt>
      <trkpt lat="47.531297" lon="7.685934">
        <ele>265.784810</ele>
        <time>2021-11-18T21:53:40.638Z</time>
      </trkpt>
      <trkpt lat="47.531296" lon="7.684922">
        <ele>265.995274</ele>
        <time>2021-11-18T21:53:52.080Z</time>
      </trkpt>
      <trkpt lat="47.531277" lon="7.683432">
        <ele>266.538149</ele>
        <time>2021-11-18T21:54:09.243Z</time>
      </trkpt>
      <trkpt lat="47.531276" lon="7.682944">
        <ele>266.790895</ele>
        <time>2021-11-18T21:54:14.993Z</time>
      </trkpt>
      <trkpt lat="47.531275" lon="7.682615">
        <ele>266.961293</ele>
        <time>2021-11-18T21:54:18.974Z</time>
      </trkpt>
      <trkpt lat="47.531257" lon="7.681446">
        <ele>267.569107</ele>
        <time>2021-11-18T21:54:33.767Z</time>
      </trkpt>
      <trkpt lat="47.531222" lon="7.679157">
        <ele>268.823303</ele>
        <time>2021-11-18T21:55:02.315Z</time>
      </trkpt>
      <trkpt lat="47.531218" lon="7.678940">
        <ele>268.942216</ele>
        <time>2021-11-18T21:55:05.475Z</time>
      </trkpt>
      <trkpt lat="47.531215" lon="7.678292">
        <ele>269.025682</ele>
        <time>2021-11-18T21:55:11.935Z</time>
      </trkpt>
      <trkpt lat="47.531238" lon="7.677761">
        <ele>269.061334</ele>
        <time>2021-11-18T21:55:17.093Z</time>
      </trkpt>
      <trkpt lat="47.531253" lon="7.677527">
        <ele>269.077083</ele>
        <time>2021-11-18T21:55:19.101Z</time>
      </trkpt>
      <trkpt lat="47.531275" lon="7.677355">
        <ele>269.088813</ele>
        <time>2021-11-18T21:55:21.343Z</time>
      </trkpt>
      <trkpt lat="47.531314" lon="7.677106">
        <ele>269.105940</ele>
        <time>2021-11-18T21:55:23.813Z</time>
      </trkpt>
      <trkpt lat="47.531325" lon="7.677036">
        <ele>269.110756</ele>
        <time>2021-11-18T21:55:24.419Z</time>
      </trkpt>
      <trkpt lat="47.531397" lon="7.676665">
        <ele>269.136620</ele>
        <time>2021-11-18T21:55:28.840Z</time>
      </trkpt>
      <trkpt lat="47.531455" lon="7.676389">
        <ele>269.155988</ele>
        <time>2021-11-18T21:55:31.555Z</time>
      </trkpt>
      <trkpt lat="47.531545" lon="7.675929">
        <ele>269.027501</ele>
        <time>2021-11-18T21:55:36.622Z</time>
      </trkpt>
      <trkpt lat="47.531606" lon="7.675606">
        <ele>268.884002</ele>
        <time>2021-11-18T21:55:40.049Z</time>
      </trkpt>
      <trkpt lat="47.531635" lon="7.675449">
        <ele>268.814361</ele>
        <time>2021-11-18T21:55:41.296Z</time>
      </trkpt>
      <trkpt lat="47.531719" lon="7.675071">
        <ele>268.644100</ele>
        <time>2021-11-18T21:55:44.562Z</time>
      </trkpt>
      <trkpt lat="47.531825" lon="7.674498">
        <ele>268.389907</ele>
        <time>2021-11-18T21:55:49.295Z</time>
      </trkpt>
      <trkpt lat="47.531884" lon="7.674105">
        <ele>268.217657</ele>
        <time>2021-11-18T21:55:52.737Z</time>
      </trkpt>
      <trkpt lat="47.531942" lon="7.673731">
        <ele>268.053475</ele>
        <time>2021-11-18T21:55:56.347Z</time>
      </trkpt>
      <trkpt lat="47.531990" lon="7.673394">
        <ele>267.997062</ele>
        <time>2021-11-18T21:55:59.313Z</time>
      </trkpt>
      <trkpt lat="47.532036" lon="7.673089">
        <ele>267.964303</ele>
        <time>2021-11-18T21:56:02.225Z</time>
      </trkpt>
      <trkpt lat="47.532065" lon="7.672871">
        <ele>267.941013</ele>
        <time>2021-11-18T21:56:04.102Z</time>
      </trkpt>
      <trkpt lat="47.532344" lon="7.670949">
        <ele>267.879707</ele>
        <time>2021-11-18T21:56:22.242Z</time>
      </trkpt>
      <trkpt lat="47.532378" lon="7.670762">
        <ele>268.096580</ele>
        <time>2021-11-18T21:56:25.132Z</time>
      </trkpt>
      <trkpt lat="47.532450" lon="7.670414">
        <ele>268.504177</ele>
        <time>2021-11-18T21:56:30.999Z</time>
      </trkpt>
      <trkpt lat="47.532528" lon="7.670085">
        <ele>268.894663</ele>
        <time>2021-11-18T21:56:37.062Z</time>
      </trkpt>
      <trkpt lat="47.532604" lon="7.669823">
        <ele>269.213997</ele>
        <time>2021-11-18T21:56:42.251Z</time>
      </trkpt>
      <trkpt lat="47.532727" lon="7.669421">
        <ele>269.708245</ele>
        <time>2021-11-18T21:56:49.387Z</time>
      </trkpt>
      <trkpt lat="47.532897" lon="7.668969">
        <ele>270.287653</ele>
        <time>2021-11-18T21:56:57.177Z</time>
      </trkpt>
      <trkpt lat="47.533053" lon="7.668607">
        <ele>270.739387</ele>
        <time>2021-11-18T21:57:02.407Z</time>
      </trkpt>
      <trkpt lat="47.533159" lon="7.668361">
        <ele>270.815016</ele>
        <time>2021-11-18T21:57:06.807Z</time>
      </trkpt>
      <trkpt lat="47.533253" lon="7.668149">
        <ele>270.880746</ele>
        <time>2021-11-18T21:57:09.398Z</time>
      </trkpt>
      <trkpt lat="47.533486" lon="7.667627">
        <ele>271.042916</ele>
        <time>2021-11-18T21:57:17.078Z</time>
      </trkpt>
      <trkpt lat="47.533740" lon="7.667075">
        <ele>271.216034</ele>
        <time>2021-11-18T21:57:24.629Z</time>
      </trkpt>
      <trkpt lat="47.533835" lon="7.666868">
        <ele>271.280898</ele>
        <time>2021-11-18T21:57:26.668Z</time>
      </trkpt>
      <trkpt lat="47.533775" lon="7.666807">
        <ele>271.308833</ele>
        <time>2021-11-18T21:57:28.080Z</time>
      </trkpt>
      <trkpt lat="47.533696" lon="7.666647">
        <ele>271.360202</ele>
        <time>2021-11-18T21:57:30.357Z</time>
      </trkpt>
      <trkpt lat="47.533398" lon="7.666305">
        <ele>271.414324</ele>
        <time>2021-11-18T21:57:35.050Z</time>
      </trkpt>
      <trkpt lat="47.533116" lon="7.665988">
        <ele>271.403523</ele>
        <time>2021-11-18T21:57:39.278Z</time>
      </trkpt>
      <trkpt lat="47.532925" lon="7.665760">
        <ele>271.396038</ele>
        <time>2021-11-18T21:57:42.383Z</time>
      </trkpt>
      <trkpt lat="47.532786" lon="7.665641">
        <ele>271.391139</ele>
        <time>2021-11-18T21:57:44.453Z</time>
      </trkpt>
      <trkpt lat="47.532672" lon="7.665583">
        <ele>271.387462</ele>
        <time>2021-11-18T21:57:46.028Z</time>
      </trkpt>
      <trkpt lat="47.532292" lon="7.665148">
        <ele>271.372808</ele>
        <time>2021-11-18T21:57:54.865Z</time>
      </trkpt>
      <trkpt lat="47.532140" lon="7.664972">
        <ele>271.366921</ele>
        <time>2021-11-18T21:57:57.899Z</time>
      </trkpt>
      <trkpt lat="47.531991" lon="7.664806">
        <ele>271.639928</ele>
        <time>2021-11-18T21:58:02.146Z</time>
      </trkpt>
      <trkpt lat="47.531765" lon="7.664540">
        <ele>272.133799</ele>
        <time>2021-11-18T21:58:07.780Z</time>
      </trkpt>
      <trkpt lat="47.530899" lon="7.663616">
        <ele>273.959815</ele>
        <time>2021-11-18T21:58:30.548Z</time>
      </trkpt>
      <trkpt lat="47.530793" lon="7.663521">
        <ele>274.171782</ele>
        <time>2021-11-18T21:58:34.075Z</time>
      </trkpt>
      <trkpt lat="47.530719" lon="7.663465">
        <ele>274.313954</ele>
        <time>2021-11-18T21:58:36.450Z</time>
      </trkpt>
      <trkpt lat="47.529792" lon="7.663087">
        <ele>276.629871</ele>
        <time>2021-11-18T21:59:05.572Z</time>
      </trkpt>
      <trkpt lat="47.529676" lon="7.663021">
        <ele>276.936587</ele>
        <time>2021-11-18T21:59:09.293Z</time>
      </trkpt>
      <trkpt lat="47.529624" lon="7.662986">
        <ele>277.077567</ele>
        <time>2021-11-18T21:59:10.693Z</time>
      </trkpt>
      <trkpt lat="47.529576" lon="7.662954">
        <ele>277.207492</ele>
        <time>2021-11-18T21:59:12.065Z</time>
      </trkpt>
      <trkpt lat="47.529502" lon="7.662906">
        <ele>277.406891</ele>
        <time>2021-11-18T21:59:14.223Z</time>
      </trkpt>
      <trkpt lat="47.528985" lon="7.662541">
        <ele>278.820536</ele>
        <time>2021-11-18T21:59:31.630Z</time>
      </trkpt>
      <trkpt lat="47.528693" lon="7.662320">
        <ele>279.517913</ele>
        <time>2021-11-18T21:59:41.362Z</time>
      </trkpt>
      <trkpt lat="47.528592" lon="7.662229">
        <ele>279.765969</ele>
        <time>2021-11-18T21:59:44.502Z</time>
      </trkpt>
      <trkpt lat="47.528425" lon="7.662035">
        <ele>280.211307</ele>
        <time>2021-11-18T21:59:49.278Z</time>
      </trkpt>
      <trkpt lat="47.528226" lon="7.661637">
        <ele>280.912947</ele>
        <time>2021-11-18T21:59:57.055Z</time>
      </trkpt>
      <trkpt lat="47.528111" lon="7.661272">
        <ele>281.483595</ele>
        <time>2021-11-18T22:00:03.619Z</time>
      </trkpt>
      <trkpt lat="47.527912" lon="7.660639">
        <ele>282.472853</ele>
        <time>2021-11-18T22:00:14.224Z</time>
      </trkpt>
      <trkpt lat="47.527673" lon="7.659801">
        <ele>282.869868</ele>
        <time>2021-11-18T22:00:27.557Z</time>
      </trkpt>
      <trkpt lat="47.527666" lon="7.659776">
        <ele>282.877265</ele>
        <time>2021-11-18T22:00:27.982Z</time>
      </trkpt>
      <trkpt lat="47.527370" lon="7.658528">
        <ele>283.238785</ele>
        <time>2021-11-18T22:00:41.349Z</time>
      </trkpt>
      <trkpt lat="47.527241" lon="7.658123">
        <ele>283.361172</ele>
        <time>2021-11-18T22:00:45.191Z</time>
      </trkpt>
      <trkpt lat="47.527139" lon="7.657807">
        <ele>283.270806</ele>
        <time>2021-11-18T22:00:48.188Z</time>
      </trkpt>
      <trkpt lat="47.527042" lon="7.657604">
        <ele>283.163507</ele>
        <time>2021-11-18T22:00:50.323Z</time>
      </trkpt>
      <trkpt lat="47.526917" lon="7.657402">
        <ele>283.045288</ele>
        <time>2021-11-18T22:00:52.670Z</time>
      </trkpt>
      <trkpt lat="47.526859" lon="7.657325">
        <ele>282.995516</ele>
        <time>2021-11-18T22:00:53.608Z</time>
      </trkpt>
      <trkpt lat="47.526880" lon="7.657295">
        <ele>282.976872</ele>
        <time>2021-11-18T22:00:53.960Z</time>
      </trkpt>
      <trkpt lat="47.526883" lon="7.657129">
        <ele>282.905223</ele>
        <time>2021-11-18T22:00:55.597Z</time>
      </trkpt>
      <trkpt lat="47.526863" lon="7.657097">
        <ele>282.886410</ele>
        <time>2021-11-18T22:00:55.933Z</time>
      </trkpt>
      <trkpt lat="47.526840" lon="7.657078">
        <ele>282.869582</ele>
        <time>2021-11-18T22:00:56.254Z</time>
      </trkpt>
      <trkpt lat="47.526789" lon="7.657068">
        <ele>282.836709</ele>
        <time>2021-11-18T22:00:56.877Z</time>
      </trkpt>
      <trkpt lat="47.526764" lon="7.657078">
        <ele>282.820162</ele>
        <time>2021-11-18T22:00:57.188Z</time>
      </trkpt>
      <trkpt lat="47.526741" lon="7.657100">
        <ele>282.802667</ele>
        <time>2021-11-18T22:00:57.532Z</time>
      </trkpt>
      <trkpt lat="47.526722" lon="7.657130">
        <ele>282.784921</ele>
        <time>2021-11-18T22:00:57.852Z</time>
      </trkpt>
      <trkpt lat="47.526710" lon="7.657166">
        <ele>282.767598</ele>
        <time>2021-11-18T22:00:58.178Z</time>
      </trkpt>
      <trkpt lat="47.526706" lon="7.657209">
        <ele>282.748870</ele>
        <time>2021-11-18T22:00:58.531Z</time>
      </trkpt>
      <trkpt lat="47.526723" lon="7.657291">
        <ele>282.711860</ele>
        <time>2021-11-18T22:00:59.300Z</time>
      </trkpt>
      <trkpt lat="47.526743" lon="7.657323">
        <ele>282.693046</ele>
        <time>2021-11-18T22:00:59.819Z</time>
      </trkpt>
      <trkpt lat="47.526694" lon="7.657412">
        <ele>282.643499</ele>
        <time>2021-11-18T22:01:01.208Z</time>
      </trkpt>
      <trkpt lat="47.526672" lon="7.657453">
        <ele>282.620904</ele>
        <time>2021-11-18T22:01:01.775Z</time>
      </trkpt>
      <trkpt lat="47.526339" lon="7.657736">
        <ele>282.375578</ele>
        <time>2021-11-18T22:01:08.573Z</time>
      </trkpt>
      <trkpt lat="47.526194" lon="7.657732">
        <ele>282.282911</ele>
        <time>2021-11-18T22:01:11.023Z</time>
      </trkpt>
      <trkpt lat="47.526129" lon="7.657714">
        <ele>282.240657</ele>
        <time>2021-11-18T22:01:12.326Z</time>
      </trkpt>
      <trkpt lat="47.526058" lon="7.657663">
        <ele>282.337531</ele>
        <time>2021-11-18T22:01:13.772Z</time>
      </trkpt>
      <trkpt lat="47.525992" lon="7.657583">
        <ele>282.460601</ele>
        <time>2021-11-18T22:01:15.343Z</time>
      </trkpt>
      <trkpt lat="47.525949" lon="7.657484">
        <ele>282.575296</ele>
        <time>2021-11-18T22:01:17.003Z</time>
      </trkpt>
      <trkpt lat="47.525879" lon="7.657237">
        <ele>282.836304</ele>
        <time>2021-11-18T22:01:21.009Z</time>
      </trkpt>
      <trkpt lat="47.525864" lon="7.656858">
        <ele>283.206227</ele>
        <time>2021-11-18T22:01:27.128Z</time>
      </trkpt>
      <trkpt lat="47.525910" lon="7.656589">
        <ele>283.476608</ele>
        <time>2021-11-18T22:01:31.874Z</time>
      </trkpt>
      <trkpt lat="47.525936" lon="7.656458">
        <ele>283.609651</ele>
        <time>2021-11-18T22:01:34.283Z</time>
      </trkpt>
      <trkpt lat="47.525829" lon="7.656401">
        <ele>283.773734</ele>
        <time>2021-11-18T22:01:36.932Z</time>
      </trkpt>
      <trkpt lat="47.525670" lon="7.656313">
        <ele>284.018666</ele>
        <time>2021-11-18T22:01:41.251Z</time>
      </trkpt>
      <trkpt lat="47.525472" lon="7.656212">
        <ele>284.320849</ele>
        <time>2021-11-18T22:01:46.155Z</time>
      </trkpt>
      <trkpt lat="47.525397" lon="7.656172">
        <ele>284.435876</ele>
        <time>2021-11-18T22:01:48.281Z</time>
      </trkpt>
      <trkpt lat="47.525220" lon="7.656078">
        <ele>284.707208</ele>
        <time>2021-11-18T22:01:53.022Z</time>
      </trkpt>
      <trkpt lat="47.524818" lon="7.655865">
        <ele>285.787934</ele>
        <time>2021-11-18T22:02:04.139Z</time>
      </trkpt>
      <trkpt lat="47.524761" lon="7.655834">
        <ele>285.958225</ele>
        <time>2021-11-18T22:02:05.836Z</time>
      </trkpt>
      <trkpt lat="47.524698" lon="7.655801">
        <ele>286.145630</ele>
        <time>2021-11-18T22:02:07.779Z</time>
      </trkpt>
      <trkpt lat="47.524663" lon="7.655783">
        <ele>286.249535</ele>
        <time>2021-11-18T22:02:08.763Z</time>
      </trkpt>
      <trkpt lat="47.524616" lon="7.655757">
        <ele>286.390239</ele>
        <time>2021-11-18T22:02:10.168Z</time>
      </trkpt>
      <trkpt lat="47.524631" lon="7.655689">
        <ele>286.525711</ele>
        <time>2021-11-18T22:02:16.367Z</time>
      </trkpt>
      <trkpt lat="47.524398" lon="7.655576">
        <ele>287.213290</ele>
        <time>2021-11-18T22:02:33.422Z</time>
      </trkpt>
      <trkpt lat="47.524348" lon="7.655421">
        <ele>287.538595</ele>
        <time>2021-11-18T22:02:41.453Z</time>
      </trkpt>
      <trkpt lat="47.524421" lon="7.654928">
        <ele>288.494401</ele>
        <time>2021-11-18T22:03:05.164Z</time>
      </trkpt>
      <trkpt lat="47.524495" lon="7.654422">
        <ele>289.474857</ele>
        <time>2021-11-18T22:03:29.452Z</time>
      </trkpt>
      <trkpt lat="47.524564" lon="7.653943">
        <ele>290.187744</ele>
        <time>2021-11-18T22:03:52.432Z</time>
      </trkpt>
      <trkpt lat="47.524516" lon="7.653915">
        <ele>290.273543</ele>
        <time>2021-11-18T22:03:58.830Z</time>
      </trkpt>
      <trkpt lat="47.524555" lon="7.653632">
        <ele>290.597918</ele>
        <time>2021-11-18T22:04:04.040Z</time>
      </trkpt>
      <trkpt lat="47.524557" lon="7.652450">
        <ele>291.925370</ele>
        <time>2021-11-18T22:04:21.298Z</time>
      </trkpt>
      <trkpt lat="47.524523" lon="7.652322">
        <ele>292.079842</ele>
        <time>2021-11-18T22:04:23.288Z</time>
      </trkpt>
      <trkpt lat="47.524484" lon="7.652177">
        <ele>292.255127</ele>
        <time>2021-11-18T22:04:24.939Z</time>
      </trkpt>
      <trkpt lat="47.524402" lon="7.651879">
        <ele>292.616517</ele>
        <time>2021-11-18T22:04:28.591Z</time>
      </trkpt>
      <trkpt lat="47.524245" lon="7.651314">
        <ele>293.198379</ele>
        <time>2021-11-18T22:04:35.431Z</time>
      </trkpt>
      <trkpt lat="47.524034" lon="7.650528">
        <ele>293.921263</ele>
        <time>2021-11-18T22:04:47.011Z</time>
      </trkpt>
      <trkpt lat="47.523968" lon="7.650324">
        <ele>294.114589</ele>
        <time>2021-11-18T22:04:49.706Z</time>
      </trkpt>
      <trkpt lat="47.523851" lon="7.649952">
        <ele>294.465311</ele>
        <time>2021-11-18T22:04:56.150Z</time>
      </trkpt>
      <trkpt lat="47.523799" lon="7.649826">
        <ele>294.591515</ele>
        <time>2021-11-18T22:04:57.938Z</time>
      </trkpt>
      <trkpt lat="47.523763" lon="7.649750">
        <ele>294.670855</ele>
        <time>2021-11-18T22:04:59.745Z</time>
      </trkpt>
      <trkpt lat="47.523318" lon="7.648996">
        <ele>295.558802</ele>
        <time>2021-11-18T22:05:12.841Z</time>
      </trkpt>
      <trkpt lat="47.523157" lon="7.648702">
        <ele>295.909361</ele>
        <time>2021-11-18T22:05:18.522Z</time>
      </trkpt>
      <trkpt lat="47.523005" lon="7.648426">
        <ele>296.239200</ele>
        <time>2021-11-18T22:05:24.125Z</time>
      </trkpt>
      <trkpt lat="47.522716" lon="7.647943">
        <ele>296.836856</ele>
        <time>2021-11-18T22:05:33.531Z</time>
      </trkpt>
      <trkpt lat="47.522552" lon="7.647695">
        <ele>297.158325</ele>
        <time>2021-11-18T22:05:37.716Z</time>
      </trkpt>
      <trkpt lat="47.522504" lon="7.647599">
        <ele>297.268952</ele>
        <time>2021-11-18T22:05:39.553Z</time>
      </trkpt>
      <trkpt lat="47.522477" lon="7.647501">
        <ele>297.366977</ele>
        <time>2021-11-18T22:05:40.797Z</time>
      </trkpt>
      <trkpt lat="47.522444" lon="7.647497">
        <ele>297.412387</ele>
        <time>2021-11-18T22:05:41.514Z</time>
      </trkpt>
      <trkpt lat="47.522408" lon="7.647467">
        <ele>297.469040</ele>
        <time>2021-11-18T22:05:42.128Z</time>
      </trkpt>
      <trkpt lat="47.522194" lon="7.647192">
        <ele>297.654666</ele>
        <time>2021-11-18T22:05:46.816Z</time>
      </trkpt>
      <trkpt lat="47.521923" lon="7.646845">
        <ele>297.744153</ele>
        <time>2021-11-18T22:05:53.191Z</time>
      </trkpt>
      <trkpt lat="47.521902" lon="7.646594">
        <ele>297.786816</ele>
        <time>2021-11-18T22:05:55.533Z</time>
      </trkpt>
      <trkpt lat="47.521879" lon="7.646397">
        <ele>297.820538</ele>
        <time>2021-11-18T22:05:59.203Z</time>
      </trkpt>
      <trkpt lat="47.521817" lon="7.645962">
        <ele>297.895530</ele>
        <time>2021-11-18T22:06:03.380Z</time>
      </trkpt>
      <trkpt lat="47.521825" lon="7.645908">
        <ele>297.904856</ele>
        <time>2021-11-18T22:06:04.544Z</time>
      </trkpt>
      <trkpt lat="47.521909" lon="7.645686">
        <ele>297.947780</ele>
        <time>2021-11-18T22:06:06.913Z</time>
      </trkpt>
      <trkpt lat="47.521991" lon="7.645472">
        <ele>297.989283</ele>
        <time>2021-11-18T22:06:09.065Z</time>
      </trkpt>
      <trkpt lat="47.522133" lon="7.645245">
        <ele>298.041477</ele>
        <time>2021-11-18T22:06:11.782Z</time>
      </trkpt>
      <trkpt lat="47.522203" lon="7.645103">
        <ele>298.056707</ele>
        <time>2021-11-18T22:06:13.150Z</time>
      </trkpt>
      <trkpt lat="47.522112" lon="7.645020">
        <ele>298.052339</ele>
        <time>2021-11-18T22:06:15.260Z</time>
      </trkpt>
      <trkpt lat="47.521941" lon="7.644834">
        <ele>298.043667</ele>
        <time>2021-11-18T22:06:17.559Z</time>
      </trkpt>
      <trkpt lat="47.521870" lon="7.644697">
        <ele>298.038900</ele>
        <time>2021-11-18T22:06:19.898Z</time>
      </trkpt>
      <trkpt lat="47.521896" lon="7.644663">
        <ele>298.037483</ele>
        <time>2021-11-18T22:06:20.303Z</time>
      </trkpt>
      <trkpt lat="47.521979" lon="7.644414">
        <ele>298.029818</ele>
        <time>2021-11-18T22:06:22.539Z</time>
      </trkpt>
      <trkpt lat="47.522007" lon="7.644293">
        <ele>298.026288</ele>
        <time>2021-11-18T22:06:24.032Z</time>
      </trkpt>
      <trkpt lat="47.522032" lon="7.644163">
        <ele>298.022557</ele>
        <time>2021-11-18T22:06:25.884Z</time>
      </trkpt>
      <trkpt lat="47.522072" lon="7.643901">
        <ele>298.015143</ele>
        <time>2021-11-18T22:06:28.339Z</time>
      </trkpt>
      <trkpt lat="47.522081" lon="7.643783">
        <ele>298.011866</ele>
        <time>2021-11-18T22:06:29.892Z</time>
      </trkpt>
      <trkpt lat="47.522081" lon="7.643755">
        <ele>298.011093</ele>
        <time>2021-11-18T22:06:30.453Z</time>
      </trkpt>
      <trkpt lat="47.522082" lon="7.643656">
        <ele>298.008360</ele>
        <time>2021-11-18T22:06:31.915Z</time>
      </trkpt>
      <trkpt lat="47.522082" lon="7.643568">
        <ele>298.005931</ele>
        <time>2021-11-18T22:06:32.737Z</time>
      </trkpt>
      <trkpt lat="47.522055" lon="7.642957">
        <ele>297.989031</ele>
        <time>2021-11-18T22:06:40.151Z</time>
      </trkpt>
      <trkpt lat="47.522051" lon="7.642850">
        <ele>297.986073</ele>
        <time>2021-11-18T22:06:41.128Z</time>
      </trkpt>
      <trkpt lat="47.522009" lon="7.642032">
        <ele>297.713151</ele>
        <time>2021-11-18T22:06:48.784Z</time>
      </trkpt>
      <trkpt lat="47.522026" lon="7.641831">
        <ele>297.643345</ele>
        <time>2021-11-18T22:06:50.627Z</time>
      </trkpt>
      <trkpt lat="47.522038" lon="7.641697">
        <ele>297.596763</ele>
        <time>2021-11-18T22:06:51.899Z</time>
      </trkpt>
      <trkpt lat="47.522121" lon="7.641251">
        <ele>297.437342</ele>
        <time>2021-11-18T22:06:55.840Z</time>
      </trkpt>
      <trkpt lat="47.522213" lon="7.640855">
        <ele>297.293029</ele>
        <time>2021-11-18T22:06:59.590Z</time>
      </trkpt>
      <trkpt lat="47.522447" lon="7.639953">
        <ele>296.578447</ele>
        <time>2021-11-18T22:07:07.641Z</time>
      </trkpt>
      <trkpt lat="47.522550" lon="7.639700">
        <ele>296.114722</ele>
        <time>2021-11-18T22:07:10.140Z</time>
      </trkpt>
      <trkpt lat="47.522677" lon="7.639473">
        <ele>295.651997</ele>
        <time>2021-11-18T22:07:12.247Z</time>
      </trkpt>
      <trkpt lat="47.522788" lon="7.639280">
        <ele>295.254060</ele>
        <time>2021-11-18T22:07:14.155Z</time>
      </trkpt>
      <trkpt lat="47.522996" lon="7.638639">
        <ele>294.137745</ele>
        <time>2021-11-18T22:07:19.089Z</time>
      </trkpt>
      <trkpt lat="47.523089" lon="7.638357">
        <ele>293.645123</ele>
        <time>2021-11-18T22:07:21.337Z</time>
      </trkpt>
      <trkpt lat="47.523154" lon="7.638160">
        <ele>293.300955</ele>
        <time>2021-11-18T22:07:22.773Z</time>
      </trkpt>
      <trkpt lat="47.523801" lon="7.637031">
        <ele>290.679571</ele>
        <time>2021-11-18T22:07:32.939Z</time>
      </trkpt>
      <trkpt lat="47.524249" lon="7.636392">
        <ele>289.008822</ele>
        <time>2021-11-18T22:07:39.319Z</time>
      </trkpt>
      <trkpt lat="47.524748" lon="7.635671">
        <ele>288.042382</ele>
        <time>2021-11-18T22:07:47.263Z</time>
      </trkpt>
      <trkpt lat="47.525218" lon="7.635093">
        <ele>288.019355</ele>
        <time>2021-11-18T22:07:55.257Z</time>
      </trkpt>
      <trkpt lat="47.525496" lon="7.634757">
        <ele>288.005829</ele>
        <time>2021-11-18T22:08:01.079Z</time>
      </trkpt>
      <trkpt lat="47.525562" lon="7.634678">
        <ele>288.002631</ele>
        <time>2021-11-18T22:08:02.579Z</time>
      </trkpt>
      <trkpt lat="47.525828" lon="7.634421">
        <ele>287.990660</ele>
        <time>2021-11-18T22:08:09.011Z</time>
      </trkpt>
      <trkpt lat="47.526076" lon="7.634113">
        <ele>288.690551</ele>
        <time>2021-11-18T22:08:16.160Z</time>
      </trkpt>
      <trkpt lat="47.526449" lon="7.633750">
        <ele>290.001179</ele>
        <time>2021-11-18T22:08:27.289Z</time>
      </trkpt>
      <trkpt lat="47.526697" lon="7.633482">
        <ele>290.902687</ele>
        <time>2021-11-18T22:08:35.950Z</time>
      </trkpt>
      <trkpt lat="47.526830" lon="7.633347">
        <ele>291.376165</ele>
        <time>2021-11-18T22:08:40.519Z</time>
      </trkpt>
      <trkpt lat="47.526975" lon="7.633190">
        <ele>291.903614</ele>
        <time>2021-11-18T22:08:45.468Z</time>
      </trkpt>
      <trkpt lat="47.527279" lon="7.632659">
        <ele>293.283001</ele>
        <time>2021-11-18T22:08:59.633Z</time>
      </trkpt>
      <trkpt lat="47.527458" lon="7.632289">
        <ele>294.125923</ele>
        <time>2021-11-18T22:09:09.075Z</time>
      </trkpt>
      <trkpt lat="47.527665" lon="7.631910">
        <ele>295.028657</ele>
        <time>2021-11-18T22:09:19.250Z</time>
      </trkpt>
      <trkpt lat="47.527861" lon="7.631503">
        <ele>295.954431</ele>
        <time>2021-11-18T22:09:28.867Z</time>
      </trkpt>
      <trkpt lat="47.528027" lon="7.631157">
        <ele>296.740458</ele>
        <time>2021-11-18T22:09:36.709Z</time>
      </trkpt>
      <trkpt lat="47.528076" lon="7.631001">
        <ele>297.059080</ele>
        <time>2021-11-18T22:09:38.147Z</time>
      </trkpt>
      <trkpt lat="47.528264" lon="7.630411">
        <ele>298.234995</ele>
        <time>2021-11-18T22:09:46.737Z</time>
      </trkpt>
      <trkpt lat="47.528284" lon="7.630360">
        <ele>298.290167</ele>
        <time>2021-11-18T22:09:48.102Z</time>
      </trkpt>
      <trkpt lat="47.528516" lon="7.629750">
        <ele>298.945108</ele>
        <time>2021-11-18T22:09:56.713Z</time>
      </trkpt>
      <trkpt lat="47.528686" lon="7.629298">
        <ele>299.429115</ele>
        <time>2021-11-18T22:10:04.079Z</time>
      </trkpt>
      <trkpt lat="47.528711" lon="7.629281">
        <ele>299.467228</ele>
        <time>2021-11-18T22:10:04.757Z</time>
      </trkpt>
      <trkpt lat="47.528732" lon="7.629282">
        <ele>299.496337</ele>
        <time>2021-11-18T22:10:05.200Z</time>
      </trkpt>
      <trkpt lat="47.528775" lon="7.629297">
        <ele>299.557541</ele>
        <time>2021-11-18T22:10:05.642Z</time>
      </trkpt>
      <trkpt lat="47.528956" lon="7.629459">
        <ele>299.850542</ele>
        <time>2021-11-18T22:10:10.564Z</time>
      </trkpt>
      <trkpt lat="47.529013" lon="7.629325">
        <ele>299.998696</ele>
        <time>2021-11-18T22:10:13.140Z</time>
      </trkpt>
      <trkpt lat="47.529126" lon="7.629058">
        <ele>300.293475</ele>
        <time>2021-11-18T22:10:17.546Z</time>
      </trkpt>
      <trkpt lat="47.529242" lon="7.628533">
        <ele>300.798544</ele>
        <time>2021-11-18T22:10:24.640Z</time>
      </trkpt>
      <trkpt lat="47.529256" lon="7.628309">
        <ele>300.987839</ele>
        <time>2021-11-18T22:10:28.009Z</time>
      </trkpt>
      <trkpt lat="47.529243" lon="7.628048">
        <ele>301.208060</ele>
        <time>2021-11-18T22:10:31.637Z</time>
      </trkpt>
      <trkpt lat="47.529188" lon="7.627028">
        <ele>302.069095</ele>
        <time>2021-11-18T22:10:48.022Z</time>
      </trkpt>
      <trkpt lat="47.529178" lon="7.626842">
        <ele>302.226105</ele>
        <time>2021-11-18T22:10:51.250Z</time>
      </trkpt>
      <trkpt lat="47.529108" lon="7.625842">
        <ele>302.428794</ele>
        <time>2021-11-18T22:11:02.516Z</time>
      </trkpt>
      <trkpt lat="47.528999" lon="7.625008">
        <ele>299.776673</ele>
        <time>2021-11-18T22:11:09.226Z</time>
      </trkpt>
      <trkpt lat="47.528967" lon="7.624774">
        <ele>299.031278</ele>
        <time>2021-11-18T22:11:10.757Z</time>
      </trkpt>
      <trkpt lat="47.528899" lon="7.624493">
        <ele>298.099338</ele>
        <time>2021-11-18T22:11:12.621Z</time>
      </trkpt>
      <trkpt lat="47.528856" lon="7.624416">
        <ele>297.787373</ele>
        <time>2021-11-18T22:11:13.225Z</time>
      </trkpt>
      <trkpt lat="47.528828" lon="7.624375">
        <ele>297.605311</ele>
        <time>2021-11-18T22:11:13.555Z</time>
      </trkpt>
      <trkpt lat="47.527839" lon="7.623515">
        <ele>291.389258</ele>
        <time>2021-11-18T22:11:23.708Z</time>
      </trkpt>
      <trkpt lat="47.527668" lon="7.623366">
        <ele>290.110285</ele>
        <time>2021-11-18T22:11:25.464Z</time>
      </trkpt>
      <trkpt lat="47.527585" lon="7.623336">
        <ele>289.559531</ele>
        <time>2021-11-18T22:11:26.197Z</time>
      </trkpt>
      <trkpt lat="47.527349" lon="7.623302">
        <ele>288.031004</ele>
        <time>2021-11-18T22:11:28.321Z</time>
      </trkpt>
      <trkpt lat="47.527294" lon="7.623295">
        <ele>287.675146</ele>
        <time>2021-11-18T22:11:28.818Z</time>
      </trkpt>
      <trkpt lat="47.526978" lon="7.623273">
        <ele>285.635842</ele>
        <time>2021-11-18T22:11:31.701Z</time>
      </trkpt>
      <trkpt lat="47.525187" lon="7.623251">
        <ele>279.274606</ele>
        <time>2021-11-18T22:11:49.700Z</time>
      </trkpt>
      <trkpt lat="47.524983" lon="7.623179">
        <ele>278.707227</ele>
        <time>2021-11-18T22:11:52.505Z</time>
      </trkpt>
      <trkpt lat="47.524857" lon="7.623123">
        <ele>278.351314</ele>
        <time>2021-11-18T22:11:54.149Z</time>
      </trkpt>
      <trkpt lat="47.524607" lon="7.623024">
        <ele>278.616915</ele>
        <time>2021-11-18T22:11:57.646Z</time>
      </trkpt>
      <trkpt lat="47.524384" lon="7.623050">
        <ele>279.164835</ele>
        <time>2021-11-18T22:12:00.632Z</time>
      </trkpt>
      <trkpt lat="47.524283" lon="7.623026">
        <ele>279.415395</ele>
        <time>2021-11-18T22:12:02.067Z</time>
      </trkpt>
      <trkpt lat="47.524147" lon="7.622995">
        <ele>279.752445</ele>
        <time>2021-11-18T22:12:03.883Z</time>
      </trkpt>
      <trkpt lat="47.523991" lon="7.622959">
        <ele>280.139172</ele>
        <time>2021-11-18T22:12:07.940Z</time>
      </trkpt>
      <trkpt lat="47.523145" lon="7.622731">
        <ele>282.245453</ele>
        <time>2021-11-18T22:12:34.930Z</time>
      </trkpt>
      <trkpt lat="47.522782" lon="7.622574">
        <ele>284.190950</ele>
        <time>2021-11-18T22:12:48.755Z</time>
      </trkpt>
      <trkpt lat="47.522665" lon="7.622571">
        <ele>284.958041</ele>
        <time>2021-11-18T22:12:51.381Z</time>
      </trkpt>
      <trkpt lat="47.522585" lon="7.622690">
        <ele>285.701367</ele>
        <time>2021-11-18T22:12:58.498Z</time>
      </trkpt>
      <trkpt lat="47.522503" lon="7.623110">
        <ele>287.636779</ele>
        <time>2021-11-18T22:13:07.471Z</time>
      </trkpt>
      <trkpt lat="47.522482" lon="7.623173">
        <ele>287.947795</ele>
        <time>2021-11-18T22:13:11.807Z</time>
      </trkpt>
      <trkpt lat="47.522347" lon="7.623294">
        <ele>288.982248</ele>
        <time>2021-11-18T22:13:17.351Z</time>
      </trkpt>
      <trkpt lat="47.521784" lon="7.623713">
        <ele>293.112801</ele>
        <time>2021-11-18T22:13:46.845Z</time>
      </trkpt>
      <trkpt lat="47.521370" lon="7.623827">
        <ele>295.470934</ele>
        <time>2021-11-18T22:14:06.515Z</time>
      </trkpt>
      <trkpt lat="47.520946" lon="7.624186">
        <ele>297.824584</ele>
        <time>2021-11-18T22:14:25.147Z</time>
      </trkpt>
      <trkpt lat="47.520872" lon="7.624220">
        <ele>298.197955</ele>
        <time>2021-11-18T22:14:27.894Z</time>
      </trkpt>
      <trkpt lat="47.520815" lon="7.624237">
        <ele>298.478150</ele>
        <time>2021-11-18T22:14:29.581Z</time>
      </trkpt>
      <trkpt lat="47.520733" lon="7.624234">
        <ele>298.873422</ele>
        <time>2021-11-18T22:14:32.356Z</time>
      </trkpt>
      <trkpt lat="47.520376" lon="7.624074">
        <ele>300.670848</ele>
        <time>2021-11-18T22:14:43.575Z</time>
      </trkpt>
      <trkpt lat="47.520189" lon="7.623874">
        <ele>301.782460</ele>
        <time>2021-11-18T22:14:50.141Z</time>
      </trkpt>
      <trkpt lat="47.519373" lon="7.622581">
        <ele>301.789115</ele>
        <time>2021-11-18T22:15:19.773Z</time>
      </trkpt>
      <trkpt lat="47.518610" lon="7.621067">
        <ele>297.885472</ele>
        <time>2021-11-18T22:15:31.619Z</time>
      </trkpt>
      <trkpt lat="47.518522" lon="7.620852">
        <ele>296.751439</ele>
        <time>2021-11-18T22:15:33.334Z</time>
      </trkpt>
      <trkpt lat="47.518498" lon="7.620755">
        <ele>296.285450</ele>
        <time>2021-11-18T22:15:33.912Z</time>
      </trkpt>
      <trkpt lat="47.518254" lon="7.619753">
        <ele>291.480764</ele>
        <time>2021-11-18T22:15:40.287Z</time>
      </trkpt>
      <trkpt lat="47.518224" lon="7.619647">
        <ele>290.962327</ele>
        <time>2021-11-18T22:15:40.935Z</time>
      </trkpt>
      <trkpt lat="47.518095" lon="7.619236">
        <ele>288.917935</ele>
        <time>2021-11-18T22:15:43.770Z</time>
      </trkpt>
      <trkpt lat="47.518048" lon="7.619062">
        <ele>288.470001</ele>
        <time>2021-11-18T22:15:44.892Z</time>
      </trkpt>
      <trkpt lat="47.517971" lon="7.619084">
        <ele>288.310366</ele>
        <time>2021-11-18T22:15:46.182Z</time>
      </trkpt>
      <trkpt lat="47.517896" lon="7.619090">
        <ele>288.157470</ele>
        <time>2021-11-18T22:15:46.927Z</time>
      </trkpt>
      <trkpt lat="47.517673" lon="7.619037">
        <ele>287.697713</ele>
        <time>2021-11-18T22:15:48.910Z</time>
      </trkpt>
      <trkpt lat="47.517607" lon="7.619013">
        <ele>287.559369</ele>
        <time>2021-11-18T22:15:50.329Z</time>
      </trkpt>
      <trkpt lat="47.517519" lon="7.618985">
        <ele>287.376143</ele>
        <time>2021-11-18T22:15:51.456Z</time>
      </trkpt>
      <trkpt lat="47.517425" lon="7.618967">
        <ele>287.183200</ele>
        <time>2021-11-18T22:15:52.290Z</time>
      </trkpt>
      <trkpt lat="47.517339" lon="7.618976">
        <ele>287.007698</ele>
        <time>2021-11-18T22:15:53.161Z</time>
      </trkpt>
      <trkpt lat="47.517243" lon="7.618988">
        <ele>286.811582</ele>
        <time>2021-11-18T22:15:55.362Z</time>
      </trkpt>
      <trkpt lat="47.517018" lon="7.619070">
        <ele>286.339894</ele>
        <time>2021-11-18T22:15:57.613Z</time>
      </trkpt>
      <trkpt lat="47.516562" lon="7.619236">
        <ele>285.384000</ele>
        <time>2021-11-18T22:16:06.819Z</time>
      </trkpt>
      <trkpt lat="47.516384" lon="7.619306">
        <ele>285.009094</ele>
        <time>2021-11-18T22:16:10.806Z</time>
      </trkpt>
      <trkpt lat="47.516297" lon="7.619344">
        <ele>285.267998</ele>
        <time>2021-11-18T22:16:13.435Z</time>
      </trkpt>
      <trkpt lat="47.516164" lon="7.619414">
        <ele>285.785349</ele>
        <time>2021-11-18T22:16:17.403Z</time>
      </trkpt>
      <trkpt lat="47.516078" lon="7.619459">
        <ele>286.119660</ele>
        <time>2021-11-18T22:16:19.563Z</time>
      </trkpt>
      <trkpt lat="47.516005" lon="7.619492">
        <ele>286.399411</ele>
        <time>2021-11-18T22:16:22.030Z</time>
      </trkpt>
      <trkpt lat="47.515378" lon="7.619769">
        <ele>288.797600</ele>
        <time>2021-11-18T22:16:42.146Z</time>
      </trkpt>
      <trkpt lat="47.515045" lon="7.619952">
        <ele>290.099466</ele>
        <time>2021-11-18T22:16:52.936Z</time>
      </trkpt>
      <trkpt lat="47.514972" lon="7.619996">
        <ele>290.388345</ele>
        <time>2021-11-18T22:16:55.507Z</time>
      </trkpt>
      <trkpt lat="47.514570" lon="7.620207">
        <ele>292.072529</ele>
        <time>2021-11-18T22:17:09.028Z</time>
      </trkpt>
      <trkpt lat="47.514417" lon="7.620289">
        <ele>292.860528</ele>
        <time>2021-11-18T22:17:14.466Z</time>
      </trkpt>
      <trkpt lat="47.513993" lon="7.620506">
        <ele>295.033088</ele>
        <time>2021-11-18T22:17:30.086Z</time>
      </trkpt>
      <trkpt lat="47.513927" lon="7.620535">
        <ele>295.366491</ele>
        <time>2021-11-18T22:17:32.412Z</time>
      </trkpt>
      <trkpt lat="47.513861" lon="7.620554">
        <ele>295.692102</ele>
        <time>2021-11-18T22:17:35.435Z</time>
      </trkpt>
      <trkpt lat="47.513848" lon="7.620558">
        <ele>295.756404</ele>
        <time>2021-11-18T22:17:35.932Z</time>
      </trkpt>
      <trkpt lat="47.513713" lon="7.620598">
        <ele>296.423145</ele>
        <time>2021-11-18T22:17:40.433Z</time>
      </trkpt>
      <trkpt lat="47.513499" lon="7.620661">
        <ele>297.479792</ele>
        <time>2021-11-18T22:17:49.303Z</time>
      </trkpt>
      <trkpt lat="47.513422" lon="7.620681">
        <ele>297.858383</ele>
        <time>2021-11-18T22:17:51.858Z</time>
      </trkpt>
      <trkpt lat="47.513328" lon="7.620704">
        <ele>298.319781</ele>
        <time>2021-11-18T22:17:55.306Z</time>
      </trkpt>
      <trkpt lat="47.513204" lon="7.620721">
        <ele>298.922857</ele>
        <time>2021-11-18T22:17:59.633Z</time>
      </trkpt>
      <trkpt lat="47.513126" lon="7.620738">
        <ele>299.304666</ele>
        <time>2021-11-18T22:18:02.888Z</time>
      </trkpt>
      <trkpt lat="47.512974" lon="7.620771">
        <ele>300.048644</ele>
        <time>2021-11-18T22:18:07.481Z</time>
      </trkpt>
      <trkpt lat="47.512586" lon="7.620836">
        <ele>301.274414</ele>
        <time>2021-11-18T22:18:19.228Z</time>
      </trkpt>
      <trkpt lat="47.512484" lon="7.620846">
        <ele>301.570354</ele>
        <time>2021-11-18T22:18:22.314Z</time>
      </trkpt>
      <trkpt lat="47.512183" lon="7.620945">
        <ele>302.463002</ele>
        <time>2021-11-18T22:18:30.792Z</time>
      </trkpt>
      <trkpt lat="47.512137" lon="7.620969">
        <ele>302.604200</ele>
        <time>2021-11-18T22:18:32.346Z</time>
      </trkpt>
      <trkpt lat="47.512084" lon="7.620988">
        <ele>302.762071</ele>
        <time>2021-11-18T22:18:33.986Z</time>
      </trkpt>
      <trkpt lat="47.511978" lon="7.621014">
        <ele>303.073127</ele>
        <time>2021-11-18T22:18:36.507Z</time>
      </trkpt>
      <trkpt lat="47.511960" lon="7.621016">
        <ele>303.125384</ele>
        <time>2021-11-18T22:18:37.061Z</time>
      </trkpt>
      <trkpt lat="47.511800" lon="7.621034">
        <ele>303.589924</ele>
        <time>2021-11-18T22:18:40.945Z</time>
      </trkpt>
      <trkpt lat="47.511656" lon="7.621046">
        <ele>304.007468</ele>
        <time>2021-11-18T22:18:44.609Z</time>
      </trkpt>
      <trkpt lat="47.511541" lon="7.621047">
        <ele>304.340403</ele>
        <time>2021-11-18T22:18:47.085Z</time>
      </trkpt>
      <trkpt lat="47.511365" lon="7.621043">
        <ele>304.849988</ele>
        <time>2021-11-18T22:18:51.098Z</time>
      </trkpt>
      <trkpt lat="47.511298" lon="7.621034">
        <ele>305.044752</ele>
        <time>2021-11-18T22:18:52.481Z</time>
      </trkpt>
      <trkpt lat="47.511233" lon="7.621026">
        <ele>305.233578</ele>
        <time>2021-11-18T22:18:53.980Z</time>
      </trkpt>
      <trkpt lat="47.510934" lon="7.620963">
        <ele>305.757029</ele>
        <time>2021-11-18T22:19:00.323Z</time>
      </trkpt>
      <trkpt lat="47.510811" lon="7.620935">
        <ele>305.911790</ele>
        <time>2021-11-18T22:19:02.836Z</time>
      </trkpt>
      <trkpt lat="47.510466" lon="7.620854">
        <ele>306.346196</ele>
        <time>2021-11-18T22:19:10.072Z</time>
      </trkpt>
      <trkpt lat="47.510340" lon="7.620825">
        <ele>306.504773</ele>
        <time>2021-11-18T22:19:12.450Z</time>
      </trkpt>
      <trkpt lat="47.510287" lon="7.620804">
        <ele>306.573004</ele>
        <time>2021-11-18T22:19:13.480Z</time>
      </trkpt>
      <trkpt lat="47.509878" lon="7.620654">
        <ele>307.097014</ele>
        <time>2021-11-18T22:19:21.382Z</time>
      </trkpt>
      <trkpt lat="47.509508" lon="7.620519">
        <ele>307.570917</ele>
        <time>2021-11-18T22:19:28.794Z</time>
      </trkpt>
      <trkpt lat="47.509079" lon="7.620306">
        <ele>307.770818</ele>
        <time>2021-11-18T22:19:37.263Z</time>
      </trkpt>
      <trkpt lat="47.509013" lon="7.620273">
        <ele>307.779656</ele>
        <time>2021-11-18T22:19:38.504Z</time>
      </trkpt>
      <trkpt lat="47.508663" lon="7.620098">
        <ele>307.826525</ele>
        <time>2021-11-18T22:19:44.872Z</time>
      </trkpt>
      <trkpt lat="47.507966" lon="7.619751">
        <ele>307.919819</ele>
        <time>2021-11-18T22:19:55.789Z</time>
      </trkpt>
      <trkpt lat="47.507606" lon="7.619563">
        <ele>307.891828</ele>
        <time>2021-11-18T22:20:00.424Z</time>
      </trkpt>
      <trkpt lat="47.507380" lon="7.619501">
        <ele>307.707880</ele>
        <time>2021-11-18T22:20:03.270Z</time>
      </trkpt>
      <trkpt lat="47.506979" lon="7.619510">
        <ele>307.386921</ele>
        <time>2021-11-18T22:20:07.929Z</time>
      </trkpt>
      <trkpt lat="47.506634" lon="7.619453">
        <ele>307.109102</ele>
        <time>2021-11-18T22:20:12.110Z</time>
      </trkpt>
      <trkpt lat="47.506542" lon="7.619438">
        <ele>307.035029</ele>
        <time>2021-11-18T22:20:13.121Z</time>
      </trkpt>
      <trkpt lat="47.506328" lon="7.619429">
        <ele>306.863694</ele>
        <time>2021-11-18T22:20:15.893Z</time>
      </trkpt>
      <trkpt lat="47.506241" lon="7.619425">
        <ele>306.794034</ele>
        <time>2021-11-18T22:20:16.858Z</time>
      </trkpt>
      <trkpt lat="47.505968" lon="7.619447">
        <ele>306.575228</ele>
        <time>2021-11-18T22:20:20.943Z</time>
      </trkpt>
      <trkpt lat="47.505759" lon="7.619472">
        <ele>306.713217</ele>
        <time>2021-11-18T22:20:23.765Z</time>
      </trkpt>
      <trkpt lat="47.505257" lon="7.619587">
        <ele>307.427548</ele>
        <time>2021-11-18T22:20:33.105Z</time>
      </trkpt>
      <trkpt lat="47.504951" lon="7.619637">
        <ele>307.860469</ele>
        <time>2021-11-18T22:20:38.922Z</time>
      </trkpt>
      <trkpt lat="47.504399" lon="7.619611">
        <ele>308.637102</ele>
        <time>2021-11-18T22:20:51.451Z</time>
      </trkpt>
      <trkpt lat="47.504266" lon="7.619606">
        <ele>308.824191</ele>
        <time>2021-11-18T22:20:54.797Z</time>
      </trkpt>
      <trkpt lat="47.503777" lon="7.619587">
        <ele>309.877617</ele>
        <time>2021-11-18T22:21:08.329Z</time>
      </trkpt>
      <trkpt lat="47.503702" lon="7.619579">
        <ele>310.066583</ele>
        <time>2021-11-18T22:21:10.133Z</time>
      </trkpt>
      <trkpt lat="47.503407" lon="7.619587">
        <ele>310.808052</ele>
        <time>2021-11-18T22:21:17.698Z</time>
      </trkpt>
      <trkpt lat="47.502869" lon="7.619611">
        <ele>312.160677</ele>
        <time>2021-11-18T22:21:31.127Z</time>
      </trkpt>
      <trkpt lat="47.502748" lon="7.619618">
        <ele>312.464986</ele>
        <time>2021-11-18T22:21:34.432Z</time>
      </trkpt>
      <trkpt lat="47.502423" lon="7.619573">
        <ele>313.285286</ele>
        <time>2021-11-18T22:21:41.981Z</time>
      </trkpt>
      <trkpt lat="47.501858" lon="7.619248">
        <ele>314.964424</ele>
        <time>2021-11-18T22:21:55.509Z</time>
      </trkpt>
      <trkpt lat="47.501815" lon="7.619219">
        <ele>315.098084</ele>
        <time>2021-11-18T22:21:57.052Z</time>
      </trkpt>
      <trkpt lat="47.501728" lon="7.619173">
        <ele>315.359403</ele>
        <time>2021-11-18T22:21:59.449Z</time>
      </trkpt>
      <trkpt lat="47.501642" lon="7.619135">
        <ele>315.613272</ele>
        <time>2021-11-18T22:22:01.619Z</time>
      </trkpt>
      <trkpt lat="47.501258" lon="7.619029">
        <ele>316.718191</ele>
        <time>2021-11-18T22:22:11.685Z</time>
      </trkpt>
      <trkpt lat="47.501024" lon="7.619039">
        <ele>317.380366</ele>
        <time>2021-11-18T22:22:17.634Z</time>
      </trkpt>
      <trkpt lat="47.500324" lon="7.619214">
        <ele>319.689474</ele>
        <time>2021-11-18T22:22:38.635Z</time>
      </trkpt>
      <trkpt lat="47.499712" lon="7.619298">
        <ele>322.141938</ele>
        <time>2021-11-18T22:22:57.900Z</time>
      </trkpt>
      <trkpt lat="47.499629" lon="7.619296">
        <ele>322.473166</ele>
        <time>2021-11-18T22:23:00.413Z</time>
      </trkpt>
      <trkpt lat="47.499588" lon="7.619273">
        <ele>322.648119</ele>
        <time>2021-11-18T22:23:01.747Z</time>
      </trkpt>
      <trkpt lat="47.499552" lon="7.619300">
        <ele>322.809153</ele>
        <time>2021-11-18T22:23:03.803Z</time>
      </trkpt>
      <trkpt lat="47.499482" lon="7.619313">
        <ele>323.090655</ele>
        <time>2021-11-18T22:23:06.198Z</time>
      </trkpt>
      <trkpt lat="47.499079" lon="7.619349">
        <ele>324.701622</ele>
        <time>2021-11-18T22:23:20.758Z</time>
      </trkpt>
      <trkpt lat="47.498887" lon="7.619379">
        <ele>325.471992</ele>
        <time>2021-11-18T22:23:27.549Z</time>
      </trkpt>
      <trkpt lat="47.498443" lon="7.619450">
        <ele>327.113120</ele>
        <time>2021-11-18T22:23:44.288Z</time>
      </trkpt>
      <trkpt lat="47.498018" lon="7.619431">
        <ele>328.641664</ele>
        <time>2021-11-18T22:23:59.442Z</time>
      </trkpt>
      <trkpt lat="47.497861" lon="7.619439">
        <ele>329.206403</ele>
        <time>2021-11-18T22:24:04.980Z</time>
      </trkpt>
      <trkpt lat="47.497749" lon="7.619469">
        <ele>329.615576</ele>
        <time>2021-11-18T22:24:08.848Z</time>
      </trkpt>
      <trkpt lat="47.497635" lon="7.619528">
        <ele>330.049729</ele>
        <time>2021-11-18T22:24:13.008Z</time>
      </trkpt>
      <trkpt lat="47.497529" lon="7.619591">
        <ele>330.460366</ele>
        <time>2021-11-18T22:24:17.201Z</time>
      </trkpt>
      <trkpt lat="47.497427" lon="7.619683">
        <ele>330.889770</ele>
        <time>2021-11-18T22:24:21.275Z</time>
      </trkpt>
      <trkpt lat="47.497282" lon="7.619853">
        <ele>331.554754</ele>
        <time>2021-11-18T22:24:27.581Z</time>
      </trkpt>
      <trkpt lat="47.496981" lon="7.620187">
        <ele>332.589006</ele>
        <time>2021-11-18T22:24:39.644Z</time>
      </trkpt>
      <trkpt lat="47.496874" lon="7.620315">
        <ele>332.825157</ele>
        <time>2021-11-18T22:24:43.649Z</time>
      </trkpt>
      <trkpt lat="47.496715" lon="7.620506">
        <ele>333.176654</ele>
        <time>2021-11-18T22:24:49.582Z</time>
      </trkpt>
      <trkpt lat="47.496519" lon="7.620793">
        <ele>333.649905</ele>
        <time>2021-11-18T22:24:57.071Z</time>
      </trkpt>
      <trkpt lat="47.496439" lon="7.620890">
        <ele>333.827419</ele>
        <time>2021-11-18T22:25:00.112Z</time>
      </trkpt>
      <trkpt lat="47.496331" lon="7.621021">
        <ele>334.067099</ele>
        <time>2021-11-18T22:25:03.694Z</time>
      </trkpt>
      <trkpt lat="47.496219" lon="7.621150">
        <ele>334.310697</ele>
        <time>2021-11-18T22:25:07.368Z</time>
      </trkpt>
      <trkpt lat="47.496143" lon="7.621224">
        <ele>334.466847</ele>
        <time>2021-11-18T22:25:09.719Z</time>
      </trkpt>
      <trkpt lat="47.496025" lon="7.621316">
        <ele>334.695776</ele>
        <time>2021-11-18T22:25:12.975Z</time>
      </trkpt>
      <trkpt lat="47.495914" lon="7.621389">
        <ele>334.904267</ele>
        <time>2021-11-18T22:25:15.883Z</time>
      </trkpt>
      <trkpt lat="47.495847" lon="7.621416">
        <ele>335.023458</ele>
        <time>2021-11-18T22:25:17.510Z</time>
      </trkpt>
      <trkpt lat="47.495742" lon="7.621459">
        <ele>335.210461</ele>
        <time>2021-11-18T22:25:20.072Z</time>
      </trkpt>
      <trkpt lat="47.495602" lon="7.621476">
        <ele>335.400599</ele>
        <time>2021-11-18T22:25:23.265Z</time>
      </trkpt>
      <trkpt lat="47.495433" lon="7.621511">
        <ele>335.467080</ele>
        <time>2021-11-18T22:25:27.218Z</time>
      </trkpt>
      <trkpt lat="47.495126" lon="7.621574">
        <ele>335.587826</ele>
        <time>2021-11-18T22:25:34.118Z</time>
      </trkpt>
      <trkpt lat="47.495010" lon="7.621539">
        <ele>335.633947</ele>
        <time>2021-11-18T22:25:36.618Z</time>
      </trkpt>
      <trkpt lat="47.494852" lon="7.621478">
        <ele>335.697561</ele>
        <time>2021-11-18T22:25:40.149Z</time>
      </trkpt>
      <trkpt lat="47.494819" lon="7.621452">
        <ele>335.712125</ele>
        <time>2021-11-18T22:25:40.822Z</time>
      </trkpt>
      <trkpt lat="47.494692" lon="7.621355">
        <ele>335.767802</ele>
        <time>2021-11-18T22:25:43.756Z</time>
      </trkpt>
      <trkpt lat="47.494315" lon="7.620971">
        <ele>335.946096</ele>
        <time>2021-11-18T22:25:52.868Z</time>
      </trkpt>
      <trkpt lat="47.493993" lon="7.620565">
        <ele>336.155559</ele>
        <time>2021-11-18T22:26:02.140Z</time>
      </trkpt>
      <trkpt lat="47.493781" lon="7.620372">
        <ele>336.429023</ele>
        <time>2021-11-18T22:26:07.864Z</time>
      </trkpt>
      <trkpt lat="47.493732" lon="7.620332">
        <ele>336.490505</ele>
        <time>2021-11-18T22:26:09.163Z</time>
      </trkpt>
      <trkpt lat="47.493497" lon="7.620078">
        <ele>336.810224</ele>
        <time>2021-11-18T22:26:16.232Z</time>
      </trkpt>
      <trkpt lat="47.493391" lon="7.619934">
        <ele>336.968311</ele>
        <time>2021-11-18T22:26:19.911Z</time>
      </trkpt>
      <trkpt lat="47.493340" lon="7.619802">
        <ele>337.081192</ele>
        <time>2021-11-18T22:26:23.073Z</time>
      </trkpt>
      <trkpt lat="47.493329" lon="7.619697">
        <ele>337.160073</ele>
        <time>2021-11-18T22:26:24.706Z</time>
      </trkpt>
      <trkpt lat="47.493331" lon="7.619560">
        <ele>337.261801</ele>
        <time>2021-11-18T22:26:27.010Z</time>
      </trkpt>
      <trkpt lat="47.493334" lon="7.619310">
        <ele>337.447422</ele>
        <time>2021-11-18T22:26:31.595Z</time>
      </trkpt>
      <trkpt lat="47.493309" lon="7.619233">
        <ele>337.510841</ele>
        <time>2021-11-18T22:26:33.344Z</time>
      </trkpt>
      <trkpt lat="47.493201" lon="7.619190">
        <ele>337.633720</ele>
        <time>2021-11-18T22:26:35.996Z</time>
      </trkpt>
      <trkpt lat="47.493020" lon="7.619115">
        <ele>337.840233</ele>
        <time>2021-11-18T22:26:40.860Z</time>
      </trkpt>
      <trkpt lat="47.492973" lon="7.619088">
        <ele>337.895626</ele>
        <time>2021-11-18T22:26:42.520Z</time>
      </trkpt>
      <trkpt lat="47.492915" lon="7.619047">
        <ele>337.966246</ele>
        <time>2021-11-18T22:26:43.746Z</time>
      </trkpt>
      <trkpt lat="47.492606" lon="7.618789">
        <ele>337.823160</ele>
        <time>2021-11-18T22:26:52.524Z</time>
      </trkpt>
      <trkpt lat="47.492349" lon="7.618574">
        <ele>337.558640</ele>
        <time>2021-11-18T22:26:59.867Z</time>
      </trkpt>
      <trkpt lat="47.492276" lon="7.618508">
        <ele>337.481992</ele>
        <time>2021-11-18T22:27:01.285Z</time>
      </trkpt>
      <trkpt lat="47.492198" lon="7.618429">
        <ele>337.397303</ele>
        <time>2021-11-18T22:27:03.022Z</time>
      </trkpt>
      <trkpt lat="47.491682" lon="7.617901">
        <ele>336.835208</ele>
        <time>2021-11-18T22:27:13.657Z</time>
      </trkpt>
      <trkpt lat="47.491641" lon="7.617861">
        <ele>336.791207</ele>
        <time>2021-11-18T22:27:14.332Z</time>
      </trkpt>
      <trkpt lat="47.491373" lon="7.617592">
        <ele>336.501056</ele>
        <time>2021-11-18T22:27:19.231Z</time>
      </trkpt>
      <trkpt lat="47.491155" lon="7.617319">
        <ele>335.776864</ele>
        <time>2021-11-18T22:27:23.533Z</time>
      </trkpt>
      <trkpt lat="47.491145" lon="7.617309">
        <ele>335.741435</ele>
        <time>2021-11-18T22:27:23.692Z</time>
      </trkpt>
      <trkpt lat="47.490849" lon="7.617012">
        <ele>334.691616</ele>
        <time>2021-11-18T22:27:28.726Z</time>
      </trkpt>
      <trkpt lat="47.490495" lon="7.616853">
        <ele>333.605611</ele>
        <time>2021-11-18T22:27:33.999Z</time>
      </trkpt>
      <trkpt lat="47.490420" lon="7.616856">
        <ele>333.385361</ele>
        <time>2021-11-18T22:27:34.993Z</time>
      </trkpt>
      <trkpt lat="47.490341" lon="7.616865">
        <ele>333.152763</ele>
        <time>2021-11-18T22:27:36.304Z</time>
      </trkpt>
      <trkpt lat="47.490259" lon="7.616879">
        <ele>332.910448</ele>
        <time>2021-11-18T22:27:37.553Z</time>
      </trkpt>
      <trkpt lat="47.490202" lon="7.616888">
        <ele>332.742170</ele>
        <time>2021-11-18T22:27:38.337Z</time>
      </trkpt>
      <trkpt lat="47.489959" lon="7.616840">
        <ele>332.022495</ele>
        <time>2021-11-18T22:27:42.009Z</time>
      </trkpt>
      <trkpt lat="47.489774" lon="7.616769">
        <ele>331.461447</ele>
        <time>2021-11-18T22:27:44.930Z</time>
      </trkpt>
      <trkpt lat="47.489696" lon="7.616739">
        <ele>331.224864</ele>
        <time>2021-11-18T22:27:46.057Z</time>
      </trkpt>
      <trkpt lat="47.489609" lon="7.616701">
        <ele>331.251024</ele>
        <time>2021-11-18T22:27:47.705Z</time>
      </trkpt>
      <trkpt lat="47.489472" lon="7.616634">
        <ele>331.411040</ele>
        <time>2021-11-18T22:27:49.978Z</time>
      </trkpt>
      <trkpt lat="47.489367" lon="7.616590">
        <ele>331.532065</ele>
        <time>2021-11-18T22:27:51.685Z</time>
      </trkpt>
      <trkpt lat="47.489033" lon="7.616482">
        <ele>331.911214</ele>
        <time>2021-11-18T22:27:58.356Z</time>
      </trkpt>
      <trkpt lat="47.488943" lon="7.616458">
        <ele>332.012632</ele>
        <time>2021-11-18T22:28:00.038Z</time>
      </trkpt>
      <trkpt lat="47.488573" lon="7.616341">
        <ele>332.432230</ele>
        <time>2021-11-18T22:28:10.355Z</time>
      </trkpt>
      <trkpt lat="47.488450" lon="7.616333">
        <ele>332.568770</ele>
        <time>2021-11-18T22:28:13.096Z</time>
      </trkpt>
      <trkpt lat="47.488365" lon="7.616350">
        <ele>332.663893</ele>
        <time>2021-11-18T22:28:16.636Z</time>
      </trkpt>
      <trkpt lat="47.488112" lon="7.616379">
        <ele>332.945313</ele>
        <time>2021-11-18T22:28:25.088Z</time>
      </trkpt>
      <trkpt lat="47.487648" lon="7.616423">
        <ele>334.454081</ele>
        <time>2021-11-18T22:28:43.124Z</time>
      </trkpt>
      <trkpt lat="47.487342" lon="7.616370">
        <ele>335.944470</ele>
        <time>2021-11-18T22:28:53.903Z</time>
      </trkpt>
      <trkpt lat="47.487154" lon="7.616356">
        <ele>336.855077</ele>
        <time>2021-11-18T22:29:02.420Z</time>
      </trkpt>
      <trkpt lat="47.487109" lon="7.616365">
        <ele>337.074745</ele>
        <time>2021-11-18T22:29:03.756Z</time>
      </trkpt>
      <trkpt lat="47.486975" lon="7.616399">
        <ele>337.732434</ele>
        <time>2021-11-18T22:29:07.894Z</time>
      </trkpt>
      <trkpt lat="47.486903" lon="7.616427">
        <ele>338.092562</ele>
        <time>2021-11-18T22:29:12.146Z</time>
      </trkpt>
      <trkpt lat="47.485613" lon="7.617149">
        <ele>343.947908</ele>
        <time>2021-11-18T22:30:09.678Z</time>
      </trkpt>
      <trkpt lat="47.485391" lon="7.617237">
        <ele>344.746443</ele>
        <time>2021-11-18T22:30:18.993Z</time>
      </trkpt>
      <trkpt lat="47.485220" lon="7.617315">
        <ele>345.368171</ele>
        <time>2021-11-18T22:30:24.844Z</time>
      </trkpt>
      <trkpt lat="47.485039" lon="7.617384">
        <ele>346.017590</ele>
        <time>2021-11-18T22:30:31.941Z</time>
      </trkpt>
      <trkpt lat="47.484935" lon="7.617457">
        <ele>346.417531</ele>
        <time>2021-11-18T22:30:34.542Z</time>
      </trkpt>
      <trkpt lat="47.484516" lon="7.617810">
        <ele>348.092764</ele>
        <time>2021-11-18T22:30:47.007Z</time>
      </trkpt>
      <trkpt lat="47.484375" lon="7.617928">
        <ele>347.812848</ele>
        <time>2021-11-18T22:30:52.430Z</time>
      </trkpt>
      <trkpt lat="47.484330" lon="7.617816">
        <ele>347.641010</ele>
        <time>2021-11-18T22:30:53.622Z</time>
      </trkpt>
      <trkpt lat="47.484000" lon="7.617026">
        <ele>346.416192</ele>
        <time>2021-11-18T22:31:06.641Z</time>
      </trkpt>
      <trkpt lat="47.483995" lon="7.617017">
        <ele>346.400827</ele>
        <time>2021-11-18T22:31:06.741Z</time>
      </trkpt>
      <trkpt lat="47.483936" lon="7.616913">
        <ele>346.221751</ele>
        <time>2021-11-18T22:31:07.984Z</time>
      </trkpt>
      <trkpt lat="47.483825" lon="7.616762">
        <ele>345.927509</ele>
        <time>2021-11-18T22:31:10.457Z</time>
      </trkpt>
      <trkpt lat="47.483743" lon="7.616680">
        <ele>345.734372</ele>
        <time>2021-11-18T22:31:12.773Z</time>
      </trkpt>
      <trkpt lat="47.483702" lon="7.616634">
        <ele>345.633963</ele>
        <time>2021-11-18T22:31:13.383Z</time>
      </trkpt>
      <trkpt lat="47.483580" lon="7.616530">
        <ele>345.359201</ele>
        <time>2021-11-18T22:31:15.350Z</time>
      </trkpt>
      <trkpt lat="47.483420" lon="7.616421">
        <ele>345.015462</ele>
        <time>2021-11-18T22:31:18.535Z</time>
      </trkpt>
      <trkpt lat="47.483187" lon="7.616266">
        <ele>344.418964</ele>
        <time>2021-11-18T22:31:21.842Z</time>
      </trkpt>
      <trkpt lat="47.483051" lon="7.616197">
        <ele>343.829543</ele>
        <time>2021-11-18T22:31:23.676Z</time>
      </trkpt>
      <trkpt lat="47.482693" lon="7.616016">
        <ele>342.278547</ele>
        <time>2021-11-18T22:31:28.764Z</time>
      </trkpt>
      <trkpt lat="47.482219" lon="7.615958">
        <ele>340.328664</ele>
        <time>2021-11-18T22:31:35.463Z</time>
      </trkpt>
      <trkpt lat="47.482054" lon="7.615956">
        <ele>339.652193</ele>
        <time>2021-11-18T22:31:37.729Z</time>
      </trkpt>
      <trkpt lat="47.481902" lon="7.615955">
        <ele>339.029035</ele>
        <time>2021-11-18T22:31:39.924Z</time>
      </trkpt>
      <trkpt lat="47.481510" lon="7.615924">
        <ele>337.419664</ele>
        <time>2021-11-18T22:31:45.470Z</time>
      </trkpt>
      <trkpt lat="47.480700" lon="7.615720">
        <ele>335.857292</ele>
        <time>2021-11-18T22:31:58.251Z</time>
      </trkpt>
      <trkpt lat="47.480647" lon="7.615730">
        <ele>335.762623</ele>
        <time>2021-11-18T22:31:59.027Z</time>
      </trkpt>
      <trkpt lat="47.480591" lon="7.615758">
        <ele>335.657887</ele>
        <time>2021-11-18T22:31:59.841Z</time>
      </trkpt>
      <trkpt lat="47.480519" lon="7.615801">
        <ele>335.520313</ele>
        <time>2021-11-18T22:32:01.015Z</time>
      </trkpt>
      <trkpt lat="47.480436" lon="7.615853">
        <ele>335.360609</ele>
        <time>2021-11-18T22:32:02.920Z</time>
      </trkpt>
      <trkpt lat="47.480333" lon="7.615826">
        <ele>335.175266</ele>
        <time>2021-11-18T22:32:04.975Z</time>
      </trkpt>
      <trkpt lat="47.480308" lon="7.615759">
        <ele>335.083617</ele>
        <time>2021-11-18T22:32:05.859Z</time>
      </trkpt>
      <trkpt lat="47.480242" lon="7.615789">
        <ele>334.961281</ele>
        <time>2021-11-18T22:32:06.504Z</time>
      </trkpt>
      <trkpt lat="47.479834" lon="7.615911">
        <ele>334.223748</ele>
        <time>2021-11-18T22:32:12.226Z</time>
      </trkpt>
      <trkpt lat="47.479445" lon="7.615933">
        <ele>333.722166</ele>
        <time>2021-11-18T22:32:17.658Z</time>
      </trkpt>
      <trkpt lat="47.479444" lon="7.615795">
        <ele>333.617743</ele>
        <time>2021-11-18T22:32:19.748Z</time>
      </trkpt>
      <trkpt lat="47.479412" lon="7.615446">
        <ele>333.351256</ele>
        <time>2021-11-18T22:32:23.810Z</time>
      </trkpt>
      <trkpt lat="47.479247" lon="7.615061">
        <ele>333.006317</ele>
        <time>2021-11-18T22:32:29.155Z</time>
      </trkpt>
      <trkpt lat="47.479181" lon="7.614964">
        <ele>332.902171</ele>
        <time>2021-11-18T22:32:31.078Z</time>
      </trkpt>
      <trkpt lat="47.479127" lon="7.615023">
        <ele>332.827020</ele>
        <time>2021-11-18T22:32:32.539Z</time>
      </trkpt>
      <trkpt lat="47.478847" lon="7.615061">
        <ele>332.512234</ele>
        <time>2021-11-18T22:32:37.184Z</time>
      </trkpt>
      <trkpt lat="47.478555" lon="7.615035">
        <ele>332.184739</ele>
        <time>2021-11-18T22:32:41.992Z</time>
      </trkpt>
      <trkpt lat="47.478502" lon="7.615052">
        <ele>332.124025</ele>
        <time>2021-11-18T22:32:42.842Z</time>
      </trkpt>
      <trkpt lat="47.478472" lon="7.614999">
        <ele>332.071716</ele>
        <time>2021-11-18T22:32:43.487Z</time>
      </trkpt>
      <trkpt lat="47.477951" lon="7.614702">
        <ele>329.965310</ele>
        <time>2021-11-18T22:32:52.194Z</time>
      </trkpt>
      <trkpt lat="47.477916" lon="7.614657">
        <ele>329.781911</ele>
        <time>2021-11-18T22:32:52.798Z</time>
      </trkpt>
      <trkpt lat="47.477846" lon="7.614478">
        <ele>329.229073</ele>
        <time>2021-11-18T22:32:54.796Z</time>
      </trkpt>
      <trkpt lat="47.477717" lon="7.614041">
        <ele>327.954296</ele>
        <time>2021-11-18T22:32:59.200Z</time>
      </trkpt>
      <trkpt lat="47.477699" lon="7.613968">
        <ele>327.746567</ele>
        <time>2021-11-18T22:33:00.012Z</time>
      </trkpt>
      <trkpt lat="47.477644" lon="7.613748">
        <ele>327.119506</ele>
        <time>2021-11-18T22:33:02.217Z</time>
      </trkpt>
      <trkpt lat="47.477432" lon="7.612902">
        <ele>324.560306</ele>
        <time>2021-11-18T22:33:10.428Z</time>
      </trkpt>
      <trkpt lat="47.477412" lon="7.612421">
        <ele>322.368804</ele>
        <time>2021-11-18T22:33:14.682Z</time>
      </trkpt>
      <trkpt lat="47.477420" lon="7.612339">
        <ele>321.992041</ele>
        <time>2021-11-18T22:33:15.531Z</time>
      </trkpt>
      <trkpt lat="47.477437" lon="7.612167">
        <ele>321.201545</ele>
        <time>2021-11-18T22:33:17.005Z</time>
      </trkpt>
      <trkpt lat="47.477433" lon="7.611750">
        <ele>319.305030</ele>
        <time>2021-11-18T22:33:20.666Z</time>
      </trkpt>
      <trkpt lat="47.477367" lon="7.611584">
        <ele>318.429210</ele>
        <time>2021-11-18T22:33:22.361Z</time>
      </trkpt>
      <trkpt lat="47.476944" lon="7.611296">
        <ele>315.296245</ele>
        <time>2021-11-18T22:33:28.254Z</time>
      </trkpt>
      <trkpt lat="47.476626" lon="7.611202">
        <ele>313.114354</ele>
        <time>2021-11-18T22:33:32.374Z</time>
      </trkpt>
      <trkpt lat="47.476625" lon="7.611014">
        <ele>312.326378</ele>
        <time>2021-11-18T22:33:33.983Z</time>
      </trkpt>
      <trkpt lat="47.476854" lon="7.610885">
        <ele>310.876309</ele>
        <time>2021-11-18T22:33:37.047Z</time>
      </trkpt>
      <trkpt lat="47.476930" lon="7.610778">
        <ele>310.255475</ele>
        <time>2021-11-18T22:33:38.399Z</time>
      </trkpt>
      <trkpt lat="47.476939" lon="7.610736">
        <ele>310.079246</ele>
        <time>2021-11-18T22:33:38.739Z</time>
      </trkpt>
      <trkpt lat="47.476935" lon="7.610699">
        <ele>309.929374</ele>
        <time>2021-11-18T22:33:39.035Z</time>
      </trkpt>
      <trkpt lat="47.476868" lon="7.610545">
        <ele>309.196837</ele>
        <time>2021-11-18T22:33:41.091Z</time>
      </trkpt>
      <trkpt lat="47.476801" lon="7.610434">
        <ele>308.601594</ele>
        <time>2021-11-18T22:33:42.350Z</time>
      </trkpt>
      <trkpt lat="47.476778" lon="7.610396">
        <ele>308.397568</ele>
        <time>2021-11-18T22:33:42.789Z</time>
      </trkpt>
      <trkpt lat="47.476607" lon="7.609971">
        <ele>306.419270</ele>
        <time>2021-11-18T22:33:47.173Z</time>
      </trkpt>
      <trkpt lat="47.476586" lon="7.609858">
        <ele>305.950524</ele>
        <time>2021-11-18T22:33:48.200Z</time>
      </trkpt>
      <trkpt lat="47.476580" lon="7.609780">
        <ele>305.636528</ele>
        <time>2021-11-18T22:33:48.827Z</time>
      </trkpt>
      <trkpt lat="47.476568" lon="7.609650">
        <ele>305.111732</ele>
        <time>2021-11-18T22:33:51.512Z</time>
      </trkpt>
      <trkpt lat="47.476542" lon="7.609129">
        <ele>303.022182</ele>
        <time>2021-11-18T22:33:56.247Z</time>
      </trkpt>
      <trkpt lat="47.476563" lon="7.609017">
        <ele>302.557290</ele>
        <time>2021-11-18T22:33:57.230Z</time>
      </trkpt>
      <trkpt lat="47.475998" lon="7.608763">
        <ele>301.780348</ele>
        <time>2021-11-18T22:34:03.276Z</time>
      </trkpt>
      <trkpt lat="47.475691" lon="7.608623">
        <ele>301.541085</ele>
        <time>2021-11-18T22:34:07.431Z</time>
      </trkpt>
      <trkpt lat="47.475533" lon="7.608551">
        <ele>301.417954</ele>
        <time>2021-11-18T22:34:10.014Z</time>
      </trkpt>
      <trkpt lat="47.475185" lon="7.608496">
        <ele>301.157295</ele>
        <time>2021-11-18T22:34:15.820Z</time>
      </trkpt>
      <trkpt lat="47.474780" lon="7.608665">
        <ele>300.843890</ele>
        <time>2021-11-18T22:34:25.334Z</time>
      </trkpt>
      <trkpt lat="47.474713" lon="7.608693">
        <ele>300.884410</ele>
        <time>2021-11-18T22:34:26.858Z</time>
      </trkpt>
      <trkpt lat="47.474675" lon="7.608706">
        <ele>300.922491</ele>
        <time>2021-11-18T22:34:27.678Z</time>
      </trkpt>
      <trkpt lat="47.474589" lon="7.608727">
        <ele>301.007596</ele>
        <time>2021-11-18T22:34:29.708Z</time>
      </trkpt>
      <trkpt lat="47.474483" lon="7.608736">
        <ele>301.111262</ele>
        <time>2021-11-18T22:34:32.043Z</time>
      </trkpt>
      <trkpt lat="47.474351" lon="7.608723">
        <ele>301.240429</ele>
        <time>2021-11-18T22:34:34.649Z</time>
      </trkpt>
      <trkpt lat="47.474326" lon="7.608720">
        <ele>301.264919</ele>
        <time>2021-11-18T22:34:35.161Z</time>
      </trkpt>
      <trkpt lat="47.474303" lon="7.608715">
        <ele>301.287617</ele>
        <time>2021-11-18T22:34:35.655Z</time>
      </trkpt>
      <trkpt lat="47.473987" lon="7.608646">
        <ele>301.599495</ele>
        <time>2021-11-18T22:34:42.238Z</time>
      </trkpt>
      <trkpt lat="47.473800" lon="7.608605">
        <ele>301.784071</ele>
        <time>2021-11-18T22:34:46.250Z</time>
      </trkpt>
      <trkpt lat="47.473504" lon="7.608484">
        <ele>302.083909</ele>
        <time>2021-11-18T22:34:51.796Z</time>
      </trkpt>
      <trkpt lat="47.473495" lon="7.608479">
        <ele>302.093295</ele>
        <time>2021-11-18T22:34:52.257Z</time>
      </trkpt>
      <trkpt lat="47.473360" lon="7.608395">
        <ele>302.236290</ele>
        <time>2021-11-18T22:34:54.638Z</time>
      </trkpt>
      <trkpt lat="47.473270" lon="7.608339">
        <ele>302.331620</ele>
        <time>2021-11-18T22:34:56.078Z</time>
      </trkpt>
      <trkpt lat="47.472986" lon="7.608110">
        <ele>302.511618</ele>
        <time>2021-11-18T22:35:01.178Z</time>
      </trkpt>
      <trkpt lat="47.472745" lon="7.607872">
        <ele>302.146161</ele>
        <time>2021-11-18T22:35:05.317Z</time>
      </trkpt>
      <trkpt lat="47.472581" lon="7.607710">
        <ele>301.897449</ele>
        <time>2021-11-18T22:35:07.744Z</time>
      </trkpt>
      <trkpt lat="47.472416" lon="7.607545">
        <ele>301.646263</ele>
        <time>2021-11-18T22:35:10.325Z</time>
      </trkpt>
      <trkpt lat="47.471898" lon="7.607030">
        <ele>300.859121</ele>
        <time>2021-11-18T22:35:17.121Z</time>
      </trkpt>
      <trkpt lat="47.471584" lon="7.606718">
        <ele>300.382057</ele>
        <time>2021-11-18T22:35:21.246Z</time>
      </trkpt>
      <trkpt lat="47.471542" lon="7.606672">
        <ele>300.317760</ele>
        <time>2021-11-18T22:35:21.847Z</time>
      </trkpt>
      <trkpt lat="47.471218" lon="7.606364">
        <ele>300.055412</ele>
        <time>2021-11-18T22:35:26.169Z</time>
      </trkpt>
      <trkpt lat="47.471126" lon="7.606288">
        <ele>299.983632</ele>
        <time>2021-11-18T22:35:27.323Z</time>
      </trkpt>
      <trkpt lat="47.470931" lon="7.606143">
        <ele>299.834961</ele>
        <time>2021-11-18T22:35:29.850Z</time>
      </trkpt>
      <trkpt lat="47.470700" lon="7.606019">
        <ele>299.667564</ele>
        <time>2021-11-18T22:35:32.733Z</time>
      </trkpt>
      <trkpt lat="47.470508" lon="7.605936">
        <ele>299.531303</ele>
        <time>2021-11-18T22:35:35.681Z</time>
      </trkpt>
      <trkpt lat="47.470011" lon="7.605752">
        <ele>299.182304</ele>
        <time>2021-11-18T22:35:43.511Z</time>
      </trkpt>
      <trkpt lat="47.469880" lon="7.605693">
        <ele>299.105854</ele>
        <time>2021-11-18T22:35:46.221Z</time>
      </trkpt>
      <trkpt lat="47.469347" lon="7.605370">
        <ele>299.939147</ele>
        <time>2021-11-18T22:35:56.924Z</time>
      </trkpt>
      <trkpt lat="47.468884" lon="7.605116">
        <ele>300.653554</ele>
        <time>2021-11-18T22:36:09.113Z</time>
      </trkpt>
      <trkpt lat="47.467885" lon="7.604836">
        <ele>301.612786</ele>
        <time>2021-11-18T22:36:30.887Z</time>
      </trkpt>
      <trkpt lat="47.467586" lon="7.604473">
        <ele>301.503278</ele>
        <time>2021-11-18T22:36:36.140Z</time>
      </trkpt>
      <trkpt lat="47.467474" lon="7.604275">
        <ele>301.453867</ele>
        <time>2021-11-18T22:36:39.339Z</time>
      </trkpt>
      <trkpt lat="47.467476" lon="7.604051">
        <ele>301.410993</ele>
        <time>2021-11-18T22:36:40.884Z</time>
      </trkpt>
      <trkpt lat="47.467436" lon="7.603858">
        <ele>301.372358</ele>
        <time>2021-11-18T22:36:43.088Z</time>
      </trkpt>
      <trkpt lat="47.467290" lon="7.603665">
        <ele>301.316925</ele>
        <time>2021-11-18T22:36:45.228Z</time>
      </trkpt>
      <trkpt lat="47.467093" lon="7.603406">
        <ele>301.242308</ele>
        <time>2021-11-18T22:36:48.746Z</time>
      </trkpt>
      <trkpt lat="47.467077" lon="7.603280">
        <ele>301.217771</ele>
        <time>2021-11-18T22:36:49.588Z</time>
      </trkpt>
      <trkpt lat="47.467095" lon="7.602880">
        <ele>301.188099</ele>
        <time>2021-11-18T22:36:53.581Z</time>
      </trkpt>
      <trkpt lat="47.467099" lon="7.602861">
        <ele>301.188162</ele>
        <time>2021-11-18T22:36:53.713Z</time>
      </trkpt>
      <trkpt lat="47.467110" lon="7.602737">
        <ele>301.188562</ele>
        <time>2021-11-18T22:36:54.537Z</time>
      </trkpt>
      <trkpt lat="47.467144" lon="7.602634">
        <ele>301.188929</ele>
        <time>2021-11-18T22:36:55.477Z</time>
      </trkpt>
      <trkpt lat="47.466982" lon="7.602627">
        <ele>301.189695</ele>
        <time>2021-11-18T22:36:58.537Z</time>
      </trkpt>
      <trkpt lat="47.466102" lon="7.602784">
        <ele>301.193887</ele>
        <time>2021-11-18T22:37:09.439Z</time>
      </trkpt>
      <trkpt lat="47.466036" lon="7.602807">
        <ele>301.194208</ele>
        <time>2021-11-18T22:37:10.672Z</time>
      </trkpt>
      <trkpt lat="47.465922" lon="7.602849">
        <ele>301.194764</ele>
        <time>2021-11-18T22:37:13.097Z</time>
      </trkpt>
      <trkpt lat="47.465329" lon="7.602908">
        <ele>302.335311</ele>
        <time>2021-11-18T22:37:28.672Z</time>
      </trkpt>
      <trkpt lat="47.464779" lon="7.603045">
        <ele>304.060526</ele>
        <time>2021-11-18T22:37:45.562Z</time>
      </trkpt>
      <trkpt lat="47.463633" lon="7.603710">
        <ele>307.160003</ele>
        <time>2021-11-18T22:38:20.138Z</time>
      </trkpt>
      <trkpt lat="47.463302" lon="7.604022">
        <ele>307.598578</ele>
        <time>2021-11-18T22:38:28.677Z</time>
      </trkpt>
      <trkpt lat="47.463115" lon="7.604102">
        <ele>307.816095</ele>
        <time>2021-11-18T22:38:32.655Z</time>
      </trkpt>
      <trkpt lat="47.463046" lon="7.604157">
        <ele>307.903678</ele>
        <time>2021-11-18T22:38:35.659Z</time>
      </trkpt>
      <trkpt lat="47.463045" lon="7.604227">
        <ele>307.956571</ele>
        <time>2021-11-18T22:38:36.072Z</time>
      </trkpt>
      <trkpt lat="47.462987" lon="7.604954">
        <ele>308.509583</ele>
        <time>2021-11-18T22:38:43.585Z</time>
      </trkpt>
      <trkpt lat="47.462918" lon="7.605253">
        <ele>308.748254</ele>
        <time>2021-11-18T22:38:46.520Z</time>
      </trkpt>
      <trkpt lat="47.462063" lon="7.606915">
        <ele>307.898123</ele>
        <time>2021-11-18T22:39:03.225Z</time>
      </trkpt>
      <trkpt lat="47.461735" lon="7.607437">
        <ele>307.859752</ele>
        <time>2021-11-18T22:39:10.488Z</time>
      </trkpt>
      <trkpt lat="47.461161" lon="7.608238">
        <ele>310.083411</ele>
        <time>2021-11-18T22:39:26.768Z</time>
      </trkpt>
      <trkpt lat="47.460744" lon="7.608677">
        <ele>311.525686</ele>
        <time>2021-11-18T22:39:40.735Z</time>
      </trkpt>
      <trkpt lat="47.459989" lon="7.609149">
        <ele>315.161615</ele>
        <time>2021-11-18T22:40:12.194Z</time>
      </trkpt>
      <trkpt lat="47.459570" lon="7.609743">
        <ele>318.729295</ele>
        <time>2021-11-18T22:40:36.434Z</time>
      </trkpt>
      <trkpt lat="47.459450" lon="7.609891">
        <ele>319.689751</ele>
        <time>2021-11-18T22:40:43.719Z</time>
      </trkpt>
      <trkpt lat="47.459284" lon="7.609953">
        <ele>320.742195</ele>
        <time>2021-11-18T22:40:50.649Z</time>
      </trkpt>
      <trkpt lat="47.459046" lon="7.609954">
        <ele>322.205202</ele>
        <time>2021-11-18T22:41:00.817Z</time>
      </trkpt>
      <trkpt lat="47.458787" lon="7.609922">
        <ele>323.788351</ele>
        <time>2021-11-18T22:41:10.827Z</time>
      </trkpt>
      <trkpt lat="47.458580" lon="7.609833">
        <ele>324.542257</ele>
        <time>2021-11-18T22:41:18.749Z</time>
      </trkpt>
      <trkpt lat="47.457834" lon="7.609195">
        <ele>327.556005</ele>
        <time>2021-11-18T22:41:42.747Z</time>
      </trkpt>
      <trkpt lat="47.457651" lon="7.608959">
        <ele>328.405138</ele>
        <time>2021-11-18T22:41:49.807Z</time>
      </trkpt>
      <trkpt lat="47.457427" lon="7.608611">
        <ele>329.541298</ele>
        <time>2021-11-18T22:41:57.602Z</time>
      </trkpt>
      <trkpt lat="47.457134" lon="7.608143">
        <ele>330.507169</ele>
        <time>2021-11-18T22:42:07.735Z</time>
      </trkpt>
      <trkpt lat="47.456842" lon="7.607863">
        <ele>331.057444</ele>
        <time>2021-11-18T22:42:15.608Z</time>
      </trkpt>
      <trkpt lat="47.456732" lon="7.607809">
        <ele>331.240711</ele>
        <time>2021-11-18T22:42:17.065Z</time>
      </trkpt>
      <trkpt lat="47.456552" lon="7.607797">
        <ele>331.525622</ele>
        <time>2021-11-18T22:42:20.990Z</time>
      </trkpt>
      <trkpt lat="47.456503" lon="7.607794">
        <ele>331.603169</ele>
        <time>2021-11-18T22:42:22.616Z</time>
      </trkpt>
      <trkpt lat="47.456329" lon="7.607782">
        <ele>331.878603</ele>
        <time>2021-11-18T22:42:24.964Z</time>
      </trkpt>
      <trkpt lat="47.456106" lon="7.607742">
        <ele>332.233802</ele>
        <time>2021-11-18T22:42:29.174Z</time>
      </trkpt>
      <trkpt lat="47.455583" lon="7.607371">
        <ele>333.063223</ele>
        <time>2021-11-18T22:42:40.999Z</time>
      </trkpt>
      <trkpt lat="47.455059" lon="7.606907">
        <ele>333.686220</ele>
        <time>2021-11-18T22:42:56.629Z</time>
      </trkpt>
      <trkpt lat="47.454329" lon="7.606136">
        <ele>334.601258</ele>
        <time>2021-11-18T22:43:11.091Z</time>
      </trkpt>
      <trkpt lat="47.454235" lon="7.606075">
        <ele>334.705969</ele>
        <time>2021-11-18T22:43:12.222Z</time>
      </trkpt>
      <trkpt lat="47.454203" lon="7.606055">
        <ele>334.738732</ele>
        <time>2021-11-18T22:43:13.418Z</time>
      </trkpt>
      <trkpt lat="47.453777" lon="7.605946">
        <ele>334.787339</ele>
        <time>2021-11-18T22:43:19.668Z</time>
      </trkpt>
      <trkpt lat="47.453414" lon="7.605697">
        <ele>334.832329</ele>
        <time>2021-11-18T22:43:25.939Z</time>
      </trkpt>
      <trkpt lat="47.452982" lon="7.605284">
        <ele>334.890164</ele>
        <time>2021-11-18T22:43:34.138Z</time>
      </trkpt>
      <trkpt lat="47.452829" lon="7.605142">
        <ele>334.910473</ele>
        <time>2021-11-18T22:43:37.435Z</time>
      </trkpt>
      <trkpt lat="47.452757" lon="7.605058">
        <ele>334.920784</ele>
        <time>2021-11-18T22:43:38.856Z</time>
      </trkpt>
      <trkpt lat="47.452698" lon="7.604966">
        <ele>334.930424</ele>
        <time>2021-11-18T22:43:40.106Z</time>
      </trkpt>
      <trkpt lat="47.452229" lon="7.604509">
        <ele>335.438192</ele>
        <time>2021-11-18T22:43:47.362Z</time>
      </trkpt>
      <trkpt lat="47.452207" lon="7.604487">
        <ele>335.466252</ele>
        <time>2021-11-18T22:43:47.767Z</time>
      </trkpt>
      <trkpt lat="47.451859" lon="7.604165">
        <ele>335.899984</ele>
        <time>2021-11-18T22:43:54.372Z</time>
      </trkpt>
      <trkpt lat="47.451845" lon="7.604094">
        <ele>335.952824</ele>
        <time>2021-11-18T22:43:55.440Z</time>
      </trkpt>
      <trkpt lat="47.451820" lon="7.603950">
        <ele>336.059045</ele>
        <time>2021-11-18T22:43:57.443Z</time>
      </trkpt>
      <trkpt lat="47.451760" lon="7.603723">
        <ele>336.233179</ele>
        <time>2021-11-18T22:44:01.083Z</time>
      </trkpt>
      <trkpt lat="47.451655" lon="7.603483">
        <ele>336.437412</ele>
        <time>2021-11-18T22:44:05.710Z</time>
      </trkpt>
      <trkpt lat="47.451508" lon="7.603286">
        <ele>336.647017</ele>
        <time>2021-11-18T22:44:10.227Z</time>
      </trkpt>
      <trkpt lat="47.451475" lon="7.603242">
        <ele>336.693964</ele>
        <time>2021-11-18T22:44:11.336Z</time>
      </trkpt>
      <trkpt lat="47.451241" lon="7.602918">
        <ele>337.465881</ele>
        <time>2021-11-18T22:44:19.151Z</time>
      </trkpt>
      <trkpt lat="47.450579" lon="7.602002">
        <ele>340.589381</ele>
        <time>2021-11-18T22:44:43.833Z</time>
      </trkpt>
      <trkpt lat="47.450175" lon="7.601443">
        <ele>342.495560</ele>
        <time>2021-11-18T22:45:02.297Z</time>
      </trkpt>
      <trkpt lat="47.450109" lon="7.601351">
        <ele>342.808048</ele>
        <time>2021-11-18T22:45:05.152Z</time>
      </trkpt>
      <trkpt lat="47.449979" lon="7.601260">
        <ele>343.226830</ele>
        <time>2021-11-18T22:45:09.862Z</time>
      </trkpt>
      <trkpt lat="47.449931" lon="7.601226">
        <ele>343.357228</ele>
        <time>2021-11-18T22:45:12.148Z</time>
      </trkpt>
      <trkpt lat="47.449601" lon="7.601138">
        <ele>344.178789</ele>
        <time>2021-11-18T22:45:21.968Z</time>
      </trkpt>
      <trkpt lat="47.449308" lon="7.601207">
        <ele>344.905702</ele>
        <time>2021-11-18T22:45:29.441Z</time>
      </trkpt>
      <trkpt lat="47.449149" lon="7.601258">
        <ele>345.304321</ele>
        <time>2021-11-18T22:45:33.584Z</time>
      </trkpt>
      <trkpt lat="47.448903" lon="7.601354">
        <ele>345.927670</ele>
        <time>2021-11-18T22:45:38.432Z</time>
      </trkpt>
      <trkpt lat="47.448630" lon="7.601397">
        <ele>346.600320</ele>
        <time>2021-11-18T22:45:43.738Z</time>
      </trkpt>
      <trkpt lat="47.447441" lon="7.601728">
        <ele>349.610825</ele>
        <time>2021-11-18T22:46:08.857Z</time>
      </trkpt>
      <trkpt lat="47.447122" lon="7.601853">
        <ele>350.436995</ele>
        <time>2021-11-18T22:46:16.979Z</time>
      </trkpt>
      <trkpt lat="47.447095" lon="7.601862">
        <ele>350.506285</ele>
        <time>2021-11-18T22:46:17.262Z</time>
      </trkpt>
      <trkpt lat="47.446881" lon="7.601983">
        <ele>351.079857</ele>
        <time>2021-11-18T22:46:23.490Z</time>
      </trkpt>
      <trkpt lat="47.445613" lon="7.602798">
        <ele>357.033167</ele>
        <time>2021-11-18T22:47:10.244Z</time>
      </trkpt>
      <trkpt lat="47.445122" lon="7.602929">
        <ele>359.482305</ele>
        <time>2021-11-18T22:47:30.662Z</time>
      </trkpt>
      <trkpt lat="47.444552" lon="7.602826">
        <ele>360.828957</ele>
        <time>2021-11-18T22:47:50.759Z</time>
      </trkpt>
      <trkpt lat="47.444487" lon="7.602789">
        <ele>360.840683</ele>
        <time>2021-11-18T22:47:53.058Z</time>
      </trkpt>
      <trkpt lat="47.444367" lon="7.602720">
        <ele>360.862358</ele>
        <time>2021-11-18T22:47:55.685Z</time>
      </trkpt>
      <trkpt lat="47.443657" lon="7.602312">
        <ele>360.990591</ele>
        <time>2021-11-18T22:48:09.210Z</time>
      </trkpt>
      <trkpt lat="47.443602" lon="7.602266">
        <ele>361.001229</ele>
        <time>2021-11-18T22:48:10.927Z</time>
      </trkpt>
      <trkpt lat="47.443459" lon="7.602144">
        <ele>361.029022</ele>
        <time>2021-11-18T22:48:12.619Z</time>
      </trkpt>
      <trkpt lat="47.442304" lon="7.600367">
        <ele>353.649923</ele>
        <time>2021-11-18T22:48:27.757Z</time>
      </trkpt>
      <trkpt lat="47.441787" lon="7.599323">
        <ele>351.490377</ele>
        <time>2021-11-18T22:48:36.247Z</time>
      </trkpt>
      <trkpt lat="47.441639" lon="7.599145">
        <ele>351.569921</ele>
        <time>2021-11-18T22:48:39.174Z</time>
      </trkpt>
      <trkpt lat="47.441602" lon="7.599131">
        <ele>351.585845</ele>
        <time>2021-11-18T22:48:39.496Z</time>
      </trkpt>
      <trkpt lat="47.441602" lon="7.599333">
        <ele>351.642808</ele>
        <time>2021-11-18T22:48:42.023Z</time>
      </trkpt>
      <trkpt lat="47.441600" lon="7.599932">
        <ele>351.811725</ele>
        <time>2021-11-18T22:48:48.992Z</time>
      </trkpt>
      <trkpt lat="47.441592" lon="7.600122">
        <ele>351.865408</ele>
        <time>2021-11-18T22:48:53.176Z</time>
      </trkpt>
      <trkpt lat="47.441518" lon="7.600570">
        <ele>351.995455</ele>
        <time>2021-11-18T22:49:03.053Z</time>
      </trkpt>
      <trkpt lat="47.441352" lon="7.600904">
        <ele>352.689113</ele>
        <time>2021-11-18T22:49:12.734Z</time>
      </trkpt>
      <trkpt lat="47.440883" lon="7.601484">
        <ele>355.522619</ele>
        <time>2021-11-18T22:49:38.555Z</time>
      </trkpt>
      <trkpt lat="47.440657" lon="7.601611">
        <ele>356.643052</ele>
        <time>2021-11-18T22:49:46.623Z</time>
      </trkpt>
      <trkpt lat="47.440622" lon="7.601616">
        <ele>356.806005</ele>
        <time>2021-11-18T22:49:49.410Z</time>
      </trkpt>
      <trkpt lat="47.440531" lon="7.601611">
        <ele>357.228012</ele>
        <time>2021-11-18T22:49:52.044Z</time>
      </trkpt>
      <trkpt lat="47.440244" lon="7.601628">
        <ele>358.559103</ele>
        <time>2021-11-18T22:50:00.385Z</time>
      </trkpt>
      <trkpt lat="47.439425" lon="7.602178">
        <ele>362.070169</ele>
        <time>2021-11-18T22:50:23.250Z</time>
      </trkpt>
      <trkpt lat="47.439289" lon="7.602343">
        <ele>362.656076</ele>
        <time>2021-11-18T22:50:28.475Z</time>
      </trkpt>
      <trkpt lat="47.438853" lon="7.603255">
        <ele>365.171783</ele>
        <time>2021-11-18T22:50:44.021Z</time>
      </trkpt>
      <trkpt lat="47.437782" lon="7.604672">
        <ele>374.824697</ele>
        <time>2021-11-18T22:51:43.181Z</time>
      </trkpt>
      <trkpt lat="47.437714" lon="7.604828">
        <ele>375.811439</ele>
        <time>2021-11-18T22:51:49.453Z</time>
      </trkpt>
      <trkpt lat="47.437464" lon="7.605752">
        <ele>381.318850</ele>
        <time>2021-11-18T22:52:27.555Z</time>
      </trkpt>
      <trkpt lat="47.437345" lon="7.606244">
        <ele>385.126289</ele>
        <time>2021-11-18T22:52:48.117Z</time>
      </trkpt>
      <trkpt lat="47.437301" lon="7.608142">
        <ele>398.964835</ele>
        <time>2021-11-18T22:54:05.181Z</time>
      </trkpt>
      <trkpt lat="47.437255" lon="7.608489">
        <ele>401.420700</ele>
        <time>2021-11-18T22:54:17.739Z</time>
      </trkpt>
      <trkpt lat="47.437065" lon="7.608973">
        <ele>405.199172</ele>
        <time>2021-11-18T22:54:37.001Z</time>
      </trkpt>
      <trkpt lat="47.436627" lon="7.609289">
        <ele>410.064246</ele>
        <time>2021-11-18T22:55:04.671Z</time>
      </trkpt>
      <trkpt lat="47.436519" lon="7.609451">
        <ele>411.600069</ele>
        <time>2021-11-18T22:55:13.234Z</time>
      </trkpt>
      <trkpt lat="47.436425" lon="7.610175">
        <ele>416.577825</ele>
        <time>2021-11-18T22:55:40.699Z</time>
      </trkpt>
      <trkpt lat="47.436450" lon="7.610590">
        <ele>419.351583</ele>
        <time>2021-11-18T22:55:55.688Z</time>
      </trkpt>
      <trkpt lat="47.436519" lon="7.610982">
        <ele>422.016506</ele>
        <time>2021-11-18T22:56:09.870Z</time>
      </trkpt>
      <trkpt lat="47.436540" lon="7.611115">
        <ele>422.915058</ele>
        <time>2021-11-18T22:56:14.647Z</time>
      </trkpt>
      <trkpt lat="47.436509" lon="7.611472">
        <ele>425.283090</ele>
        <time>2021-11-18T22:56:26.609Z</time>
      </trkpt>
      <trkpt lat="47.436296" lon="7.611932">
        <ele>428.950710</ele>
        <time>2021-11-18T22:56:45.576Z</time>
      </trkpt>
      <trkpt lat="47.436238" lon="7.612162">
        <ele>430.565662</ele>
        <time>2021-11-18T22:56:55.833Z</time>
      </trkpt>
      <trkpt lat="47.436346" lon="7.613152">
        <ele>437.316909</ele>
        <time>2021-11-18T22:57:35.940Z</time>
      </trkpt>
      <trkpt lat="47.436183" lon="7.613927">
        <ele>443.108022</ele>
        <time>2021-11-18T22:58:02.795Z</time>
      </trkpt>
      <trkpt lat="47.436123" lon="7.614115">
        <ele>444.591306</ele>
        <time>2021-11-18T22:58:13.029Z</time>
      </trkpt>
      <trkpt lat="47.436102" lon="7.614198">
        <ele>445.223624</ele>
        <time>2021-11-18T22:58:17.771Z</time>
      </trkpt>
      <trkpt lat="47.436071" lon="7.614475">
        <ele>447.227013</ele>
        <time>2021-11-18T22:58:25.417Z</time>
      </trkpt>
      <trkpt lat="47.436069" lon="7.614561">
        <ele>447.841024</ele>
        <time>2021-11-18T22:58:29.430Z</time>
      </trkpt>
      <trkpt lat="47.436067" lon="7.614736">
        <ele>449.089906</ele>
        <time>2021-11-18T22:58:38.755Z</time>
      </trkpt>
      <trkpt lat="47.436034" lon="7.615017">
        <ele>451.124963</ele>
        <time>2021-11-18T22:58:46.526Z</time>
      </trkpt>
      <trkpt lat="47.435908" lon="7.615327">
        <ele>453.705584</ele>
        <time>2021-11-18T22:59:01.582Z</time>
      </trkpt>
      <trkpt lat="47.435602" lon="7.615989">
        <ele>459.258257</ele>
        <time>2021-11-18T22:59:34.282Z</time>
      </trkpt>
      <trkpt lat="47.435559" lon="7.616096">
        <ele>460.117022</ele>
        <time>2021-11-18T22:59:42.417Z</time>
      </trkpt>
      <trkpt lat="47.435233" lon="7.617227">
        <ele>468.599886</ele>
        <time>2021-11-18T23:00:27.770Z</time>
      </trkpt>
      <trkpt lat="47.435099" lon="7.617577">
        <ele>471.374890</ele>
        <time>2021-11-18T23:00:42.734Z</time>
      </trkpt>
      <trkpt lat="47.435060" lon="7.617695">
        <ele>472.281087</ele>
        <time>2021-11-18T23:00:46.132Z</time>
      </trkpt>
      <trkpt lat="47.435022" lon="7.617823">
        <ele>473.028935</ele>
        <time>2021-11-18T23:00:50.343Z</time>
      </trkpt>
      <trkpt lat="47.435002" lon="7.617895">
        <ele>473.365015</ele>
        <time>2021-11-18T23:00:52.517Z</time>
      </trkpt>
      <trkpt lat="47.434973" lon="7.618039">
        <ele>474.013761</ele>
        <time>2021-11-18T23:00:59.055Z</time>
      </trkpt>
      <trkpt lat="47.434926" lon="7.618291">
        <ele>475.142470</ele>
        <time>2021-11-18T23:01:05.898Z</time>
      </trkpt>
      <trkpt lat="47.434907" lon="7.618382">
        <ele>475.553690</ele>
        <time>2021-11-18T23:01:08.493Z</time>
      </trkpt>
      <trkpt lat="47.434861" lon="7.618572">
        <ele>476.425053</ele>
        <time>2021-11-18T23:01:14.726Z</time>
      </trkpt>
      <trkpt lat="47.434717" lon="7.618908">
        <ele>478.142549</ele>
        <time>2021-11-18T23:01:23.998Z</time>
      </trkpt>
      <trkpt lat="47.434301" lon="7.619435">
        <ele>481.639642</ele>
        <time>2021-11-18T23:01:45.848Z</time>
      </trkpt>
      <trkpt lat="47.434044" lon="7.619955">
        <ele>484.409057</ele>
        <time>2021-11-18T23:02:00.899Z</time>
      </trkpt>
      <trkpt lat="47.433983" lon="7.620109">
        <ele>485.147449</ele>
        <time>2021-11-18T23:02:06.601Z</time>
      </trkpt>
      <trkpt lat="47.433938" lon="7.620200">
        <ele>485.613850</ele>
        <time>2021-11-18T23:02:08.935Z</time>
      </trkpt>
      <trkpt lat="47.433902" lon="7.620259">
        <ele>485.942608</ele>
        <time>2021-11-18T23:02:10.166Z</time>
      </trkpt>
      <trkpt lat="47.433866" lon="7.620304">
        <ele>486.230975</ele>
        <time>2021-11-18T23:02:11.574Z</time>
      </trkpt>
      <trkpt lat="47.433827" lon="7.620344">
        <ele>486.521316</ele>
        <time>2021-11-18T23:02:12.538Z</time>
      </trkpt>
      <trkpt lat="47.433769" lon="7.620390">
        <ele>486.923915</ele>
        <time>2021-11-18T23:02:13.826Z</time>
      </trkpt>
      <trkpt lat="47.433715" lon="7.620425">
        <ele>487.284568</ele>
        <time>2021-11-18T23:02:17.656Z</time>
      </trkpt>
      <trkpt lat="47.433532" lon="7.620600">
        <ele>488.617702</ele>
        <time>2021-11-18T23:02:23.844Z</time>
      </trkpt>
      <trkpt lat="47.433468" lon="7.620792">
        <ele>489.503339</ele>
        <time>2021-11-18T23:02:29.890Z</time>
      </trkpt>
      <trkpt lat="47.433408" lon="7.620972">
        <ele>490.333624</ele>
        <time>2021-11-18T23:02:34.039Z</time>
      </trkpt>
      <trkpt lat="47.433401" lon="7.620993">
        <ele>490.430491</ele>
        <time>2021-11-18T23:02:34.906Z</time>
      </trkpt>
      <trkpt lat="47.433329" lon="7.622145">
        <ele>495.272170</ele>
        <time>2021-11-18T23:03:06.257Z</time>
      </trkpt>
      <trkpt lat="47.433029" lon="7.623936">
        <ele>509.102149</ele>
        <time>2021-11-18T23:04:19.362Z</time>
      </trkpt>
      <trkpt lat="47.432861" lon="7.624652">
        <ele>514.782672</ele>
        <time>2021-11-18T23:04:53.484Z</time>
      </trkpt>
      <trkpt lat="47.432643" lon="7.625626">
        <ele>523.896289</ele>
        <time>2021-11-18T23:05:42.072Z</time>
      </trkpt>
      <trkpt lat="47.432480" lon="7.626239">
        <ele>529.784119</ele>
        <time>2021-11-18T23:06:13.534Z</time>
      </trkpt>
      <trkpt lat="47.432318" lon="7.626613">
        <ele>533.754023</ele>
        <time>2021-11-18T23:06:34.442Z</time>
      </trkpt>
      <trkpt lat="47.431765" lon="7.627321">
        <ele>542.511003</ele>
        <time>2021-11-18T23:07:21.293Z</time>
      </trkpt>
      <trkpt lat="47.430809" lon="7.627830">
        <ele>553.265473</ele>
        <time>2021-11-18T23:08:21.951Z</time>
      </trkpt>
      <trkpt lat="47.430607" lon="7.627808">
        <ele>555.409212</ele>
        <time>2021-11-18T23:08:33.019Z</time>
      </trkpt>
      <trkpt lat="47.430440" lon="7.627654">
        <ele>557.492439</ele>
        <time>2021-11-18T23:08:42.544Z</time>
      </trkpt>
      <trkpt lat="47.430375" lon="7.627543">
        <ele>557.995113</ele>
        <time>2021-11-18T23:08:47.939Z</time>
      </trkpt>
      <trkpt lat="47.430235" lon="7.627251">
        <ele>558.423557</ele>
        <time>2021-11-18T23:08:57.942Z</time>
      </trkpt>
      <trkpt lat="47.430150" lon="7.627070">
        <ele>558.687325</ele>
        <time>2021-11-18T23:09:05.034Z</time>
      </trkpt>
      <trkpt lat="47.429945" lon="7.626886">
        <ele>559.111727</ele>
        <time>2021-11-18T23:09:09.944Z</time>
      </trkpt>
      <trkpt lat="47.429718" lon="7.626954">
        <ele>559.521588</ele>
        <time>2021-11-18T23:09:14.220Z</time>
      </trkpt>
      <trkpt lat="47.429694" lon="7.626977">
        <ele>559.572203</ele>
        <time>2021-11-18T23:09:17.258Z</time>
      </trkpt>
      <trkpt lat="47.429650" lon="7.627038">
        <ele>559.678950</ele>
        <time>2021-11-18T23:09:17.849Z</time>
      </trkpt>
      <trkpt lat="47.429598" lon="7.627181">
        <ele>559.873302</ele>
        <time>2021-11-18T23:09:21.798Z</time>
      </trkpt>
      <trkpt lat="47.429603" lon="7.627368">
        <ele>560.097338</ele>
        <time>2021-11-18T23:09:22.930Z</time>
      </trkpt>
      <trkpt lat="47.429833" lon="7.628257">
        <ele>560.397420</ele>
        <time>2021-11-18T23:09:30.564Z</time>
      </trkpt>
      <trkpt lat="47.429835" lon="7.628282">
        <ele>560.277786</ele>
        <time>2021-11-18T23:09:30.708Z</time>
      </trkpt>
      <trkpt lat="47.429834" lon="7.628328">
        <ele>560.059070</ele>
        <time>2021-11-18T23:09:30.963Z</time>
      </trkpt>
      <trkpt lat="47.429783" lon="7.628563">
        <ele>558.886232</ele>
        <time>2021-11-18T23:09:32.736Z</time>
      </trkpt>
      <trkpt lat="47.429592" lon="7.628846">
        <ele>556.986495</ele>
        <time>2021-11-18T23:09:35.120Z</time>
      </trkpt>
      <trkpt lat="47.429500" lon="7.629078">
        <ele>555.708509</ele>
        <time>2021-11-18T23:09:36.867Z</time>
      </trkpt>
      <trkpt lat="47.429454" lon="7.629283">
        <ele>554.682097</ele>
        <time>2021-11-18T23:09:38.084Z</time>
      </trkpt>
      <trkpt lat="47.429449" lon="7.629304">
        <ele>554.576299</ele>
        <time>2021-11-18T23:09:38.209Z</time>
      </trkpt>
      <trkpt lat="47.429415" lon="7.629476">
        <ele>553.724725</ele>
        <time>2021-11-18T23:09:39.387Z</time>
      </trkpt>
      <trkpt lat="47.429395" lon="7.629566">
        <ele>553.274535</ele>
        <time>2021-11-18T23:09:39.982Z</time>
      </trkpt>
      <trkpt lat="47.429336" lon="7.629790">
        <ele>552.132183</ele>
        <time>2021-11-18T23:09:41.342Z</time>
      </trkpt>
      <trkpt lat="47.429180" lon="7.630511">
        <ele>548.534794</ele>
        <time>2021-11-18T23:09:45.871Z</time>
      </trkpt>
      <trkpt lat="47.429101" lon="7.632082">
        <ele>543.240246</ele>
        <time>2021-11-18T23:09:55.695Z</time>
      </trkpt>
      <trkpt lat="47.429179" lon="7.632389">
        <ele>542.144389</ele>
        <time>2021-11-18T23:09:57.935Z</time>
      </trkpt>
      <trkpt lat="47.429442" lon="7.632873">
        <ele>540.069883</ele>
        <time>2021-11-18T23:10:02.220Z</time>
      </trkpt>
      <trkpt lat="47.429721" lon="7.633544">
        <ele>538.799477</ele>
        <time>2021-11-18T23:10:07.729Z</time>
      </trkpt>
      <trkpt lat="47.429793" lon="7.633724">
        <ele>538.551577</ele>
        <time>2021-11-18T23:10:09.231Z</time>
      </trkpt>
      <trkpt lat="47.430452" lon="7.635377">
        <ele>536.418587</ele>
        <time>2021-11-18T23:10:24.264Z</time>
      </trkpt>
      <trkpt lat="47.430558" lon="7.635635">
        <ele>536.486131</ele>
        <time>2021-11-18T23:10:27.356Z</time>
      </trkpt>
      <trkpt lat="47.430721" lon="7.636020">
        <ele>536.587760</ele>
        <time>2021-11-18T23:10:32.042Z</time>
      </trkpt>
      <trkpt lat="47.430902" lon="7.636497">
        <ele>536.710139</ele>
        <time>2021-11-18T23:10:38.036Z</time>
      </trkpt>
      <trkpt lat="47.430985" lon="7.636739">
        <ele>536.770851</ele>
        <time>2021-11-18T23:10:40.773Z</time>
      </trkpt>
      <trkpt lat="47.431083" lon="7.637066">
        <ele>536.850879</ele>
        <time>2021-11-18T23:10:46.061Z</time>
      </trkpt>
      <trkpt lat="47.431325" lon="7.638189">
        <ele>537.083271</ele>
        <time>2021-11-18T23:11:01.139Z</time>
      </trkpt>
      <trkpt lat="47.431434" lon="7.638831">
        <ele>537.193821</ele>
        <time>2021-11-18T23:11:08.991Z</time>
      </trkpt>
      <trkpt lat="47.431445" lon="7.638902">
        <ele>537.205986</ele>
        <time>2021-11-18T23:11:10.764Z</time>
      </trkpt>
      <trkpt lat="47.431759" lon="7.640615">
        <ele>537.266549</ele>
        <time>2021-11-18T23:11:26.570Z</time>
      </trkpt>
      <trkpt lat="47.431904" lon="7.641155">
        <ele>537.023437</ele>
        <time>2021-11-18T23:11:31.729Z</time>
      </trkpt>
      <trkpt lat="47.431932" lon="7.641220">
        <ele>536.991191</ele>
        <time>2021-11-18T23:11:32.219Z</time>
      </trkpt>
      <trkpt lat="47.432271" lon="7.641873">
        <ele>536.646756</ele>
        <time>2021-11-18T23:11:39.504Z</time>
      </trkpt>
      <trkpt lat="47.432454" lon="7.642387">
        <ele>536.403706</ele>
        <time>2021-11-18T23:11:44.639Z</time>
      </trkpt>
      <trkpt lat="47.432676" lon="7.643677">
        <ele>536.442608</ele>
        <time>2021-11-18T23:11:57.379Z</time>
      </trkpt>
      <trkpt lat="47.433179" lon="7.645231">
        <ele>536.663329</ele>
        <time>2021-11-18T23:12:16.850Z</time>
      </trkpt>
      <trkpt lat="47.433441" lon="7.646437">
        <ele>537.041634</ele>
        <time>2021-11-18T23:12:30.987Z</time>
      </trkpt>
      <trkpt lat="47.433991" lon="7.648329">
        <ele>537.580236</ele>
        <time>2021-11-18T23:12:54.340Z</time>
      </trkpt>
      <trkpt lat="47.434313" lon="7.649642">
        <ele>537.874359</ele>
        <time>2021-11-18T23:13:09.032Z</time>
      </trkpt>
      <trkpt lat="47.434393" lon="7.649974">
        <ele>537.948580</ele>
        <time>2021-11-18T23:13:12.764Z</time>
      </trkpt>
      <trkpt lat="47.434521" lon="7.650847">
        <ele>538.255792</ele>
        <time>2021-11-18T23:13:22.370Z</time>
      </trkpt>
      <trkpt lat="47.434561" lon="7.651598">
        <ele>538.519830</ele>
        <time>2021-11-18T23:13:30.811Z</time>
      </trkpt>
      <trkpt lat="47.434554" lon="7.651838">
        <ele>538.604028</ele>
        <time>2021-11-18T23:13:33.509Z</time>
      </trkpt>
      <trkpt lat="47.434545" lon="7.651951">
        <ele>538.643908</ele>
        <time>2021-11-18T23:13:34.889Z</time>
      </trkpt>
      <trkpt lat="47.434522" lon="7.652176">
        <ele>538.723665</ele>
        <time>2021-11-18T23:13:37.389Z</time>
      </trkpt>
      <trkpt lat="47.434475" lon="7.652704">
        <ele>538.945982</ele>
        <time>2021-11-18T23:13:43.804Z</time>
      </trkpt>
      <trkpt lat="47.434463" lon="7.652974">
        <ele>539.202514</ele>
        <time>2021-11-18T23:13:47.683Z</time>
      </trkpt>
      <trkpt lat="47.434461" lon="7.653222">
        <ele>539.437652</ele>
        <time>2021-11-18T23:13:50.732Z</time>
      </trkpt>
      <trkpt lat="47.434469" lon="7.653527">
        <ele>539.727032</ele>
        <time>2021-11-18T23:13:55.139Z</time>
      </trkpt>
      <trkpt lat="47.434636" lon="7.654926">
        <ele>541.073879</ele>
        <time>2021-11-18T23:14:14.475Z</time>
      </trkpt>
      <trkpt lat="47.434655" lon="7.655002">
        <ele>541.150696</ele>
        <time>2021-11-18T23:14:16.488Z</time>
      </trkpt>
      <trkpt lat="47.434684" lon="7.655121">
        <ele>541.270614</ele>
        <time>2021-11-18T23:14:18.290Z</time>
      </trkpt>
      <trkpt lat="47.434700" lon="7.655203">
        <ele>541.351526</ele>
        <time>2021-11-18T23:14:19.364Z</time>
      </trkpt>
      <trkpt lat="47.434724" lon="7.655366">
        <ele>541.611308</ele>
        <time>2021-11-18T23:14:21.445Z</time>
      </trkpt>
      <trkpt lat="47.434788" lon="7.655893">
        <ele>542.638279</ele>
        <time>2021-11-18T23:14:29.481Z</time>
      </trkpt>
      <trkpt lat="47.434874" lon="7.656543">
        <ele>543.908632</ele>
        <time>2021-11-18T23:14:41.313Z</time>
      </trkpt>
      <trkpt lat="47.434967" lon="7.656985">
        <ele>544.796473</ele>
        <time>2021-11-18T23:14:49.399Z</time>
      </trkpt>
      <trkpt lat="47.434972" lon="7.657027">
        <ele>544.878268</ele>
        <time>2021-11-18T23:14:50.422Z</time>
      </trkpt>
      <trkpt lat="47.434978" lon="7.657092">
        <ele>545.004096</ele>
        <time>2021-11-18T23:14:51.962Z</time>
      </trkpt>
      <trkpt lat="47.434926" lon="7.658284">
        <ele>547.775280</ele>
        <time>2021-11-18T23:15:14.596Z</time>
      </trkpt>
      <trkpt lat="47.434918" lon="7.658372">
        <ele>548.049793</ele>
        <time>2021-11-18T23:15:16.688Z</time>
      </trkpt>
      <trkpt lat="47.435002" lon="7.658396">
        <ele>548.440827</ele>
        <time>2021-11-18T23:15:20.008Z</time>
      </trkpt>
      <trkpt lat="47.435276" lon="7.658425">
        <ele>549.696374</ele>
        <time>2021-11-18T23:15:28.583Z</time>
      </trkpt>
      <trkpt lat="47.435411" lon="7.658524">
        <ele>550.385146</ele>
        <time>2021-11-18T23:15:33.729Z</time>
      </trkpt>
      <trkpt lat="47.435801" lon="7.659142">
        <ele>552.998174</ele>
        <time>2021-11-18T23:15:53.165Z</time>
      </trkpt>
      <trkpt lat="47.436034" lon="7.659525">
        <ele>554.590712</ele>
        <time>2021-11-18T23:16:05.443Z</time>
      </trkpt>
      <trkpt lat="47.436279" lon="7.659921">
        <ele>557.132075</ele>
        <time>2021-11-18T23:16:19.277Z</time>
      </trkpt>
      <trkpt lat="47.436536" lon="7.660260">
        <ele>559.620872</ele>
        <time>2021-11-18T23:16:31.324Z</time>
      </trkpt>
      <trkpt lat="47.436598" lon="7.660334">
        <ele>560.196659</ele>
        <time>2021-11-18T23:16:34.766Z</time>
      </trkpt>
      <trkpt lat="47.436682" lon="7.660438">
        <ele>560.988373</ele>
        <time>2021-11-18T23:16:38.867Z</time>
      </trkpt>
      <trkpt lat="47.436756" lon="7.660530">
        <ele>561.687032</ele>
        <time>2021-11-18T23:16:42.656Z</time>
      </trkpt>
      <trkpt lat="47.436850" lon="7.660646">
        <ele>562.571802</ele>
        <time>2021-11-18T23:16:49.180Z</time>
      </trkpt>
      <trkpt lat="47.436880" lon="7.660682">
        <ele>562.851004</ele>
        <time>2021-11-18T23:16:52.404Z</time>
      </trkpt>
      <trkpt lat="47.437052" lon="7.660896">
        <ele>564.475421</ele>
        <time>2021-11-18T23:17:01.253Z</time>
      </trkpt>
      <trkpt lat="47.437119" lon="7.660984">
        <ele>565.123021</ele>
        <time>2021-11-18T23:17:06.410Z</time>
      </trkpt>
      <trkpt lat="47.437288" lon="7.661207">
        <ele>566.759866</ele>
        <time>2021-11-18T23:17:17.328Z</time>
      </trkpt>
      <trkpt lat="47.437630" lon="7.661733">
        <ele>571.100187</ele>
        <time>2021-11-18T23:17:43.840Z</time>
      </trkpt>
      <trkpt lat="47.437831" lon="7.662098">
        <ele>574.086328</ele>
        <time>2021-11-18T23:18:00.245Z</time>
      </trkpt>
      <trkpt lat="47.437873" lon="7.662190">
        <ele>574.790520</ele>
        <time>2021-11-18T23:18:08.300Z</time>
      </trkpt>
      <trkpt lat="47.438258" lon="7.662961">
        <ele>580.870641</ele>
        <time>2021-11-18T23:18:38.188Z</time>
      </trkpt>
      <trkpt lat="47.438254" lon="7.663292">
        <ele>582.970957</ele>
        <time>2021-11-18T23:18:51.798Z</time>
      </trkpt>
      <trkpt lat="47.438165" lon="7.663478">
        <ele>584.416438</ele>
        <time>2021-11-18T23:18:57.201Z</time>
      </trkpt>
      <trkpt lat="47.438131" lon="7.663522">
        <ele>584.686771</ele>
        <time>2021-11-18T23:19:02.183Z</time>
      </trkpt>
      <trkpt lat="47.438047" lon="7.663590">
        <ele>585.013142</ele>
        <time>2021-11-18T23:19:04.919Z</time>
      </trkpt>
      <trkpt lat="47.437907" lon="7.663616">
        <ele>585.494004</ele>
        <time>2021-11-18T23:19:08.812Z</time>
      </trkpt>
      <trkpt lat="47.437549" lon="7.663431">
        <ele>586.786429</ele>
        <time>2021-11-18T23:19:24.729Z</time>
      </trkpt>
      <trkpt lat="47.437184" lon="7.663243">
        <ele>588.103656</ele>
        <time>2021-11-18T23:19:35.063Z</time>
      </trkpt>
      <trkpt lat="47.436303" lon="7.662996">
        <ele>590.436418</ele>
        <time>2021-11-18T23:19:51.000Z</time>
      </trkpt>
      <trkpt lat="47.435991" lon="7.662704">
        <ele>589.582014</ele>
        <time>2021-11-18T23:19:54.949Z</time>
      </trkpt>
      <trkpt lat="47.435959" lon="7.662666">
        <ele>589.487044</ele>
        <time>2021-11-18T23:19:55.359Z</time>
      </trkpt>
      <trkpt lat="47.435854" lon="7.662545">
        <ele>589.179004</ele>
        <time>2021-11-18T23:19:56.716Z</time>
      </trkpt>
      <trkpt lat="47.435446" lon="7.662263">
        <ele>588.136891</ele>
        <time>2021-11-18T23:20:01.605Z</time>
      </trkpt>
      <trkpt lat="47.435304" lon="7.662258">
        <ele>587.808237</ele>
        <time>2021-11-18T23:20:02.982Z</time>
      </trkpt>
      <trkpt lat="47.435242" lon="7.662285">
        <ele>587.658686</ele>
        <time>2021-11-18T23:20:03.579Z</time>
      </trkpt>
      <trkpt lat="47.435095" lon="7.662384">
        <ele>587.284926</ele>
        <time>2021-11-18T23:20:05.178Z</time>
      </trkpt>
      <trkpt lat="47.434926" lon="7.662659">
        <ele>586.703411</ele>
        <time>2021-11-18T23:20:07.479Z</time>
      </trkpt>
      <trkpt lat="47.434872" lon="7.662857">
        <ele>586.628305</ele>
        <time>2021-11-18T23:20:09.011Z</time>
      </trkpt>
      <trkpt lat="47.434859" lon="7.663246">
        <ele>586.816779</ele>
        <time>2021-11-18T23:20:11.841Z</time>
      </trkpt>
      <trkpt lat="47.434875" lon="7.663359">
        <ele>586.872647</ele>
        <time>2021-11-18T23:20:13.332Z</time>
      </trkpt>
      <trkpt lat="47.434916" lon="7.663590">
        <ele>586.988217</ele>
        <time>2021-11-18T23:20:16.280Z</time>
      </trkpt>
      <trkpt lat="47.434962" lon="7.663801">
        <ele>587.095496</ele>
        <time>2021-11-18T23:20:20.086Z</time>
      </trkpt>
      <trkpt lat="47.435078" lon="7.664451">
        <ele>587.420805</ele>
        <time>2021-11-18T23:20:29.603Z</time>
      </trkpt>
      <trkpt lat="47.435137" lon="7.664767">
        <ele>587.579441</ele>
        <time>2021-11-18T23:20:35.239Z</time>
      </trkpt>
      <trkpt lat="47.435310" lon="7.665751">
        <ele>588.353764</ele>
        <time>2021-11-18T23:20:52.375Z</time>
      </trkpt>
      <trkpt lat="47.435317" lon="7.665781">
        <ele>588.389051</ele>
        <time>2021-11-18T23:20:53.304Z</time>
      </trkpt>
      <trkpt lat="47.435594" lon="7.667328">
        <ele>590.168443</ele>
        <time>2021-11-18T23:21:21.434Z</time>
      </trkpt>
      <trkpt lat="47.435610" lon="7.668528">
        <ele>589.717750</ele>
        <time>2021-11-18T23:21:31.367Z</time>
      </trkpt>
      <trkpt lat="47.435616" lon="7.668601">
        <ele>589.588707</ele>
        <time>2021-11-18T23:21:31.867Z</time>
      </trkpt>
      <trkpt lat="47.435627" lon="7.668716">
        <ele>589.384896</ele>
        <time>2021-11-18T23:21:32.553Z</time>
      </trkpt>
      <trkpt lat="47.435690" lon="7.669269">
        <ele>588.400818</ele>
        <time>2021-11-18T23:21:36.429Z</time>
      </trkpt>
      <trkpt lat="47.435644" lon="7.669489">
        <ele>587.996736</ele>
        <time>2021-11-18T23:21:38.298Z</time>
      </trkpt>
      <trkpt lat="47.435486" lon="7.669749">
        <ele>587.383401</ele>
        <time>2021-11-18T23:21:40.564Z</time>
      </trkpt>
      <trkpt lat="47.435461" lon="7.669917">
        <ele>587.081542</ele>
        <time>2021-11-18T23:21:41.919Z</time>
      </trkpt>
      <trkpt lat="47.435556" lon="7.670121">
        <ele>586.646925</ele>
        <time>2021-11-18T23:21:43.511Z</time>
      </trkpt>
      <trkpt lat="47.435746" lon="7.670164">
        <ele>586.148271</ele>
        <time>2021-11-18T23:21:45.530Z</time>
      </trkpt>
      <trkpt lat="47.435825" lon="7.670081">
        <ele>585.762788</ele>
        <time>2021-11-18T23:21:46.563Z</time>
      </trkpt>
      <trkpt lat="47.435863" lon="7.669933">
        <ele>585.334565</ele>
        <time>2021-11-18T23:21:47.512Z</time>
      </trkpt>
      <trkpt lat="47.435855" lon="7.669387">
        <ele>583.857250</ele>
        <time>2021-11-18T23:21:51.511Z</time>
      </trkpt>
      <trkpt lat="47.435984" lon="7.668771">
        <ele>582.112896</ele>
        <time>2021-11-18T23:21:56.049Z</time>
      </trkpt>
      <trkpt lat="47.436229" lon="7.668289">
        <ele>580.481953</ele>
        <time>2021-11-18T23:22:00.057Z</time>
      </trkpt>
      <trkpt lat="47.436461" lon="7.668064">
        <ele>579.372337</ele>
        <time>2021-11-18T23:22:02.684Z</time>
      </trkpt>
      <trkpt lat="47.437347" lon="7.667604">
        <ele>571.867527</ele>
        <time>2021-11-18T23:22:11.136Z</time>
      </trkpt>
      <trkpt lat="47.438933" lon="7.667652">
        <ele>557.217764</ele>
        <time>2021-11-18T23:22:24.750Z</time>
      </trkpt>
      <trkpt lat="47.439581" lon="7.667783">
        <ele>550.427463</ele>
        <time>2021-11-18T23:22:30.333Z</time>
      </trkpt>
      <trkpt lat="47.440169" lon="7.668322">
        <ele>543.609721</ele>
        <time>2021-11-18T23:22:36.272Z</time>
      </trkpt>
      <trkpt lat="47.440446" lon="7.668714">
        <ele>540.458721</ele>
        <time>2021-11-18T23:22:39.605Z</time>
      </trkpt>
      <trkpt lat="47.441062" lon="7.669851">
        <ele>532.361667</ele>
        <time>2021-11-18T23:22:48.302Z</time>
      </trkpt>
      <trkpt lat="47.441470" lon="7.671052">
        <ele>528.020293</ele>
        <time>2021-11-18T23:22:56.599Z</time>
      </trkpt>
      <trkpt lat="47.441865" lon="7.671856">
        <ele>525.743024</ele>
        <time>2021-11-18T23:23:03.416Z</time>
      </trkpt>
      <trkpt lat="47.442155" lon="7.672236">
        <ele>524.430078</ele>
        <time>2021-11-18T23:23:08.173Z</time>
      </trkpt>
      <trkpt lat="47.442412" lon="7.672395">
        <ele>524.620259</ele>
        <time>2021-11-18T23:23:12.831Z</time>
      </trkpt>
      <trkpt lat="47.442480" lon="7.672412">
        <ele>524.804062</ele>
        <time>2021-11-18T23:23:13.779Z</time>
      </trkpt>
      <trkpt lat="47.442608" lon="7.672446">
        <ele>525.150664</ele>
        <time>2021-11-18T23:23:16.750Z</time>
      </trkpt>
      <trkpt lat="47.443344" lon="7.672548">
        <ele>527.120817</ele>
        <time>2021-11-18T23:23:39.391Z</time>
      </trkpt>
      <trkpt lat="47.443628" lon="7.672491">
        <ele>527.884663</ele>
        <time>2021-11-18T23:23:48.707Z</time>
      </trkpt>
      <trkpt lat="47.443713" lon="7.672402">
        <ele>528.162250</ele>
        <time>2021-11-18T23:23:51.115Z</time>
      </trkpt>
      <trkpt lat="47.443989" lon="7.671784">
        <ele>529.035711</ele>
        <time>2021-11-18T23:24:04.661Z</time>
      </trkpt>
      <trkpt lat="47.444057" lon="7.671641">
        <ele>529.101218</ele>
        <time>2021-11-18T23:24:10.021Z</time>
      </trkpt>
      <trkpt lat="47.444169" lon="7.671458">
        <ele>529.193705</ele>
        <time>2021-11-18T23:24:12.614Z</time>
      </trkpt>
      <trkpt lat="47.445070" lon="7.669945">
        <ele>529.484467</ele>
        <time>2021-11-18T23:24:34.276Z</time>
      </trkpt>
      <trkpt lat="47.445577" lon="7.669433">
        <ele>525.657743</ele>
        <time>2021-11-18T23:24:40.021Z</time>
      </trkpt>
      <trkpt lat="47.445759" lon="7.669034">
        <ele>523.629072</ele>
        <time>2021-11-18T23:24:42.995Z</time>
      </trkpt>
      <trkpt lat="47.445777" lon="7.668911">
        <ele>523.098602</ele>
        <time>2021-11-18T23:24:43.723Z</time>
      </trkpt>
      <trkpt lat="47.445787" lon="7.668799">
        <ele>522.622403</ele>
        <time>2021-11-18T23:24:44.454Z</time>
      </trkpt>
      <trkpt lat="47.445783" lon="7.668679">
        <ele>522.115964</ele>
        <time>2021-11-18T23:24:45.215Z</time>
      </trkpt>
      <trkpt lat="47.445750" lon="7.668418">
        <ele>520.996734</ele>
        <time>2021-11-18T23:24:46.762Z</time>
      </trkpt>
      <trkpt lat="47.445654" lon="7.667998">
        <ele>519.127963</ele>
        <time>2021-11-18T23:24:49.410Z</time>
      </trkpt>
      <trkpt lat="47.445654" lon="7.667805">
        <ele>518.031409</ele>
        <time>2021-11-18T23:24:50.525Z</time>
      </trkpt>
      <trkpt lat="47.445776" lon="7.667533">
        <ele>515.647133</ele>
        <time>2021-11-18T23:24:52.443Z</time>
      </trkpt>
      <trkpt lat="47.445942" lon="7.667458">
        <ele>513.772203</ele>
        <time>2021-11-18T23:24:53.920Z</time>
      </trkpt>
      <trkpt lat="47.446425" lon="7.667491">
        <ele>508.549380</ele>
        <time>2021-11-18T23:24:58.035Z</time>
      </trkpt>
      <trkpt lat="47.446739" lon="7.667422">
        <ele>505.120375</ele>
        <time>2021-11-18T23:25:00.697Z</time>
      </trkpt>
      <trkpt lat="47.447554" lon="7.666977">
        <ele>496.438188</ele>
        <time>2021-11-18T23:25:08.136Z</time>
      </trkpt>
      <trkpt lat="47.447888" lon="7.666650">
        <ele>492.970608</ele>
        <time>2021-11-18T23:25:11.640Z</time>
      </trkpt>
      <trkpt lat="47.447929" lon="7.666589">
        <ele>492.467132</ele>
        <time>2021-11-18T23:25:12.130Z</time>
      </trkpt>
      <trkpt lat="47.447979" lon="7.666512">
        <ele>491.842208</ele>
        <time>2021-11-18T23:25:12.869Z</time>
      </trkpt>
      <trkpt lat="47.448169" lon="7.665959">
        <ele>488.211047</ele>
        <time>2021-11-18T23:25:16.574Z</time>
      </trkpt>
      <trkpt lat="47.448206" lon="7.665560">
        <ele>485.853418</ele>
        <time>2021-11-18T23:25:18.968Z</time>
      </trkpt>
      <trkpt lat="47.448208" lon="7.665438">
        <ele>485.139013</ele>
        <time>2021-11-18T23:25:19.693Z</time>
      </trkpt>
      <trkpt lat="47.448216" lon="7.665002">
        <ele>482.721258</ele>
        <time>2021-11-18T23:25:22.353Z</time>
      </trkpt>
      <trkpt lat="47.448241" lon="7.664819">
        <ele>481.761054</ele>
        <time>2021-11-18T23:25:23.454Z</time>
      </trkpt>
      <trkpt lat="47.448316" lon="7.664525">
        <ele>480.144970</ele>
        <time>2021-11-18T23:25:25.407Z</time>
      </trkpt>
      <trkpt lat="47.448467" lon="7.664289">
        <ele>478.474022</ele>
        <time>2021-11-18T23:25:27.327Z</time>
      </trkpt>
      <trkpt lat="47.448595" lon="7.664189">
        <ele>477.373036</ele>
        <time>2021-11-18T23:25:28.777Z</time>
      </trkpt>
      <trkpt lat="47.448661" lon="7.664157">
        <ele>476.844795</ele>
        <time>2021-11-18T23:25:29.355Z</time>
      </trkpt>
      <trkpt lat="47.448693" lon="7.664150">
        <ele>476.598777</ele>
        <time>2021-11-18T23:25:29.647Z</time>
      </trkpt>
      <trkpt lat="47.448781" lon="7.664132">
        <ele>475.923139</ele>
        <time>2021-11-18T23:25:30.416Z</time>
      </trkpt>
      <trkpt lat="47.449031" lon="7.664198">
        <ele>473.991755</ele>
        <time>2021-11-18T23:25:32.726Z</time>
      </trkpt>
      <trkpt lat="47.449175" lon="7.664357">
        <ele>472.624977</ele>
        <time>2021-11-18T23:25:34.349Z</time>
      </trkpt>
      <trkpt lat="47.449370" lon="7.664917">
        <ele>469.378617</ele>
        <time>2021-11-18T23:25:38.144Z</time>
      </trkpt>
      <trkpt lat="47.449396" lon="7.665028">
        <ele>468.767956</ele>
        <time>2021-11-18T23:25:38.804Z</time>
      </trkpt>
      <trkpt lat="47.449441" lon="7.665293">
        <ele>467.347601</ele>
        <time>2021-11-18T23:25:40.453Z</time>
      </trkpt>
      <trkpt lat="47.449450" lon="7.665415">
        <ele>466.709629</ele>
        <time>2021-11-18T23:25:41.257Z</time>
      </trkpt>
      <trkpt lat="47.449446" lon="7.665513">
        <ele>466.199255</ele>
        <time>2021-11-18T23:25:41.802Z</time>
      </trkpt>
      <trkpt lat="47.449432" lon="7.665615">
        <ele>465.658203</ele>
        <time>2021-11-18T23:25:42.394Z</time>
      </trkpt>
      <trkpt lat="47.449414" lon="7.665695">
        <ele>465.219913</ele>
        <time>2021-11-18T23:25:42.887Z</time>
      </trkpt>
      <trkpt lat="47.449072" lon="7.666757">
        <ele>459.105125</ele>
        <time>2021-11-18T23:25:49.987Z</time>
      </trkpt>
      <trkpt lat="47.448997" lon="7.667034">
        <ele>457.554016</ele>
        <time>2021-11-18T23:25:51.739Z</time>
      </trkpt>
      <trkpt lat="47.448967" lon="7.667149">
        <ele>456.913251</ele>
        <time>2021-11-18T23:25:52.510Z</time>
      </trkpt>
      <trkpt lat="47.448943" lon="7.667317">
        <ele>456.080497</ele>
        <time>2021-11-18T23:25:53.653Z</time>
      </trkpt>
      <trkpt lat="47.448942" lon="7.667396">
        <ele>455.809910</ele>
        <time>2021-11-18T23:25:54.154Z</time>
      </trkpt>
      <trkpt lat="47.448950" lon="7.667532">
        <ele>455.342413</ele>
        <time>2021-11-18T23:25:54.956Z</time>
      </trkpt>
      <trkpt lat="47.449086" lon="7.668269">
        <ele>452.726243</ele>
        <time>2021-11-18T23:25:59.861Z</time>
      </trkpt>
      <trkpt lat="47.449086" lon="7.668269">
        <ele>452.726243</ele>
        <time>2021-11-18T23:25:59.866Z</time>
      </trkpt>
      <trkpt lat="47.449113" lon="7.668434">
        <ele>452.144886</ele>
        <time>2021-11-18T23:26:00.957Z</time>
      </trkpt>
      <trkpt lat="47.449116" lon="7.668452">
        <ele>452.081400</ele>
        <time>2021-11-18T23:26:01.069Z</time>
      </trkpt>
      <trkpt lat="47.449173" lon="7.668787">
        <ele>450.898424</ele>
        <time>2021-11-18T23:26:03.253Z</time>
      </trkpt>
      <trkpt lat="47.449189" lon="7.668933">
        <ele>450.391919</ele>
        <time>2021-11-18T23:26:04.226Z</time>
      </trkpt>
      <trkpt lat="47.449199" lon="7.669094">
        <ele>449.838248</ele>
        <time>2021-11-18T23:26:05.203Z</time>
      </trkpt>
      <trkpt lat="47.449244" lon="7.669919">
        <ele>447.041788</ele>
        <time>2021-11-18T23:26:10.645Z</time>
      </trkpt>
      <trkpt lat="47.449246" lon="7.669961">
        <ele>446.962898</ele>
        <time>2021-11-18T23:26:10.913Z</time>
      </trkpt>
      <trkpt lat="47.449245" lon="7.670322">
        <ele>446.286497</ele>
        <time>2021-11-18T23:26:13.394Z</time>
      </trkpt>
      <trkpt lat="47.449210" lon="7.670420">
        <ele>446.078842</ele>
        <time>2021-11-18T23:26:14.140Z</time>
      </trkpt>
      <trkpt lat="47.449158" lon="7.670507">
        <ele>445.861286</ele>
        <time>2021-11-18T23:26:14.908Z</time>
      </trkpt>
      <trkpt lat="47.449125" lon="7.670544">
        <ele>445.746543</ele>
        <time>2021-11-18T23:26:15.333Z</time>
      </trkpt>
      <trkpt lat="47.449088" lon="7.670572">
        <ele>445.631382</ele>
        <time>2021-11-18T23:26:15.756Z</time>
      </trkpt>
      <trkpt lat="47.448818" lon="7.670700">
        <ele>444.845786</ele>
        <time>2021-11-18T23:26:18.718Z</time>
      </trkpt>
      <trkpt lat="47.448657" lon="7.670830">
        <ele>444.337532</ele>
        <time>2021-11-18T23:26:20.698Z</time>
      </trkpt>
      <trkpt lat="47.448599" lon="7.670932">
        <ele>444.087831</ele>
        <time>2021-11-18T23:26:21.676Z</time>
      </trkpt>
      <trkpt lat="47.448572" lon="7.671065">
        <ele>443.827643</ele>
        <time>2021-11-18T23:26:22.617Z</time>
      </trkpt>
      <trkpt lat="47.448590" lon="7.671360">
        <ele>443.272657</ele>
        <time>2021-11-18T23:26:24.882Z</time>
      </trkpt>
      <trkpt lat="47.448612" lon="7.671488">
        <ele>443.025199</ele>
        <time>2021-11-18T23:26:25.804Z</time>
      </trkpt>
      <trkpt lat="47.448672" lon="7.671736">
        <ele>442.531680</ele>
        <time>2021-11-18T23:26:27.697Z</time>
      </trkpt>
      <trkpt lat="47.448684" lon="7.671787">
        <ele>442.430502</ele>
        <time>2021-11-18T23:26:28.059Z</time>
      </trkpt>
      <trkpt lat="47.448753" lon="7.672078">
        <ele>441.937572</ele>
        <time>2021-11-18T23:26:30.349Z</time>
      </trkpt>
      <trkpt lat="47.448800" lon="7.672264">
        <ele>441.691107</ele>
        <time>2021-11-18T23:26:31.873Z</time>
      </trkpt>
      <trkpt lat="47.448827" lon="7.672348">
        <ele>441.575663</ele>
        <time>2021-11-18T23:26:32.614Z</time>
      </trkpt>
      <trkpt lat="47.448844" lon="7.672394">
        <ele>441.510595</ele>
        <time>2021-11-18T23:26:33.075Z</time>
      </trkpt>
      <trkpt lat="47.449091" lon="7.672830">
        <ele>440.804602</ele>
        <time>2021-11-18T23:26:37.475Z</time>
      </trkpt>
      <trkpt lat="47.449291" lon="7.673412">
        <ele>439.994273</ele>
        <time>2021-11-18T23:26:42.321Z</time>
      </trkpt>
      <trkpt lat="47.449339" lon="7.673666">
        <ele>439.666918</ele>
        <time>2021-11-18T23:26:44.185Z</time>
      </trkpt>
      <trkpt lat="47.449463" lon="7.674461">
        <ele>438.628703</ele>
        <time>2021-11-18T23:26:50.444Z</time>
      </trkpt>
      <trkpt lat="47.449580" lon="7.674934">
        <ele>437.896112</ele>
        <time>2021-11-18T23:26:54.393Z</time>
      </trkpt>
      <trkpt lat="47.449613" lon="7.675121">
        <ele>437.615000</ele>
        <time>2021-11-18T23:26:55.959Z</time>
      </trkpt>
      <trkpt lat="47.449629" lon="7.675216">
        <ele>437.472595</ele>
        <time>2021-11-18T23:26:56.660Z</time>
      </trkpt>
      <trkpt lat="47.449648" lon="7.675423">
        <ele>437.168740</ele>
        <time>2021-11-18T23:26:58.371Z</time>
      </trkpt>
      <trkpt lat="47.449647" lon="7.675700">
        <ele>436.765821</ele>
        <time>2021-11-18T23:27:00.542Z</time>
      </trkpt>
      <trkpt lat="47.449626" lon="7.675886">
        <ele>436.491528</ele>
        <time>2021-11-18T23:27:01.904Z</time>
      </trkpt>
      <trkpt lat="47.449388" lon="7.677146">
        <ele>434.334294</ele>
        <time>2021-11-18T23:27:11.178Z</time>
      </trkpt>
      <trkpt lat="47.449373" lon="7.677847">
        <ele>432.562681</ele>
        <time>2021-11-18T23:27:15.857Z</time>
      </trkpt>
      <trkpt lat="47.449341" lon="7.678552">
        <ele>430.777843</ele>
        <time>2021-11-18T23:27:20.550Z</time>
      </trkpt>
      <trkpt lat="47.449071" lon="7.681449">
        <ele>423.246446</ele>
        <time>2021-11-18T23:27:39.723Z</time>
      </trkpt>
      <trkpt lat="47.449066" lon="7.681910">
        <ele>422.046950</ele>
        <time>2021-11-18T23:27:42.849Z</time>
      </trkpt>
      <trkpt lat="47.449105" lon="7.682126">
        <ele>421.465318</ele>
        <time>2021-11-18T23:27:44.380Z</time>
      </trkpt>
      <trkpt lat="47.449371" lon="7.682547">
        <ele>420.477753</ele>
        <time>2021-11-18T23:27:48.393Z</time>
      </trkpt>
      <trkpt lat="47.450216" lon="7.683257">
        <ele>418.177147</ele>
        <time>2021-11-18T23:27:58.848Z</time>
      </trkpt>
      <trkpt lat="47.450880" lon="7.683995">
        <ele>416.322446</ele>
        <time>2021-11-18T23:28:08.112Z</time>
      </trkpt>
      <trkpt lat="47.451512" lon="7.684848">
        <ele>414.570149</ele>
        <time>2021-11-18T23:28:17.498Z</time>
      </trkpt>
      <trkpt lat="47.452033" lon="7.685806">
        <ele>412.919955</ele>
        <time>2021-11-18T23:28:26.433Z</time>
      </trkpt>
      <trkpt lat="47.452276" lon="7.686394">
        <ele>412.068135</ele>
        <time>2021-11-18T23:28:31.472Z</time>
      </trkpt>
      <trkpt lat="47.452511" lon="7.687148">
        <ele>411.041881</ele>
        <time>2021-11-18T23:28:37.702Z</time>
      </trkpt>
      <trkpt lat="47.452543" lon="7.687988">
        <ele>410.022750</ele>
        <time>2021-11-18T23:28:44.344Z</time>
      </trkpt>
      <trkpt lat="47.452723" lon="7.688756">
        <ele>409.341538</ele>
        <time>2021-11-18T23:28:50.880Z</time>
      </trkpt>
      <trkpt lat="47.453139" lon="7.689805">
        <ele>408.322361</ele>
        <time>2021-11-18T23:29:00.814Z</time>
      </trkpt>
      <trkpt lat="47.453294" lon="7.690025">
        <ele>408.056091</ele>
        <time>2021-11-18T23:29:03.249Z</time>
      </trkpt>
      <trkpt lat="47.453487" lon="7.690182">
        <ele>407.777592</ele>
        <time>2021-11-18T23:29:06.080Z</time>
      </trkpt>
      <trkpt lat="47.453538" lon="7.690217">
        <ele>407.700856</ele>
        <time>2021-11-18T23:29:06.625Z</time>
      </trkpt>
      <trkpt lat="47.454034" lon="7.690524">
        <ele>406.966998</ele>
        <time>2021-11-18T23:29:13.050Z</time>
      </trkpt>
      <trkpt lat="47.454703" lon="7.691197">
        <ele>405.862705</ele>
        <time>2021-11-18T23:29:22.468Z</time>
      </trkpt>
      <trkpt lat="47.455205" lon="7.691971">
        <ele>404.855488</ele>
        <time>2021-11-18T23:29:30.872Z</time>
      </trkpt>
      <trkpt lat="47.455436" lon="7.692541">
        <ele>404.221219</ele>
        <time>2021-11-18T23:29:36.201Z</time>
      </trkpt>
      <trkpt lat="47.455466" lon="7.692668">
        <ele>404.092820</ele>
        <time>2021-11-18T23:29:37.243Z</time>
      </trkpt>
      <trkpt lat="47.455486" lon="7.692837">
        <ele>403.929067</ele>
        <time>2021-11-18T23:29:38.772Z</time>
      </trkpt>
      <trkpt lat="47.455404" lon="7.696022">
        <ele>400.557566</ele>
        <time>2021-11-18T23:30:03.271Z</time>
      </trkpt>
      <trkpt lat="47.455510" lon="7.697645">
        <ele>399.366084</ele>
        <time>2021-11-18T23:30:15.706Z</time>
      </trkpt>
      <trkpt lat="47.455543" lon="7.697790">
        <ele>399.289440</ele>
        <time>2021-11-18T23:30:16.795Z</time>
      </trkpt>
      <trkpt lat="47.455597" lon="7.697921">
        <ele>399.212581</ele>
        <time>2021-11-18T23:30:18.298Z</time>
      </trkpt>
      <trkpt lat="47.455901" lon="7.698420">
        <ele>398.876102</ele>
        <time>2021-11-18T23:30:24.593Z</time>
      </trkpt>
      <trkpt lat="47.456142" lon="7.698618">
        <ele>398.671847</ele>
        <time>2021-11-18T23:30:28.512Z</time>
      </trkpt>
      <trkpt lat="47.456297" lon="7.698682">
        <ele>398.552617</ele>
        <time>2021-11-18T23:30:31.400Z</time>
      </trkpt>
      <trkpt lat="47.456816" lon="7.698696">
        <ele>398.861337</ele>
        <time>2021-11-18T23:30:40.324Z</time>
      </trkpt>
      <trkpt lat="47.457236" lon="7.698542">
        <ele>399.130765</ele>
        <time>2021-11-18T23:30:49.720Z</time>
      </trkpt>
      <trkpt lat="47.458019" lon="7.697947">
        <ele>399.616838</ele>
        <time>2021-11-18T23:31:05.583Z</time>
      </trkpt>
      <trkpt lat="47.458770" lon="7.697582">
        <ele>397.961331</ele>
        <time>2021-11-18T23:31:15.018Z</time>
      </trkpt>
      <trkpt lat="47.459627" lon="7.697373">
        <ele>396.142341</ele>
        <time>2021-11-18T23:31:23.930Z</time>
      </trkpt>
      <trkpt lat="47.460255" lon="7.697389">
        <ele>393.665057</ele>
        <time>2021-11-18T23:31:30.010Z</time>
      </trkpt>
      <trkpt lat="47.461235" lon="7.697805">
        <ele>389.213247</ele>
        <time>2021-11-18T23:31:39.731Z</time>
      </trkpt>
      <trkpt lat="47.461657" lon="7.698048">
        <ele>387.238275</ele>
        <time>2021-11-18T23:31:44.066Z</time>
      </trkpt>
      <trkpt lat="47.462231" lon="7.698740">
        <ele>384.014345</ele>
        <time>2021-11-18T23:31:51.182Z</time>
      </trkpt>
      <trkpt lat="47.462796" lon="7.699545">
        <ele>380.598959</ele>
        <time>2021-11-18T23:31:58.800Z</time>
      </trkpt>
      <trkpt lat="47.463359" lon="7.700426">
        <ele>377.476913</ele>
        <time>2021-11-18T23:32:06.702Z</time>
      </trkpt>
      <trkpt lat="47.463772" lon="7.701164">
        <ele>375.052363</ele>
        <time>2021-11-18T23:32:13.090Z</time>
      </trkpt>
      <trkpt lat="47.463937" lon="7.701607">
        <ele>373.772362</ele>
        <time>2021-11-18T23:32:16.541Z</time>
      </trkpt>
      <trkpt lat="47.464000" lon="7.701766">
        <ele>373.394914</ele>
        <time>2021-11-18T23:32:17.868Z</time>
      </trkpt>
      <trkpt lat="47.464072" lon="7.701939">
        <ele>373.142640</ele>
        <time>2021-11-18T23:32:19.259Z</time>
      </trkpt>
      <trkpt lat="47.464286" lon="7.702526">
        <ele>372.314479</ele>
        <time>2021-11-18T23:32:24.056Z</time>
      </trkpt>
      <trkpt lat="47.464452" lon="7.702824">
        <ele>371.834990</ele>
        <time>2021-11-18T23:32:26.907Z</time>
      </trkpt>
      <trkpt lat="47.465795" lon="7.703769">
        <ele>369.590928</ele>
        <time>2021-11-18T23:32:44.803Z</time>
      </trkpt>
      <trkpt lat="47.466755" lon="7.704531">
        <ele>368.498798</ele>
        <time>2021-11-18T23:32:58.551Z</time>
      </trkpt>
      <trkpt lat="47.467815" lon="7.705596">
        <ele>366.588396</ele>
        <time>2021-11-18T23:33:13.676Z</time>
      </trkpt>
      <trkpt lat="47.468413" lon="7.706115">
        <ele>365.482972</ele>
        <time>2021-11-18T23:33:21.289Z</time>
      </trkpt>
      <trkpt lat="47.468635" lon="7.706377">
        <ele>364.849741</ele>
        <time>2021-11-18T23:33:24.273Z</time>
      </trkpt>
      <trkpt lat="47.469170" lon="7.707258">
        <ele>363.064695</ele>
        <time>2021-11-18T23:33:32.782Z</time>
      </trkpt>
      <trkpt lat="47.469380" lon="7.707614">
        <ele>362.352530</ele>
        <time>2021-11-18T23:33:36.255Z</time>
      </trkpt>
      <trkpt lat="47.469610" lon="7.708033">
        <ele>361.550778</ele>
        <time>2021-11-18T23:33:40.272Z</time>
      </trkpt>
      <trkpt lat="47.469909" lon="7.708638">
        <ele>360.698607</ele>
        <time>2021-11-18T23:33:45.869Z</time>
      </trkpt>
      <trkpt lat="47.470047" lon="7.709159">
        <ele>360.062343</ele>
        <time>2021-11-18T23:33:50.018Z</time>
      </trkpt>
      <trkpt lat="47.470067" lon="7.709310">
        <ele>359.887382</ele>
        <time>2021-11-18T23:33:51.134Z</time>
      </trkpt>
      <trkpt lat="47.470076" lon="7.709368">
        <ele>359.819717</ele>
        <time>2021-11-18T23:33:51.565Z</time>
      </trkpt>
      <trkpt lat="47.470084" lon="7.709442">
        <ele>359.734506</ele>
        <time>2021-11-18T23:33:52.143Z</time>
      </trkpt>
      <trkpt lat="47.470112" lon="7.709694">
        <ele>359.444122</ele>
        <time>2021-11-18T23:33:54.181Z</time>
      </trkpt>
      <trkpt lat="47.470143" lon="7.709955">
        <ele>359.142804</ele>
        <time>2021-11-18T23:33:56.290Z</time>
      </trkpt>
      <trkpt lat="47.470180" lon="7.710275">
        <ele>358.773661</ele>
        <time>2021-11-18T23:33:58.934Z</time>
      </trkpt>
      <trkpt lat="47.470259" lon="7.710925">
        <ele>358.233689</ele>
        <time>2021-11-18T23:34:04.280Z</time>
      </trkpt>
      <trkpt lat="47.470351" lon="7.711728">
        <ele>357.670231</ele>
        <time>2021-11-18T23:34:10.893Z</time>
      </trkpt>
      <trkpt lat="47.470642" lon="7.713023">
        <ele>356.726117</ele>
        <time>2021-11-18T23:34:22.125Z</time>
      </trkpt>
      <trkpt lat="47.470946" lon="7.713885">
        <ele>356.522673</ele>
        <time>2021-11-18T23:34:31.023Z</time>
      </trkpt>
      <trkpt lat="47.471325" lon="7.714590">
        <ele>356.337735</ele>
        <time>2021-11-18T23:34:39.967Z</time>
      </trkpt>
      <trkpt lat="47.472567" lon="7.716575">
        <ele>355.405134</ele>
        <time>2021-11-18T23:35:05.625Z</time>
      </trkpt>
      <trkpt lat="47.472871" lon="7.716996">
        <ele>355.156923</ele>
        <time>2021-11-18T23:35:10.532Z</time>
      </trkpt>
      <trkpt lat="47.473156" lon="7.717335">
        <ele>354.555901</ele>
        <time>2021-11-18T23:35:14.714Z</time>
      </trkpt>
      <trkpt lat="47.473606" lon="7.717762">
        <ele>353.489773</ele>
        <time>2021-11-18T23:35:20.625Z</time>
      </trkpt>
      <trkpt lat="47.474069" lon="7.718201">
        <ele>352.393094</ele>
        <time>2021-11-18T23:35:26.601Z</time>
      </trkpt>
      <trkpt lat="47.474708" lon="7.719015">
        <ele>350.612325</ele>
        <time>2021-11-18T23:35:35.499Z</time>
      </trkpt>
      <trkpt lat="47.475257" lon="7.720022">
        <ele>348.653311</ele>
        <time>2021-11-18T23:35:45.113Z</time>
      </trkpt>
      <trkpt lat="47.475329" lon="7.720172">
        <ele>348.374732</ele>
        <time>2021-11-18T23:35:46.370Z</time>
      </trkpt>
      <trkpt lat="47.475505" lon="7.720617">
        <ele>347.594029</ele>
        <time>2021-11-18T23:35:50.128Z</time>
      </trkpt>
      <trkpt lat="47.475616" lon="7.720927">
        <ele>347.059783</ele>
        <time>2021-11-18T23:35:52.792Z</time>
      </trkpt>
      <trkpt lat="47.475707" lon="7.721185">
        <ele>346.615956</ele>
        <time>2021-11-18T23:35:54.837Z</time>
      </trkpt>
      <trkpt lat="47.475900" lon="7.721818">
        <ele>345.556896</ele>
        <time>2021-11-18T23:35:59.955Z</time>
      </trkpt>
      <trkpt lat="47.475927" lon="7.721919">
        <ele>345.391253</ele>
        <time>2021-11-18T23:36:00.693Z</time>
      </trkpt>
      <trkpt lat="47.476049" lon="7.722374">
        <ele>344.644731</ele>
        <time>2021-11-18T23:36:04.245Z</time>
      </trkpt>
      <trkpt lat="47.476793" lon="7.725064">
        <ele>340.552653</ele>
        <time>2021-11-18T23:36:25.497Z</time>
      </trkpt>
      <trkpt lat="47.476967" lon="7.725567">
        <ele>339.787742</ele>
        <time>2021-11-18T23:36:29.829Z</time>
      </trkpt>
      <trkpt lat="47.477379" lon="7.726682">
        <ele>338.630784</ele>
        <time>2021-11-18T23:36:39.816Z</time>
      </trkpt>
      <trkpt lat="47.477988" lon="7.728170">
        <ele>337.104792</ele>
        <time>2021-11-18T23:36:53.787Z</time>
      </trkpt>
      <trkpt lat="47.478261" lon="7.728599">
        <ele>336.662531</ele>
        <time>2021-11-18T23:36:58.543Z</time>
      </trkpt>
      <trkpt lat="47.478397" lon="7.728759">
        <ele>336.469575</ele>
        <time>2021-11-18T23:37:00.532Z</time>
      </trkpt>
      <trkpt lat="47.478916" lon="7.729363">
        <ele>335.736288</ele>
        <time>2021-11-18T23:37:08.757Z</time>
      </trkpt>
      <trkpt lat="47.479654" lon="7.730273">
        <ele>334.398033</ele>
        <time>2021-11-18T23:37:20.446Z</time>
      </trkpt>
      <trkpt lat="47.479926" lon="7.730540">
        <ele>333.896816</ele>
        <time>2021-11-18T23:37:24.113Z</time>
      </trkpt>
      <trkpt lat="47.480141" lon="7.730646">
        <ele>333.548834</ele>
        <time>2021-11-18T23:37:26.733Z</time>
      </trkpt>
      <trkpt lat="47.480356" lon="7.730752">
        <ele>333.200853</ele>
        <time>2021-11-18T23:37:29.181Z</time>
      </trkpt>
      <trkpt lat="47.480681" lon="7.730865">
        <ele>332.688216</ele>
        <time>2021-11-18T23:37:32.878Z</time>
      </trkpt>
      <trkpt lat="47.480699" lon="7.730869">
        <ele>332.660266</ele>
        <time>2021-11-18T23:37:33.070Z</time>
      </trkpt>
      <trkpt lat="47.480748" lon="7.730881">
        <ele>332.573907</ele>
        <time>2021-11-18T23:37:33.647Z</time>
      </trkpt>
      <trkpt lat="47.480913" lon="7.730920">
        <ele>332.238231</ele>
        <time>2021-11-18T23:37:35.616Z</time>
      </trkpt>
      <trkpt lat="47.480994" lon="7.730939">
        <ele>332.073476</ele>
        <time>2021-11-18T23:37:36.415Z</time>
      </trkpt>
      <trkpt lat="47.481163" lon="7.730983">
        <ele>331.728751</ele>
        <time>2021-11-18T23:37:38.379Z</time>
      </trkpt>
      <trkpt lat="47.481297" lon="7.731018">
        <ele>331.455393</ele>
        <time>2021-11-18T23:37:40.006Z</time>
      </trkpt>
      <trkpt lat="47.481327" lon="7.731025">
        <ele>331.394380</ele>
        <time>2021-11-18T23:37:40.280Z</time>
      </trkpt>
      <trkpt lat="47.481374" lon="7.731038">
        <ele>331.298325</ele>
        <time>2021-11-18T23:37:40.813Z</time>
      </trkpt>
      <trkpt lat="47.481437" lon="7.731054">
        <ele>331.169912</ele>
        <time>2021-11-18T23:37:41.518Z</time>
      </trkpt>
      <trkpt lat="47.481953" lon="7.731203">
        <ele>330.113750</ele>
        <time>2021-11-18T23:37:47.101Z</time>
      </trkpt>
      <trkpt lat="47.482293" lon="7.731321">
        <ele>329.412177</ele>
        <time>2021-11-18T23:37:50.838Z</time>
      </trkpt>
      <trkpt lat="47.482674" lon="7.731454">
        <ele>329.016964</ele>
        <time>2021-11-18T23:37:55.329Z</time>
      </trkpt>
      <trkpt lat="47.483093" lon="7.731601">
        <ele>329.048034</ele>
        <time>2021-11-18T23:38:00.647Z</time>
      </trkpt>
      <trkpt lat="47.483122" lon="7.731612">
        <ele>329.050194</ele>
        <time>2021-11-18T23:38:01.021Z</time>
      </trkpt>
      <trkpt lat="47.483284" lon="7.731664">
        <ele>329.062155</ele>
        <time>2021-11-18T23:38:03.494Z</time>
      </trkpt>
      <trkpt lat="47.483387" lon="7.731701">
        <ele>329.069802</ele>
        <time>2021-11-18T23:38:05.646Z</time>
      </trkpt>
      <trkpt lat="47.483481" lon="7.731683">
        <ele>329.076641</ele>
        <time>2021-11-18T23:38:07.108Z</time>
      </trkpt>
      <trkpt lat="47.483541" lon="7.731651">
        <ele>329.081243</ele>
        <time>2021-11-18T23:38:08.349Z</time>
      </trkpt>
      <trkpt lat="47.484188" lon="7.730675">
        <ele>329.123887</ele>
        <time>2021-11-18T23:38:26.788Z</time>
      </trkpt>
      <trkpt lat="47.484379" lon="7.730516">
        <ele>329.113913</ele>
        <time>2021-11-18T23:38:30.549Z</time>
      </trkpt>
      <trkpt lat="47.484446" lon="7.730531">
        <ele>329.110829</ele>
        <time>2021-11-18T23:38:31.428Z</time>
      </trkpt>
      <trkpt lat="47.484429" lon="7.730405">
        <ele>329.106878</ele>
        <time>2021-11-18T23:38:33.490Z</time>
      </trkpt>
      <trkpt lat="47.484875" lon="7.729436">
        <ele>329.070821</ele>
        <time>2021-11-18T23:38:44.892Z</time>
      </trkpt>
      <trkpt lat="47.484909" lon="7.729250">
        <ele>329.064895</ele>
        <time>2021-11-18T23:38:47.232Z</time>
      </trkpt>
      <trkpt lat="47.484975" lon="7.729224">
        <ele>329.061787</ele>
        <time>2021-11-18T23:38:48.012Z</time>
      </trkpt>
      <trkpt lat="47.485059" lon="7.729137">
        <ele>329.057120</ele>
        <time>2021-11-18T23:38:49.873Z</time>
      </trkpt>
      <trkpt lat="47.485113" lon="7.729094">
        <ele>329.054330</ele>
        <time>2021-11-18T23:38:50.450Z</time>
      </trkpt>
      <trkpt lat="47.486046" lon="7.728429">
        <ele>326.655023</ele>
        <time>2021-11-18T23:39:01.854Z</time>
      </trkpt>
      <trkpt lat="47.486872" lon="7.727207">
        <ele>323.594351</ele>
        <time>2021-11-18T23:39:13.555Z</time>
      </trkpt>
      <trkpt lat="47.488326" lon="7.725302">
        <ele>318.083594</ele>
        <time>2021-11-18T23:39:33.601Z</time>
      </trkpt>
      <trkpt lat="47.488897" lon="7.724752">
        <ele>316.453009</ele>
        <time>2021-11-18T23:39:41.100Z</time>
      </trkpt>
      <trkpt lat="47.489116" lon="7.724510">
        <ele>315.798867</ele>
        <time>2021-11-18T23:39:44.098Z</time>
      </trkpt>
      <trkpt lat="47.489169" lon="7.724454">
        <ele>315.643007</ele>
        <time>2021-11-18T23:39:44.793Z</time>
      </trkpt>
      <trkpt lat="47.489346" lon="7.724892">
        <ele>314.814516</ele>
        <time>2021-11-18T23:39:48.441Z</time>
      </trkpt>
      <trkpt lat="47.489379" lon="7.724942">
        <ele>314.698413</ele>
        <time>2021-11-18T23:39:48.906Z</time>
      </trkpt>
      <trkpt lat="47.489941" lon="7.725807">
        <ele>312.705065</ele>
        <time>2021-11-18T23:39:57.376Z</time>
      </trkpt>
      <trkpt lat="47.489995" lon="7.725895">
        <ele>312.507603</ele>
        <time>2021-11-18T23:39:58.249Z</time>
      </trkpt>
      <trkpt lat="47.490311" lon="7.726430">
        <ele>311.327235</ele>
        <time>2021-11-18T23:40:03.325Z</time>
      </trkpt>
      <trkpt lat="47.490422" lon="7.726726">
        <ele>310.764897</ele>
        <time>2021-11-18T23:40:05.955Z</time>
      </trkpt>
      <trkpt lat="47.490472" lon="7.726859">
        <ele>310.512076</ele>
        <time>2021-11-18T23:40:06.962Z</time>
      </trkpt>
      <trkpt lat="47.490558" lon="7.726775">
        <ele>310.334510</ele>
        <time>2021-11-18T23:40:08.190Z</time>
      </trkpt>
      <trkpt lat="47.490621" lon="7.726684">
        <ele>310.183044</ele>
        <time>2021-11-18T23:40:09.207Z</time>
      </trkpt>
      <trkpt lat="47.490801" lon="7.726367">
        <ele>309.701656</ele>
        <time>2021-11-18T23:40:12.095Z</time>
      </trkpt>
      <trkpt lat="47.490981" lon="7.726050">
        <ele>309.220269</ele>
        <time>2021-11-18T23:40:15.032Z</time>
      </trkpt>
      <trkpt lat="47.491072" lon="7.725890">
        <ele>308.977134</ele>
        <time>2021-11-18T23:40:16.644Z</time>
      </trkpt>
      <trkpt lat="47.491137" lon="7.725804">
        <ele>308.827123</ele>
        <time>2021-11-18T23:40:17.724Z</time>
      </trkpt>
      <trkpt lat="47.491202" lon="7.725718">
        <ele>308.677112</ele>
        <time>2021-11-18T23:40:18.585Z</time>
      </trkpt>
      <trkpt lat="47.491334" lon="7.725544">
        <ele>308.372974</ele>
        <time>2021-11-18T23:40:20.692Z</time>
      </trkpt>
      <trkpt lat="47.491533" lon="7.725332">
        <ele>307.951104</ele>
        <time>2021-11-18T23:40:23.551Z</time>
      </trkpt>
      <trkpt lat="47.491598" lon="7.725275">
        <ele>307.821110</ele>
        <time>2021-11-18T23:40:24.463Z</time>
      </trkpt>
      <trkpt lat="47.491668" lon="7.725287">
        <ele>307.699867</ele>
        <time>2021-11-18T23:40:25.364Z</time>
      </trkpt>
      <trkpt lat="47.491803" lon="7.725283">
        <ele>307.467547</ele>
        <time>2021-11-18T23:40:27.229Z</time>
      </trkpt>
      <trkpt lat="47.491822" lon="7.725306">
        <ele>307.425314</ele>
        <time>2021-11-18T23:40:27.505Z</time>
      </trkpt>
      <trkpt lat="47.491891" lon="7.725334">
        <ele>307.393670</ele>
        <time>2021-11-18T23:40:28.754Z</time>
      </trkpt>
      <trkpt lat="47.491915" lon="7.725328">
        <ele>307.385302</ele>
        <time>2021-11-18T23:40:29.128Z</time>
      </trkpt>
      <trkpt lat="47.491939" lon="7.725313">
        <ele>307.376345</ele>
        <time>2021-11-18T23:40:29.586Z</time>
      </trkpt>
      <trkpt lat="47.491961" lon="7.725291">
        <ele>307.367216</ele>
        <time>2021-11-18T23:40:30.104Z</time>
      </trkpt>
      <trkpt lat="47.491978" lon="7.725262">
        <ele>307.358296</ele>
        <time>2021-11-18T23:40:30.503Z</time>
      </trkpt>
      <trkpt lat="47.491989" lon="7.725231">
        <ele>307.350162</ele>
        <time>2021-11-18T23:40:30.827Z</time>
      </trkpt>
      <trkpt lat="47.491996" lon="7.725198">
        <ele>307.342127</ele>
        <time>2021-11-18T23:40:31.120Z</time>
      </trkpt>
      <trkpt lat="47.491998" lon="7.725163">
        <ele>307.333967</ele>
        <time>2021-11-18T23:40:31.477Z</time>
      </trkpt>
      <trkpt lat="47.492086" lon="7.725087">
        <ele>307.298936</ele>
        <time>2021-11-18T23:40:32.775Z</time>
      </trkpt>
      <trkpt lat="47.492200" lon="7.725003">
        <ele>307.255151</ele>
        <time>2021-11-18T23:40:34.288Z</time>
      </trkpt>
      <trkpt lat="47.492200" lon="7.725003">
        <ele>307.255151</ele>
        <time>2021-11-18T23:40:34.291Z</time>
      </trkpt>
      <trkpt lat="47.492533" lon="7.724869">
        <ele>307.136503</ele>
        <time>2021-11-18T23:40:38.529Z</time>
      </trkpt>
      <trkpt lat="47.492679" lon="7.724813">
        <ele>307.084647</ele>
        <time>2021-11-18T23:40:40.362Z</time>
      </trkpt>
      <trkpt lat="47.492858" lon="7.724732">
        <ele>307.020291</ele>
        <time>2021-11-18T23:40:42.822Z</time>
      </trkpt>
      <trkpt lat="47.492952" lon="7.724675">
        <ele>306.985364</ele>
        <time>2021-11-18T23:40:44.016Z</time>
      </trkpt>
      <trkpt lat="47.493160" lon="7.724550">
        <ele>306.908179</ele>
        <time>2021-11-18T23:40:47.173Z</time>
      </trkpt>
      <trkpt lat="47.493271" lon="7.724493">
        <ele>306.867783</ele>
        <time>2021-11-18T23:40:49.024Z</time>
      </trkpt>
      <trkpt lat="47.493492" lon="7.724383">
        <ele>306.845081</ele>
        <time>2021-11-18T23:40:53.453Z</time>
      </trkpt>
      <trkpt lat="47.493620" lon="7.724323">
        <ele>307.051907</ele>
        <time>2021-11-18T23:40:56.042Z</time>
      </trkpt>
      <trkpt lat="47.493698" lon="7.724293">
        <ele>307.176051</ele>
        <time>2021-11-18T23:40:57.897Z</time>
      </trkpt>
      <trkpt lat="47.493945" lon="7.724198">
        <ele>307.569171</ele>
        <time>2021-11-18T23:41:02.966Z</time>
      </trkpt>
      <trkpt lat="47.494130" lon="7.724127">
        <ele>307.863573</ele>
        <time>2021-11-18T23:41:07.073Z</time>
      </trkpt>
      <trkpt lat="47.494301" lon="7.724060">
        <ele>308.136058</ele>
        <time>2021-11-18T23:41:10.807Z</time>
      </trkpt>
      <trkpt lat="47.494609" lon="7.723957">
        <ele>308.622466</ele>
        <time>2021-11-18T23:41:17.551Z</time>
      </trkpt>
      <trkpt lat="47.494619" lon="7.723781">
        <ele>308.806293</ele>
        <time>2021-11-18T23:41:20.748Z</time>
      </trkpt>
      <trkpt lat="47.494681" lon="7.723583">
        <ele>309.033425</ele>
        <time>2021-11-18T23:41:23.943Z</time>
      </trkpt>
      <trkpt lat="47.494828" lon="7.723217">
        <ele>309.476577</ele>
        <time>2021-11-18T23:41:29.985Z</time>
      </trkpt>
      <trkpt lat="47.494900" lon="7.723018">
        <ele>309.677383</ele>
        <time>2021-11-18T23:41:33.418Z</time>
      </trkpt>
      <trkpt lat="47.495028" lon="7.722751">
        <ele>309.936642</ele>
        <time>2021-11-18T23:41:38.979Z</time>
      </trkpt>
      <trkpt lat="47.495139" lon="7.722633">
        <ele>310.096823</ele>
        <time>2021-11-18T23:41:41.847Z</time>
      </trkpt>
      <trkpt lat="47.495344" lon="7.722481">
        <ele>310.365562</ele>
        <time>2021-11-18T23:41:47.143Z</time>
      </trkpt>
      <trkpt lat="47.495949" lon="7.722125">
        <ele>311.128650</ele>
        <time>2021-11-18T23:41:59.784Z</time>
      </trkpt>
      <trkpt lat="47.496600" lon="7.721528">
        <ele>311.671468</ele>
        <time>2021-11-18T23:42:11.607Z</time>
      </trkpt>
      <trkpt lat="47.496711" lon="7.721431">
        <ele>311.669121</ele>
        <time>2021-11-18T23:42:13.487Z</time>
      </trkpt>
      <trkpt lat="47.497096" lon="7.721134">
        <ele>311.661218</ele>
        <time>2021-11-18T23:42:19.736Z</time>
      </trkpt>
      <trkpt lat="47.497360" lon="7.720894">
        <ele>311.655578</ele>
        <time>2021-11-18T23:42:24.094Z</time>
      </trkpt>
      <trkpt lat="47.498011" lon="7.720304">
        <ele>311.607422</ele>
        <time>2021-11-18T23:42:35.161Z</time>
      </trkpt>
      <trkpt lat="47.498324" lon="7.720041">
        <ele>311.509969</ele>
        <time>2021-11-18T23:42:40.602Z</time>
      </trkpt>
      <trkpt lat="47.498470" lon="7.719926">
        <ele>311.465188</ele>
        <time>2021-11-18T23:42:43.063Z</time>
      </trkpt>
      <trkpt lat="47.498634" lon="7.719796">
        <ele>311.414816</ele>
        <time>2021-11-18T23:42:45.908Z</time>
      </trkpt>
      <trkpt lat="47.498930" lon="7.719621">
        <ele>311.328513</ele>
        <time>2021-11-18T23:42:50.345Z</time>
      </trkpt>
      <trkpt lat="47.499164" lon="7.719542">
        <ele>311.263527</ele>
        <time>2021-11-18T23:42:53.513Z</time>
      </trkpt>
      <trkpt lat="47.499674" lon="7.719462">
        <ele>311.030913</ele>
        <time>2021-11-18T23:43:00.109Z</time>
      </trkpt>
      <trkpt lat="47.499921" lon="7.719450">
        <ele>310.770855</ele>
        <time>2021-11-18T23:43:03.164Z</time>
      </trkpt>
      <trkpt lat="47.500043" lon="7.719444">
        <ele>310.642403</ele>
        <time>2021-11-18T23:43:04.729Z</time>
      </trkpt>
      <trkpt lat="47.500077" lon="7.719446">
        <ele>310.606597</ele>
        <time>2021-11-18T23:43:05.140Z</time>
      </trkpt>
      <trkpt lat="47.500460" lon="7.719466">
        <ele>310.203316</ele>
        <time>2021-11-18T23:43:09.937Z</time>
      </trkpt>
      <trkpt lat="47.500997" lon="7.719436">
        <ele>309.637828</ele>
        <time>2021-11-18T23:43:16.646Z</time>
      </trkpt>
      <trkpt lat="47.501149" lon="7.719429">
        <ele>309.477801</ele>
        <time>2021-11-18T23:43:18.344Z</time>
      </trkpt>
      <trkpt lat="47.501280" lon="7.719417">
        <ele>309.339687</ele>
        <time>2021-11-18T23:43:19.944Z</time>
      </trkpt>
      <trkpt lat="47.501340" lon="7.719429">
        <ele>309.275975</ele>
        <time>2021-11-18T23:43:20.636Z</time>
      </trkpt>
      <trkpt lat="47.501396" lon="7.719453">
        <ele>309.134631</ele>
        <time>2021-11-18T23:43:21.334Z</time>
      </trkpt>
      <trkpt lat="47.501439" lon="7.719488">
        <ele>309.000056</ele>
        <time>2021-11-18T23:43:21.911Z</time>
      </trkpt>
      <trkpt lat="47.501478" lon="7.719538">
        <ele>308.858564</ele>
        <time>2021-11-18T23:43:22.413Z</time>
      </trkpt>
      <trkpt lat="47.501478" lon="7.719538">
        <ele>308.858564</ele>
        <time>2021-11-18T23:43:22.416Z</time>
      </trkpt>
      <trkpt lat="47.501497" lon="7.719587">
        <ele>308.753892</ele>
        <time>2021-11-18T23:43:22.901Z</time>
      </trkpt>
      <trkpt lat="47.501586" lon="7.720404">
        <ele>307.220703</ele>
        <time>2021-11-18T23:43:28.955Z</time>
      </trkpt>
      <trkpt lat="47.501580" lon="7.720527">
        <ele>306.992230</ele>
        <time>2021-11-18T23:43:29.822Z</time>
      </trkpt>
      <trkpt lat="47.501549" lon="7.720527">
        <ele>306.907216</ele>
        <time>2021-11-18T23:43:30.110Z</time>
      </trkpt>
      <trkpt lat="47.501471" lon="7.720655">
        <ele>306.587854</ele>
        <time>2021-11-18T23:43:31.334Z</time>
      </trkpt>
      <trkpt lat="47.501475" lon="7.720701">
        <ele>306.501927</ele>
        <time>2021-11-18T23:43:31.667Z</time>
      </trkpt>
      <trkpt lat="47.501487" lon="7.720740">
        <ele>306.422531</ele>
        <time>2021-11-18T23:43:31.961Z</time>
      </trkpt>
      <trkpt lat="47.501590" lon="7.720794">
        <ele>306.122872</ele>
        <time>2021-11-18T23:43:33.112Z</time>
      </trkpt>
      <trkpt lat="47.501616" lon="7.720776">
        <ele>306.044156</ele>
        <time>2021-11-18T23:43:33.412Z</time>
      </trkpt>
      <trkpt lat="47.501635" lon="7.720835">
        <ele>305.923065</ele>
        <time>2021-11-18T23:43:33.814Z</time>
      </trkpt>
      <trkpt lat="47.501658" lon="7.720911">
        <ele>305.768779</ele>
        <time>2021-11-18T23:43:34.414Z</time>
      </trkpt>
      <trkpt lat="47.501816" lon="7.721777">
        <ele>304.014493</ele>
        <time>2021-11-18T23:43:40.552Z</time>
      </trkpt>
      <trkpt lat="47.501908" lon="7.722222">
        <ele>302.798215</ele>
        <time>2021-11-18T23:43:43.582Z</time>
      </trkpt>
      <trkpt lat="47.501978" lon="7.722527">
        <ele>301.956334</ele>
        <time>2021-11-18T23:43:45.633Z</time>
      </trkpt>
      <trkpt lat="47.502028" lon="7.722740">
        <ele>301.366997</ele>
        <time>2021-11-18T23:43:47.102Z</time>
      </trkpt>
      <trkpt lat="47.502046" lon="7.722829">
        <ele>301.124190</ele>
        <time>2021-11-18T23:43:47.684Z</time>
      </trkpt>
      <trkpt lat="47.502072" lon="7.722973">
        <ele>300.734629</ele>
        <time>2021-11-18T23:43:48.618Z</time>
      </trkpt>
      <trkpt lat="47.502112" lon="7.723201">
        <ele>300.118973</ele>
        <time>2021-11-18T23:43:50.140Z</time>
      </trkpt>
      <trkpt lat="47.502133" lon="7.723553">
        <ele>299.195423</ele>
        <time>2021-11-18T23:43:52.437Z</time>
      </trkpt>
      <trkpt lat="47.502126" lon="7.723727">
        <ele>298.739859</ele>
        <time>2021-11-18T23:43:53.583Z</time>
      </trkpt>
      <trkpt lat="47.502105" lon="7.724063">
        <ele>297.857956</ele>
        <time>2021-11-18T23:43:55.843Z</time>
      </trkpt>
      <trkpt lat="47.502074" lon="7.724375">
        <ele>297.451787</ele>
        <time>2021-11-18T23:43:58.029Z</time>
      </trkpt>
      <trkpt lat="47.502069" lon="7.724437">
        <ele>297.489426</ele>
        <time>2021-11-18T23:43:58.507Z</time>
      </trkpt>
      <trkpt lat="47.502067" lon="7.724454">
        <ele>297.499828</ele>
        <time>2021-11-18T23:43:58.617Z</time>
      </trkpt>
      <trkpt lat="47.502055" lon="7.724669">
        <ele>297.629872</ele>
        <time>2021-11-18T23:44:00.355Z</time>
      </trkpt>
      <trkpt lat="47.502040" lon="7.724902">
        <ele>297.770962</ele>
        <time>2021-11-18T23:44:02.382Z</time>
      </trkpt>
      <trkpt lat="47.502029" lon="7.725074">
        <ele>297.875108</ele>
        <time>2021-11-18T23:44:03.963Z</time>
      </trkpt>
      <trkpt lat="47.502031" lon="7.725298">
        <ele>298.010149</ele>
        <time>2021-11-18T23:44:05.909Z</time>
      </trkpt>
      <trkpt lat="47.502031" lon="7.725427">
        <ele>298.087910</ele>
        <time>2021-11-18T23:44:07.484Z</time>
      </trkpt>
      <trkpt lat="47.502048" lon="7.725782">
        <ele>298.302443</ele>
        <time>2021-11-18T23:44:11.316Z</time>
      </trkpt>
      <trkpt lat="47.502115" lon="7.726246">
        <ele>298.588462</ele>
        <time>2021-11-18T23:44:18.708Z</time>
      </trkpt>
      <trkpt lat="47.502122" lon="7.726303">
        <ele>298.623385</ele>
        <time>2021-11-18T23:44:19.312Z</time>
      </trkpt>
      <trkpt lat="47.502177" lon="7.726706">
        <ele>298.871223</ele>
        <time>2021-11-18T23:44:27.725Z</time>
      </trkpt>
      <trkpt lat="47.502189" lon="7.726824">
        <ele>298.943155</ele>
        <time>2021-11-18T23:44:29.912Z</time>
      </trkpt>
      <trkpt lat="47.502204" lon="7.726964">
        <ele>299.377416</ele>
        <time>2021-11-18T23:44:33.518Z</time>
      </trkpt>
      <trkpt lat="47.502370" lon="7.726942">
        <ele>300.558752</ele>
        <time>2021-11-18T23:44:39.752Z</time>
      </trkpt>
      <trkpt lat="47.502418" lon="7.726942">
        <ele>300.898983</ele>
        <time>2021-11-18T23:44:41.470Z</time>
      </trkpt>
      <trkpt lat="47.502557" lon="7.726941">
        <ele>301.884245</ele>
        <time>2021-11-18T23:44:46.703Z</time>
      </trkpt>
      <trkpt lat="47.502785" lon="7.727007">
        <ele>303.530950</ele>
        <time>2021-11-18T23:44:56.406Z</time>
      </trkpt>
      <trkpt lat="47.502897" lon="7.727052">
        <ele>304.353545</ele>
        <time>2021-11-18T23:45:01.276Z</time>
      </trkpt>
      <trkpt lat="47.503012" lon="7.727124">
        <ele>305.238592</ele>
        <time>2021-11-18T23:45:07.078Z</time>
      </trkpt>
      <trkpt lat="47.503612" lon="7.727532">
        <ele>309.918737</ele>
        <time>2021-11-18T23:45:38.267Z</time>
      </trkpt>
      <trkpt lat="47.504330" lon="7.727938">
        <ele>316.131165</ele>
        <time>2021-11-18T23:46:16.756Z</time>
      </trkpt>
      <trkpt lat="47.504693" lon="7.728164">
        <ele>319.508809</ele>
        <time>2021-11-18T23:46:39.301Z</time>
      </trkpt>
      <trkpt lat="47.504979" lon="7.728357">
        <ele>322.204720</ele>
        <time>2021-11-18T23:46:54.013Z</time>
      </trkpt>
      <trkpt lat="47.505256" lon="7.728654">
        <ele>325.138307</ele>
        <time>2021-11-18T23:47:10.339Z</time>
      </trkpt>
      <trkpt lat="47.505279" lon="7.728682">
        <ele>325.393720</ele>
        <time>2021-11-18T23:47:11.769Z</time>
      </trkpt>
      <trkpt lat="47.505304" lon="7.728712">
        <ele>325.669750</ele>
        <time>2021-11-18T23:47:14.658Z</time>
      </trkpt>
      <trkpt lat="47.505472" lon="7.729028">
        <ele>327.915214</ele>
        <time>2021-11-18T23:47:25.120Z</time>
      </trkpt>
      <trkpt lat="47.505554" lon="7.729431">
        <ele>330.110114</ele>
        <time>2021-11-18T23:47:36.892Z</time>
      </trkpt>
      <trkpt lat="47.505566" lon="7.729659">
        <ele>331.302728</ele>
        <time>2021-11-18T23:47:44.277Z</time>
      </trkpt>
      <trkpt lat="47.505576" lon="7.729777">
        <ele>331.922917</ele>
        <time>2021-11-18T23:47:47.096Z</time>
      </trkpt>
      <trkpt lat="47.505600" lon="7.729862">
        <ele>332.403352</ele>
        <time>2021-11-18T23:47:48.964Z</time>
      </trkpt>
      <trkpt lat="47.505610" lon="7.729883">
        <ele>332.537341</ele>
        <time>2021-11-18T23:47:49.839Z</time>
      </trkpt>
      <trkpt lat="47.505698" lon="7.729940">
        <ele>333.278880</ele>
        <time>2021-11-18T23:47:53.422Z</time>
      </trkpt>
      <trkpt lat="47.505786" lon="7.729995">
        <ele>334.016301</ele>
        <time>2021-11-18T23:47:58.336Z</time>
      </trkpt>
      <trkpt lat="47.505964" lon="7.730090">
        <ele>335.477028</ele>
        <time>2021-11-18T23:48:06.293Z</time>
      </trkpt>
      <trkpt lat="47.506098" lon="7.730161">
        <ele>336.575765</ele>
        <time>2021-11-18T23:48:13.058Z</time>
      </trkpt>
      <trkpt lat="47.506160" lon="7.730184">
        <ele>337.069200</ele>
        <time>2021-11-18T23:48:17.167Z</time>
      </trkpt>
      <trkpt lat="47.506263" lon="7.730221">
        <ele>337.887429</ele>
        <time>2021-11-18T23:48:21.102Z</time>
      </trkpt>
      <trkpt lat="47.506380" lon="7.730243">
        <ele>338.797919</ele>
        <time>2021-11-18T23:48:26.678Z</time>
      </trkpt>
      <trkpt lat="47.506471" lon="7.730276">
        <ele>339.521204</ele>
        <time>2021-11-18T23:48:31.650Z</time>
      </trkpt>
      <trkpt lat="47.506756" lon="7.730348">
        <ele>342.020391</ele>
        <time>2021-11-18T23:48:45.687Z</time>
      </trkpt>
      <trkpt lat="47.506937" lon="7.730311">
        <ele>343.959369</ele>
        <time>2021-11-18T23:48:55.291Z</time>
      </trkpt>
      <trkpt lat="47.507701" lon="7.730399">
        <ele>352.091357</ele>
        <time>2021-11-18T23:49:37.614Z</time>
      </trkpt>
      <trkpt lat="47.507939" lon="7.730423">
        <ele>354.622840</ele>
        <time>2021-11-18T23:49:52.541Z</time>
      </trkpt>
      <trkpt lat="47.508551" lon="7.730458">
        <ele>361.177547</ele>
        <time>2021-11-18T23:50:31.196Z</time>
      </trkpt>
      <trkpt lat="47.508949" lon="7.730515">
        <ele>365.656932</ele>
        <time>2021-11-18T23:50:56.480Z</time>
      </trkpt>
      <trkpt lat="47.509109" lon="7.730536">
        <ele>367.456353</ele>
        <time>2021-11-18T23:51:07.834Z</time>
      </trkpt>
      <trkpt lat="47.509299" lon="7.730556">
        <ele>369.590190</ele>
        <time>2021-11-18T23:51:19.026Z</time>
      </trkpt>
      <trkpt lat="47.509971" lon="7.730436">
        <ele>377.172796</ele>
        <time>2021-11-18T23:51:58.657Z</time>
      </trkpt>
      <trkpt lat="47.510248" lon="7.730401">
        <ele>380.285525</ele>
        <time>2021-11-18T23:52:13.785Z</time>
      </trkpt>
      <trkpt lat="47.510439" lon="7.730517">
        <ele>382.256845</ele>
        <time>2021-11-18T23:52:23.718Z</time>
      </trkpt>
      <trkpt lat="47.510529" lon="7.730600">
        <ele>383.269336</ele>
        <time>2021-11-18T23:52:30.659Z</time>
      </trkpt>
      <trkpt lat="47.510582" lon="7.730653">
        <ele>383.880055</ele>
        <time>2021-11-18T23:52:34.314Z</time>
      </trkpt>
      <trkpt lat="47.510894" lon="7.730938">
        <ele>387.380729</ele>
        <time>2021-11-18T23:52:52.605Z</time>
      </trkpt>
      <trkpt lat="47.511169" lon="7.731160">
        <ele>390.371655</ele>
        <time>2021-11-18T23:53:08.362Z</time>
      </trkpt>
      <trkpt lat="47.511556" lon="7.731396">
        <ele>394.368251</ele>
        <time>2021-11-18T23:53:32.215Z</time>
      </trkpt>
      <trkpt lat="47.511744" lon="7.731418">
        <ele>396.169026</ele>
        <time>2021-11-18T23:53:42.019Z</time>
      </trkpt>
      <trkpt lat="47.511927" lon="7.731386">
        <ele>397.789466</ele>
        <time>2021-11-18T23:53:53.100Z</time>
      </trkpt>
      <trkpt lat="47.511976" lon="7.731370">
        <ele>398.129009</ele>
        <time>2021-11-18T23:53:55.172Z</time>
      </trkpt>
      <trkpt lat="47.512002" lon="7.731362">
        <ele>398.308706</ele>
        <time>2021-11-18T23:53:56.388Z</time>
      </trkpt>
      <trkpt lat="47.512392" lon="7.731255">
        <ele>400.992699</ele>
        <time>2021-11-18T23:54:15.420Z</time>
      </trkpt>
      <trkpt lat="47.512650" lon="7.731136">
        <ele>402.821300</ele>
        <time>2021-11-18T23:54:27.852Z</time>
      </trkpt>
      <trkpt lat="47.512937" lon="7.731121">
        <ele>404.764589</ele>
        <time>2021-11-18T23:54:40.815Z</time>
      </trkpt>
      <trkpt lat="47.513227" lon="7.731116">
        <ele>406.727102</ele>
        <time>2021-11-18T23:54:52.285Z</time>
      </trkpt>
      <trkpt lat="47.514180" lon="7.731076">
        <ele>409.971067</ele>
        <time>2021-11-18T23:55:20.096Z</time>
      </trkpt>
      <trkpt lat="47.514358" lon="7.731113">
        <ele>410.090404</ele>
        <time>2021-11-18T23:55:24.094Z</time>
      </trkpt>
      <trkpt lat="47.515097" lon="7.731253">
        <ele>410.585045</ele>
        <time>2021-11-18T23:55:34.656Z</time>
      </trkpt>
      <trkpt lat="47.515284" lon="7.731353">
        <ele>410.717048</ele>
        <time>2021-11-18T23:55:37.428Z</time>
      </trkpt>
      <trkpt lat="47.515400" lon="7.731439">
        <ele>410.803179</ele>
        <time>2021-11-18T23:55:38.884Z</time>
      </trkpt>
      <trkpt lat="47.515516" lon="7.731602">
        <ele>409.935420</ele>
        <time>2021-11-18T23:55:40.483Z</time>
      </trkpt>
      <trkpt lat="47.515609" lon="7.731738">
        <ele>409.113900</ele>
        <time>2021-11-18T23:55:41.859Z</time>
      </trkpt>
      <trkpt lat="47.515656" lon="7.731823">
        <ele>408.647601</ele>
        <time>2021-11-18T23:55:42.603Z</time>
      </trkpt>
      <trkpt lat="47.515788" lon="7.732081">
        <ele>407.273705</ele>
        <time>2021-11-18T23:55:44.622Z</time>
      </trkpt>
      <trkpt lat="47.516143" lon="7.733008">
        <ele>402.750309</ele>
        <time>2021-11-18T23:55:51.046Z</time>
      </trkpt>
      <trkpt lat="47.516252" lon="7.733231">
        <ele>401.581852</ele>
        <time>2021-11-18T23:55:52.701Z</time>
      </trkpt>
      <trkpt lat="47.516307" lon="7.733325">
        <ele>401.053941</ele>
        <time>2021-11-18T23:55:53.416Z</time>
      </trkpt>
      <trkpt lat="47.516479" lon="7.733615">
        <ele>399.372652</ele>
        <time>2021-11-18T23:55:55.760Z</time>
      </trkpt>
      <trkpt lat="47.516777" lon="7.734159">
        <ele>395.070504</ele>
        <time>2021-11-18T23:55:59.848Z</time>
      </trkpt>
      <trkpt lat="47.517043" lon="7.734808">
        <ele>390.407759</ele>
        <time>2021-11-18T23:56:04.255Z</time>
      </trkpt>
      <trkpt lat="47.517532" lon="7.736243">
        <ele>381.801788</ele>
        <time>2021-11-18T23:56:13.686Z</time>
      </trkpt>
      <trkpt lat="47.517709" lon="7.736646">
        <ele>380.276519</ele>
        <time>2021-11-18T23:56:16.698Z</time>
      </trkpt>
      <trkpt lat="47.517827" lon="7.736889">
        <ele>379.326906</ele>
        <time>2021-11-18T23:56:18.611Z</time>
      </trkpt>
      <trkpt lat="47.518829" lon="7.738474">
        <ele>373.677256</ele>
        <time>2021-11-18T23:56:33.884Z</time>
      </trkpt>
      <trkpt lat="47.519284" lon="7.738961">
        <ele>372.481389</ele>
        <time>2021-11-18T23:56:40.831Z</time>
      </trkpt>
      <trkpt lat="47.519623" lon="7.739293">
        <ele>371.615649</ele>
        <time>2021-11-18T23:56:45.329Z</time>
      </trkpt>
      <trkpt lat="47.519931" lon="7.739563">
        <ele>370.823182</ele>
        <time>2021-11-18T23:56:49.124Z</time>
      </trkpt>
      <trkpt lat="47.520226" lon="7.739816">
        <ele>369.020869</ele>
        <time>2021-11-18T23:56:52.620Z</time>
      </trkpt>
      <trkpt lat="47.520523" lon="7.740087">
        <ele>367.176513</ele>
        <time>2021-11-18T23:56:57.522Z</time>
      </trkpt>
      <trkpt lat="47.520998" lon="7.740513">
        <ele>364.240598</ele>
        <time>2021-11-18T23:57:04.924Z</time>
      </trkpt>
      <trkpt lat="47.521267" lon="7.740757">
        <ele>362.572840</ele>
        <time>2021-11-18T23:57:08.978Z</time>
      </trkpt>
      <trkpt lat="47.522060" lon="7.741467">
        <ele>355.102704</ele>
        <time>2021-11-18T23:57:20.562Z</time>
      </trkpt>
      <trkpt lat="47.522380" lon="7.741760">
        <ele>351.728092</ele>
        <time>2021-11-18T23:57:25.189Z</time>
      </trkpt>
      <trkpt lat="47.522575" lon="7.741928">
        <ele>349.704559</ele>
        <time>2021-11-18T23:57:27.946Z</time>
      </trkpt>
      <trkpt lat="47.522769" lon="7.742227">
        <ele>347.193012</ele>
        <time>2021-11-18T23:57:31.453Z</time>
      </trkpt>
      <trkpt lat="47.522802" lon="7.742354">
        <ele>346.368781</ele>
        <time>2021-11-18T23:57:32.546Z</time>
      </trkpt>
      <trkpt lat="47.522809" lon="7.742436">
        <ele>345.868148</ele>
        <time>2021-11-18T23:57:33.233Z</time>
      </trkpt>
      <trkpt lat="47.522797" lon="7.742883">
        <ele>343.328904</ele>
        <time>2021-11-18T23:57:36.900Z</time>
      </trkpt>
      <trkpt lat="47.522763" lon="7.743129">
        <ele>341.933001</ele>
        <time>2021-11-18T23:57:39.020Z</time>
      </trkpt>
      <trkpt lat="47.522741" lon="7.743405">
        <ele>340.388019</ele>
        <time>2021-11-18T23:57:41.252Z</time>
      </trkpt>
      <trkpt lat="47.522718" lon="7.743713">
        <ele>338.665358</ele>
        <time>2021-11-18T23:57:43.866Z</time>
      </trkpt>
      <trkpt lat="47.522759" lon="7.744390">
        <ele>334.886696</ele>
        <time>2021-11-18T23:57:49.584Z</time>
      </trkpt>
      <trkpt lat="47.522842" lon="7.744668">
        <ele>333.196943</ele>
        <time>2021-11-18T23:57:52.260Z</time>
      </trkpt>
      <trkpt lat="47.522934" lon="7.744789">
        <ele>332.183995</ele>
        <time>2021-11-18T23:57:53.808Z</time>
      </trkpt>
      <trkpt lat="47.523159" lon="7.744998">
        <ele>330.177411</ele>
        <time>2021-11-18T23:57:57.480Z</time>
      </trkpt>
      <trkpt lat="47.523167" lon="7.745068">
        <ele>329.948927</ele>
        <time>2021-11-18T23:57:58.079Z</time>
      </trkpt>
      <trkpt lat="47.523193" lon="7.745320">
        <ele>329.128507</ele>
        <time>2021-11-18T23:58:00.350Z</time>
      </trkpt>
      <trkpt lat="47.523198" lon="7.745377">
        <ele>328.943523</ele>
        <time>2021-11-18T23:58:00.904Z</time>
      </trkpt>
      <trkpt lat="47.523204" lon="7.745491">
        <ele>328.575525</ele>
        <time>2021-11-18T23:58:01.992Z</time>
      </trkpt>
      <trkpt lat="47.523239" lon="7.745774">
        <ele>327.649601</ele>
        <time>2021-11-18T23:58:04.544Z</time>
      </trkpt>
      <trkpt lat="47.523291" lon="7.746042">
        <ele>326.752204</ele>
        <time>2021-11-18T23:58:07.097Z</time>
      </trkpt>
      <trkpt lat="47.523619" lon="7.747020">
        <ele>323.237934</ele>
        <time>2021-11-18T23:58:16.860Z</time>
      </trkpt>
      <trkpt lat="47.523642" lon="7.747090">
        <ele>322.987403</ele>
        <time>2021-11-18T23:58:17.724Z</time>
      </trkpt>
      <trkpt lat="47.523682" lon="7.747182">
        <ele>322.635262</ele>
        <time>2021-11-18T23:58:18.780Z</time>
      </trkpt>
      <trkpt lat="47.523736" lon="7.747262">
        <ele>322.271234</ele>
        <time>2021-11-18T23:58:20.033Z</time>
      </trkpt>
      <trkpt lat="47.523866" lon="7.747399">
        <ele>321.868459</ele>
        <time>2021-11-18T23:58:22.475Z</time>
      </trkpt>
      <trkpt lat="47.524008" lon="7.747563">
        <ele>321.907724</ele>
        <time>2021-11-18T23:58:25.559Z</time>
      </trkpt>
      <trkpt lat="47.524137" lon="7.747681">
        <ele>321.940785</ele>
        <time>2021-11-18T23:58:28.094Z</time>
      </trkpt>
      <trkpt lat="47.524148" lon="7.747688">
        <ele>321.943396</ele>
        <time>2021-11-18T23:58:28.242Z</time>
      </trkpt>
      <trkpt lat="47.524248" lon="7.747742">
        <ele>321.966604</ele>
        <time>2021-11-18T23:58:30.157Z</time>
      </trkpt>
      <trkpt lat="47.524334" lon="7.747786">
        <ele>321.986444</ele>
        <time>2021-11-18T23:58:31.701Z</time>
      </trkpt>
      <trkpt lat="47.524410" lon="7.747828">
        <ele>322.004131</ele>
        <time>2021-11-18T23:58:33.308Z</time>
      </trkpt>
      <trkpt lat="47.524463" lon="7.747889">
        <ele>322.018767</ele>
        <time>2021-11-18T23:58:34.618Z</time>
      </trkpt>
      <trkpt lat="47.524570" lon="7.748090">
        <ele>322.056452</ele>
        <time>2021-11-18T23:58:37.794Z</time>
      </trkpt>
      <trkpt lat="47.524712" lon="7.748378">
        <ele>322.108958</ele>
        <time>2021-11-18T23:58:44.154Z</time>
      </trkpt>
      <trkpt lat="47.524786" lon="7.748513">
        <ele>322.134559</ele>
        <time>2021-11-18T23:58:46.356Z</time>
      </trkpt>
      <trkpt lat="47.525255" lon="7.749393">
        <ele>323.640952</ele>
        <time>2021-11-18T23:59:04.408Z</time>
      </trkpt>
      <trkpt lat="47.525385" lon="7.749630">
        <ele>324.789766</ele>
        <time>2021-11-18T23:59:11.678Z</time>
      </trkpt>
      <trkpt lat="47.525551" lon="7.749912">
        <ele>326.197313</ele>
        <time>2021-11-18T23:59:20.451Z</time>
      </trkpt>
      <trkpt lat="47.525580" lon="7.749961">
        <ele>326.442459</ele>
        <time>2021-11-18T23:59:23.085Z</time>
      </trkpt>
      <trkpt lat="47.525667" lon="7.750194">
        <ele>327.444194</ele>
        <time>2021-11-18T23:59:29.607Z</time>
      </trkpt>
      <trkpt lat="47.525813" lon="7.750584">
        <ele>329.121935</ele>
        <time>2021-11-18T23:59:42.869Z</time>
      </trkpt>
      <trkpt lat="47.525988" lon="7.751788">
        <ele>333.895000</ele>
        <time>2021-11-19T00:00:19.062Z</time>
      </trkpt>
      <trkpt lat="47.526070" lon="7.752392">
        <ele>336.429968</ele>
        <time>2021-11-19T00:00:35.878Z</time>
      </trkpt>
      <trkpt lat="47.526097" lon="7.752774">
        <ele>338.010342</ele>
        <time>2021-11-19T00:00:46.200Z</time>
      </trkpt>
      <trkpt lat="47.526034" lon="7.753359">
        <ele>340.447819</ele>
        <time>2021-11-19T00:01:01.351Z</time>
      </trkpt>
      <trkpt lat="47.525697" lon="7.754492">
        <ele>344.227200</ele>
        <time>2021-11-19T00:01:31.771Z</time>
      </trkpt>
      <trkpt lat="47.525656" lon="7.755020">
        <ele>345.172295</ele>
        <time>2021-11-19T00:01:43.264Z</time>
      </trkpt>
      <trkpt lat="47.525757" lon="7.755768">
        <ele>346.528744</ele>
        <time>2021-11-19T00:01:54.650Z</time>
      </trkpt>
      <trkpt lat="47.526120" lon="7.757265">
        <ele>348.189892</ele>
        <time>2021-11-19T00:02:12.258Z</time>
      </trkpt>
      <trkpt lat="47.526153" lon="7.757413">
        <ele>348.234976</ele>
        <time>2021-11-19T00:02:13.572Z</time>
      </trkpt>
      <trkpt lat="47.526178" lon="7.757679">
        <ele>348.312661</ele>
        <time>2021-11-19T00:02:15.995Z</time>
      </trkpt>
      <trkpt lat="47.526183" lon="7.758165">
        <ele>348.453258</ele>
        <time>2021-11-19T00:02:20.419Z</time>
      </trkpt>
      <trkpt lat="47.525838" lon="7.761399">
        <ele>351.046848</ele>
        <time>2021-11-19T00:03:03.181Z</time>
      </trkpt>
      <trkpt lat="47.525345" lon="7.763741">
        <ele>355.829864</ele>
        <time>2021-11-19T00:03:48.413Z</time>
      </trkpt>
      <trkpt lat="47.525032" lon="7.765894">
        <ele>360.802640</ele>
        <time>2021-11-19T00:04:32.019Z</time>
      </trkpt>
      <trkpt lat="47.524311" lon="7.768460">
        <ele>365.532386</ele>
        <time>2021-11-19T00:05:23.629Z</time>
      </trkpt>
      <trkpt lat="47.523940" lon="7.769974">
        <ele>366.098036</ele>
        <time>2021-11-19T00:05:39.773Z</time>
      </trkpt>
      <trkpt lat="47.523901" lon="7.770269">
        <ele>365.811251</ele>
        <time>2021-11-19T00:05:42.149Z</time>
      </trkpt>
      <trkpt lat="47.523815" lon="7.771108">
        <ele>365.001641</ele>
        <time>2021-11-19T00:05:48.338Z</time>
      </trkpt>
      <trkpt lat="47.523740" lon="7.771774">
        <ele>364.357473</ele>
        <time>2021-11-19T00:05:53.304Z</time>
      </trkpt>
      <trkpt lat="47.523683" lon="7.772233">
        <ele>363.982552</ele>
        <time>2021-11-19T00:05:56.595Z</time>
      </trkpt>
      <trkpt lat="47.523647" lon="7.772437">
        <ele>363.827244</ele>
        <time>2021-11-19T00:05:58.200Z</time>
      </trkpt>
      <trkpt lat="47.523369" lon="7.773349">
        <ele>363.090216</ele>
        <time>2021-11-19T00:06:05.700Z</time>
      </trkpt>
      <trkpt lat="47.523161" lon="7.774016">
        <ele>362.549059</ele>
        <time>2021-11-19T00:06:12.256Z</time>
      </trkpt>
      <trkpt lat="47.523142" lon="7.774075">
        <ele>362.500912</ele>
        <time>2021-11-19T00:06:12.818Z</time>
      </trkpt>
      <trkpt lat="47.523123" lon="7.774135">
        <ele>362.452099</ele>
        <time>2021-11-19T00:06:13.390Z</time>
      </trkpt>
      <trkpt lat="47.522943" lon="7.774683">
        <ele>362.571133</ele>
        <time>2021-11-19T00:06:21.011Z</time>
      </trkpt>
      <trkpt lat="47.522278" lon="7.777671">
        <ele>365.908249</ele>
        <time>2021-11-19T00:07:05.771Z</time>
      </trkpt>
      <trkpt lat="47.522048" lon="7.778683">
        <ele>367.520629</ele>
        <time>2021-11-19T00:07:23.493Z</time>
      </trkpt>
      <trkpt lat="47.521630" lon="7.780058">
        <ele>369.944382</ele>
        <time>2021-11-19T00:07:49.923Z</time>
      </trkpt>
      <trkpt lat="47.521125" lon="7.781677">
        <ele>372.990145</ele>
        <time>2021-11-19T00:08:20.074Z</time>
      </trkpt>
      <trkpt lat="47.521119" lon="7.781693">
        <ele>373.021402</ele>
        <time>2021-11-19T00:08:20.348Z</time>
      </trkpt>
      <trkpt lat="47.520998" lon="7.782108">
        <ele>373.785330</ele>
        <time>2021-11-19T00:08:27.452Z</time>
      </trkpt>
      <trkpt lat="47.520818" lon="7.782702">
        <ele>374.881425</ele>
        <time>2021-11-19T00:08:37.224Z</time>
      </trkpt>
      <trkpt lat="47.520762" lon="7.782884">
        <ele>375.218137</ele>
        <time>2021-11-19T00:08:40.603Z</time>
      </trkpt>
      <trkpt lat="47.520739" lon="7.782957">
        <ele>375.353754</ele>
        <time>2021-11-19T00:08:41.935Z</time>
      </trkpt>
      <trkpt lat="47.520719" lon="7.783093">
        <ele>375.588084</ele>
        <time>2021-11-19T00:08:43.994Z</time>
      </trkpt>
      <trkpt lat="47.520716" lon="7.783202">
        <ele>375.771745</ele>
        <time>2021-11-19T00:08:45.684Z</time>
      </trkpt>
      <trkpt lat="47.520737" lon="7.783291">
        <ele>375.930464</ele>
        <time>2021-11-19T00:08:47.300Z</time>
      </trkpt>
      <trkpt lat="47.520781" lon="7.783406">
        <ele>376.152987</ele>
        <time>2021-11-19T00:08:49.821Z</time>
      </trkpt>
      <trkpt lat="47.520820" lon="7.783467">
        <ele>376.294407</ele>
        <time>2021-11-19T00:08:51.202Z</time>
      </trkpt>
      <trkpt lat="47.520922" lon="7.783585">
        <ele>376.617091</ele>
        <time>2021-11-19T00:08:54.122Z</time>
      </trkpt>
      <trkpt lat="47.520988" lon="7.783660">
        <ele>376.824492</ele>
        <time>2021-11-19T00:08:56.223Z</time>
      </trkpt>
      <trkpt lat="47.521073" lon="7.783756">
        <ele>377.090995</ele>
        <time>2021-11-19T00:08:59.458Z</time>
      </trkpt>
      <trkpt lat="47.521184" lon="7.784076">
        <ele>377.696643</ele>
        <time>2021-11-19T00:09:05.629Z</time>
      </trkpt>
      <trkpt lat="47.521251" lon="7.784408">
        <ele>378.505583</ele>
        <time>2021-11-19T00:09:12.211Z</time>
      </trkpt>
      <trkpt lat="47.521340" lon="7.785091">
        <ele>380.140197</ele>
        <time>2021-11-19T00:09:25.828Z</time>
      </trkpt>
      <trkpt lat="47.521359" lon="7.785235">
        <ele>380.484986</ele>
        <time>2021-11-19T00:09:28.983Z</time>
      </trkpt>
      <trkpt lat="47.521411" lon="7.785651">
        <ele>381.479164</ele>
        <time>2021-11-19T00:09:35.081Z</time>
      </trkpt>
      <trkpt lat="47.521481" lon="7.786063">
        <ele>382.477507</ele>
        <time>2021-11-19T00:09:44.118Z</time>
      </trkpt>
      <trkpt lat="47.521561" lon="7.786302">
        <ele>383.104346</ele>
        <time>2021-11-19T00:09:48.872Z</time>
      </trkpt>
      <trkpt lat="47.521925" lon="7.787242">
        <ele>386.634893</ele>
        <time>2021-11-19T00:10:13.896Z</time>
      </trkpt>
      <trkpt lat="47.521639" lon="7.787535">
        <ele>388.553331</ele>
        <time>2021-11-19T00:10:26.054Z</time>
      </trkpt>
      <trkpt lat="47.521453" lon="7.787715">
        <ele>389.779050</ele>
        <time>2021-11-19T00:10:35.583Z</time>
      </trkpt>
      <trkpt lat="47.521099" lon="7.788048">
        <ele>392.092540</ele>
        <time>2021-11-19T00:10:50.689Z</time>
      </trkpt>
      <trkpt lat="47.520866" lon="7.788410">
        <ele>393.987685</ele>
        <time>2021-11-19T00:11:03.985Z</time>
      </trkpt>
      <trkpt lat="47.520775" lon="7.788985">
        <ele>397.283559</ele>
        <time>2021-11-19T00:11:19.708Z</time>
      </trkpt>
      <trkpt lat="47.520746" lon="7.789717">
        <ele>401.375701</ele>
        <time>2021-11-19T00:11:44.667Z</time>
      </trkpt>
      <trkpt lat="47.520783" lon="7.790185">
        <ele>404.005335</ele>
        <time>2021-11-19T00:12:00.120Z</time>
      </trkpt>
      <trkpt lat="47.521043" lon="7.791054">
        <ele>409.435709</ele>
        <time>2021-11-19T00:12:33.252Z</time>
      </trkpt>
      <trkpt lat="47.521374" lon="7.793903">
        <ele>428.666351</ele>
        <time>2021-11-19T00:14:23.608Z</time>
      </trkpt>
      <trkpt lat="47.521460" lon="7.795630">
        <ele>437.525712</ele>
        <time>2021-11-19T00:15:22.680Z</time>
      </trkpt>
      <trkpt lat="47.521488" lon="7.796167">
        <ele>440.281191</ele>
        <time>2021-11-19T00:15:35.501Z</time>
      </trkpt>
      <trkpt lat="47.521531" lon="7.796461">
        <ele>440.258049</ele>
        <time>2021-11-19T00:15:41.331Z</time>
      </trkpt>
      <trkpt lat="47.521832" lon="7.798025">
        <ele>437.749304</ele>
        <time>2021-11-19T00:15:54.837Z</time>
      </trkpt>
      <trkpt lat="47.521886" lon="7.798500">
        <ele>437.006245</ele>
        <time>2021-11-19T00:15:57.805Z</time>
      </trkpt>
      <trkpt lat="47.522709" lon="7.800072">
        <ele>424.701383</ele>
        <time>2021-11-19T00:16:09.380Z</time>
      </trkpt>
      <trkpt lat="47.522938" lon="7.800180">
        <ele>422.181902</ele>
        <time>2021-11-19T00:16:11.423Z</time>
      </trkpt>
      <trkpt lat="47.524111" lon="7.800323">
        <ele>408.506712</ele>
        <time>2021-11-19T00:16:21.326Z</time>
      </trkpt>
      <trkpt lat="47.524301" lon="7.800420">
        <ele>406.039349</ele>
        <time>2021-11-19T00:16:23.033Z</time>
      </trkpt>
      <trkpt lat="47.524601" lon="7.800707">
        <ele>401.654542</ele>
        <time>2021-11-19T00:16:26.058Z</time>
      </trkpt>
      <trkpt lat="47.524909" lon="7.800963">
        <ele>397.318337</ele>
        <time>2021-11-19T00:16:29.062Z</time>
      </trkpt>
      <trkpt lat="47.525009" lon="7.801022">
        <ele>395.996785</ele>
        <time>2021-11-19T00:16:29.960Z</time>
      </trkpt>
      <trkpt lat="47.525322" lon="7.801334">
        <ele>391.281702</ele>
        <time>2021-11-19T00:16:33.124Z</time>
      </trkpt>
      <trkpt lat="47.525644" lon="7.801949">
        <ele>384.703029</ele>
        <time>2021-11-19T00:16:37.551Z</time>
      </trkpt>
      <trkpt lat="47.526184" lon="7.802422">
        <ele>376.848798</ele>
        <time>2021-11-19T00:16:42.822Z</time>
      </trkpt>
      <trkpt lat="47.526229" lon="7.802508">
        <ele>375.929073</ele>
        <time>2021-11-19T00:16:43.435Z</time>
      </trkpt>
      <trkpt lat="47.526305" lon="7.802747">
        <ele>373.695878</ele>
        <time>2021-11-19T00:16:44.951Z</time>
      </trkpt>
      <trkpt lat="47.526435" lon="7.803139">
        <ele>370.149741</ele>
        <time>2021-11-19T00:16:47.459Z</time>
      </trkpt>
      <trkpt lat="47.526766" lon="7.803728">
        <ele>363.981124</ele>
        <time>2021-11-19T00:16:51.882Z</time>
      </trkpt>
      <trkpt lat="47.526851" lon="7.803936">
        <ele>362.023992</ele>
        <time>2021-11-19T00:16:53.248Z</time>
      </trkpt>
      <trkpt lat="47.526931" lon="7.804130">
        <ele>360.194126</ele>
        <time>2021-11-19T00:16:54.533Z</time>
      </trkpt>
      <trkpt lat="47.527195" lon="7.804775">
        <ele>354.122573</ele>
        <time>2021-11-19T00:16:58.822Z</time>
      </trkpt>
      <trkpt lat="47.527223" lon="7.804962">
        <ele>352.580688</ele>
        <time>2021-11-19T00:16:59.904Z</time>
      </trkpt>
      <trkpt lat="47.527187" lon="7.805916">
        <ele>346.854280</ele>
        <time>2021-11-19T00:17:05.481Z</time>
      </trkpt>
      <trkpt lat="47.527192" lon="7.805999">
        <ele>346.379507</ele>
        <time>2021-11-19T00:17:05.946Z</time>
      </trkpt>
      <trkpt lat="47.527215" lon="7.806158">
        <ele>345.453045</ele>
        <time>2021-11-19T00:17:06.936Z</time>
      </trkpt>
      <trkpt lat="47.527250" lon="7.806264">
        <ele>344.780767</ele>
        <time>2021-11-19T00:17:07.676Z</time>
      </trkpt>
      <trkpt lat="47.527311" lon="7.806422">
        <ele>343.743802</ele>
        <time>2021-11-19T00:17:08.750Z</time>
      </trkpt>
      <trkpt lat="47.527350" lon="7.806547">
        <ele>342.959261</ele>
        <time>2021-11-19T00:17:09.530Z</time>
      </trkpt>
      <trkpt lat="47.527401" lon="7.806802">
        <ele>341.444004</ele>
        <time>2021-11-19T00:17:11.205Z</time>
      </trkpt>
      <trkpt lat="47.527414" lon="7.806940">
        <ele>340.650133</ele>
        <time>2021-11-19T00:17:12.019Z</time>
      </trkpt>
      <trkpt lat="47.527456" lon="7.807830">
        <ele>336.131922</ele>
        <time>2021-11-19T00:17:17.491Z</time>
      </trkpt>
      <trkpt lat="47.527503" lon="7.808275">
        <ele>335.231222</ele>
        <time>2021-11-19T00:17:20.288Z</time>
      </trkpt>
      <trkpt lat="47.527634" lon="7.808204">
        <ele>334.818098</ele>
        <time>2021-11-19T00:17:22.346Z</time>
      </trkpt>
      <trkpt lat="47.527822" lon="7.807933">
        <ele>334.041135</ele>
        <time>2021-11-19T00:17:26.393Z</time>
      </trkpt>
      <trkpt lat="47.528101" lon="7.807533">
        <ele>332.891122</ele>
        <time>2021-11-19T00:17:32.644Z</time>
      </trkpt>
      <trkpt lat="47.528101" lon="7.807533">
        <ele>332.891122</ele>
        <time>2021-11-19T00:17:32.719Z</time>
      </trkpt>
      <trkpt lat="47.528101" lon="7.807533">
        <ele>332.891122</ele>
        <time>2021-11-19T00:17:32.748Z</time>
      </trkpt>
      <trkpt lat="47.528363" lon="7.807158">
        <ele>331.812056</ele>
        <time>2021-11-19T00:17:38.990Z</time>
      </trkpt>
      <trkpt lat="47.528486" lon="7.806982">
        <ele>331.305541</ele>
        <time>2021-11-19T00:17:42.006Z</time>
      </trkpt>
      <trkpt lat="47.528826" lon="7.806494">
        <ele>330.144402</ele>
        <time>2021-11-19T00:17:49.837Z</time>
      </trkpt>
      <trkpt lat="47.529482" lon="7.805461">
        <ele>327.874862</ele>
        <time>2021-11-19T00:18:04.831Z</time>
      </trkpt>
      <trkpt lat="47.529649" lon="7.805203">
        <ele>327.302873</ele>
        <time>2021-11-19T00:18:08.301Z</time>
      </trkpt>
      <trkpt lat="47.529834" lon="7.804969">
        <ele>326.699809</ele>
        <time>2021-11-19T00:18:11.694Z</time>
      </trkpt>
      <trkpt lat="47.529928" lon="7.804900">
        <ele>326.396979</ele>
        <time>2021-11-19T00:18:13.195Z</time>
      </trkpt>
      <trkpt lat="47.530103" lon="7.804771">
        <ele>325.832728</ele>
        <time>2021-11-19T00:18:15.876Z</time>
      </trkpt>
      <trkpt lat="47.530366" lon="7.804683">
        <ele>325.054441</ele>
        <time>2021-11-19T00:18:19.733Z</time>
      </trkpt>
      <trkpt lat="47.530664" lon="7.804655">
        <ele>324.192529</ele>
        <time>2021-11-19T00:18:23.906Z</time>
      </trkpt>
      <trkpt lat="47.531122" lon="7.804821">
        <ele>322.831493</ele>
        <time>2021-11-19T00:18:30.855Z</time>
      </trkpt>
      <trkpt lat="47.531148" lon="7.804834">
        <ele>322.752282</ele>
        <time>2021-11-19T00:18:31.208Z</time>
      </trkpt>
      <trkpt lat="47.531459" lon="7.805000">
        <ele>321.798057</ele>
        <time>2021-11-19T00:18:36.980Z</time>
      </trkpt>
      <trkpt lat="47.531549" lon="7.805047">
        <ele>321.667966</ele>
        <time>2021-11-19T00:18:38.470Z</time>
      </trkpt>
      <trkpt lat="47.531684" lon="7.805128">
        <ele>321.706758</ele>
        <time>2021-11-19T00:18:41.527Z</time>
      </trkpt>
      <trkpt lat="47.531901" lon="7.805311">
        <ele>321.773264</ele>
        <time>2021-11-19T00:18:45.996Z</time>
      </trkpt>
      <trkpt lat="47.532130" lon="7.805651">
        <ele>321.859622</ele>
        <time>2021-11-19T00:18:52.572Z</time>
      </trkpt>
      <trkpt lat="47.532253" lon="7.805913">
        <ele>321.917004</ele>
        <time>2021-11-19T00:18:58.047Z</time>
      </trkpt>
      <trkpt lat="47.532546" lon="7.806703">
        <ele>322.079083</ele>
        <time>2021-11-19T00:19:12.615Z</time>
      </trkpt>
      <trkpt lat="47.533091" lon="7.806305">
        <ele>322.258144</ele>
        <time>2021-11-19T00:19:27.402Z</time>
      </trkpt>
      <trkpt lat="47.533723" lon="7.806018">
        <ele>322.462755</ele>
        <time>2021-11-19T00:19:42.075Z</time>
      </trkpt>
      <trkpt lat="47.534648" lon="7.805785">
        <ele>322.716740</ele>
        <time>2021-11-19T00:19:59.992Z</time>
      </trkpt>
      <trkpt lat="47.534894" lon="7.805725">
        <ele>322.748354</ele>
        <time>2021-11-19T00:20:04.733Z</time>
      </trkpt>
      <trkpt lat="47.535092" lon="7.805671">
        <ele>322.773883</ele>
        <time>2021-11-19T00:20:09.098Z</time>
      </trkpt>
      <trkpt lat="47.535828" lon="7.805308">
        <ele>322.872248</ele>
        <time>2021-11-19T00:20:25.343Z</time>
      </trkpt>
      <trkpt lat="47.536875" lon="7.804558">
        <ele>322.927648</ele>
        <time>2021-11-19T00:20:51.274Z</time>
      </trkpt>
      <trkpt lat="47.537755" lon="7.803639">
        <ele>322.879435</ele>
        <time>2021-11-19T00:21:11.786Z</time>
      </trkpt>
      <trkpt lat="47.538164" lon="7.803170">
        <ele>322.435446</ele>
        <time>2021-11-19T00:21:21.347Z</time>
      </trkpt>
      <trkpt lat="47.538256" lon="7.803059">
        <ele>322.333592</ele>
        <time>2021-11-19T00:21:23.239Z</time>
      </trkpt>
      <trkpt lat="47.539933" lon="7.800779">
        <ele>320.829764</ele>
        <time>2021-11-19T00:22:02.648Z</time>
      </trkpt>
      <trkpt lat="47.540006" lon="7.800680">
        <ele>320.782504</ele>
        <time>2021-11-19T00:22:04.646Z</time>
      </trkpt>
      <trkpt lat="47.540192" lon="7.800458">
        <ele>320.668444</ele>
        <time>2021-11-19T00:22:09.810Z</time>
      </trkpt>
      <trkpt lat="47.540192" lon="7.800458">
        <ele>320.668444</ele>
        <time>2021-11-19T00:22:09.818Z</time>
      </trkpt>
      <trkpt lat="47.540260" lon="7.800353">
        <ele>320.621540</ele>
        <time>2021-11-19T00:22:12.343Z</time>
      </trkpt>
      <trkpt lat="47.540644" lon="7.800163">
        <ele>320.711891</ele>
        <time>2021-11-19T00:22:21.536Z</time>
      </trkpt>
      <trkpt lat="47.540897" lon="7.800171">
        <ele>320.911460</ele>
        <time>2021-11-19T00:22:27.725Z</time>
      </trkpt>
      <trkpt lat="47.541705" lon="7.800028">
        <ele>321.553206</ele>
        <time>2021-11-19T00:22:48.060Z</time>
      </trkpt>
      <trkpt lat="47.542307" lon="7.799830">
        <ele>321.647717</ele>
        <time>2021-11-19T00:23:03.033Z</time>
      </trkpt>
      <trkpt lat="47.542998" lon="7.799859">
        <ele>319.704981</ele>
        <time>2021-11-19T00:23:15.262Z</time>
      </trkpt>
      <trkpt lat="47.544071" lon="7.799629">
        <ele>316.386241</ele>
        <time>2021-11-19T00:23:30.184Z</time>
      </trkpt>
      <trkpt lat="47.544184" lon="7.799620">
        <ele>315.709173</ele>
        <time>2021-11-19T00:23:31.573Z</time>
      </trkpt>
      <trkpt lat="47.544345" lon="7.799570">
        <ele>314.724953</ele>
        <time>2021-11-19T00:23:33.768Z</time>
      </trkpt>
      <trkpt lat="47.544568" lon="7.799371">
        <ele>313.167353</ele>
        <time>2021-11-19T00:23:37.125Z</time>
      </trkpt>
      <trkpt lat="47.544749" lon="7.799388">
        <ele>312.082235</ele>
        <time>2021-11-19T00:23:39.567Z</time>
      </trkpt>
      <trkpt lat="47.544827" lon="7.799356">
        <ele>311.597988</ele>
        <time>2021-11-19T00:23:40.549Z</time>
      </trkpt>
      <trkpt lat="47.545096" lon="7.799250">
        <ele>309.932568</ele>
        <time>2021-11-19T00:23:44.269Z</time>
      </trkpt>
      <trkpt lat="47.545182" lon="7.799205">
        <ele>309.386868</ele>
        <time>2021-11-19T00:23:45.365Z</time>
      </trkpt>
      <trkpt lat="47.545396" lon="7.798977">
        <ele>307.809756</ele>
        <time>2021-11-19T00:23:48.907Z</time>
      </trkpt>
      <trkpt lat="47.545449" lon="7.798705">
        <ele>306.666394</ele>
        <time>2021-11-19T00:23:51.308Z</time>
      </trkpt>
      <trkpt lat="47.545511" lon="7.798680">
        <ele>306.281947</ele>
        <time>2021-11-19T00:23:52.139Z</time>
      </trkpt>
      <trkpt lat="47.545581" lon="7.798713">
        <ele>305.994043</ele>
        <time>2021-11-19T00:23:53.177Z</time>
      </trkpt>
      <trkpt lat="47.545731" lon="7.798810">
        <ele>305.518203</ele>
        <time>2021-11-19T00:23:55.384Z</time>
      </trkpt>
      <trkpt lat="47.545807" lon="7.798846">
        <ele>305.286223</ele>
        <time>2021-11-19T00:23:56.491Z</time>
      </trkpt>
      <trkpt lat="47.546418" lon="7.798980">
        <ele>303.490465</ele>
        <time>2021-11-19T00:24:05.339Z</time>
      </trkpt>
      <trkpt lat="47.547540" lon="7.799538">
        <ele>300.796271</ele>
        <time>2021-11-19T00:24:25.062Z</time>
      </trkpt>
      <trkpt lat="47.547725" lon="7.799592">
        <ele>300.724902</ele>
        <time>2021-11-19T00:24:28.722Z</time>
      </trkpt>
      <trkpt lat="47.547912" lon="7.799646">
        <ele>300.652790</ele>
        <time>2021-11-19T00:24:32.443Z</time>
      </trkpt>
      <trkpt lat="47.548459" lon="7.799691">
        <ele>300.445430</ele>
        <time>2021-11-19T00:24:43.381Z</time>
      </trkpt>
      <trkpt lat="47.548535" lon="7.799720">
        <ele>300.415726</ele>
        <time>2021-11-19T00:24:44.901Z</time>
      </trkpt>
      <trkpt lat="47.548514" lon="7.799795">
        <ele>300.394982</ele>
        <time>2021-11-19T00:24:45.965Z</time>
      </trkpt>
      <trkpt lat="47.548519" lon="7.799896">
        <ele>300.369109</ele>
        <time>2021-11-19T00:24:47.320Z</time>
      </trkpt>
      <trkpt lat="47.548545" lon="7.800404">
        <ele>300.238955</ele>
        <time>2021-11-19T00:24:54.111Z</time>
      </trkpt>
      <trkpt lat="47.548560" lon="7.800672">
        <ele>300.211976</ele>
        <time>2021-11-19T00:24:57.803Z</time>
      </trkpt>
      <trkpt lat="47.548569" lon="7.800838">
        <ele>300.200574</ele>
        <time>2021-11-19T00:25:00.047Z</time>
      </trkpt>
      <trkpt lat="47.548576" lon="7.800968">
        <ele>300.191646</ele>
        <time>2021-11-19T00:25:01.823Z</time>
      </trkpt>
      <trkpt lat="47.548596" lon="7.801213">
        <ele>300.174750</ele>
        <time>2021-11-19T00:25:05.202Z</time>
      </trkpt>
      <trkpt lat="47.548607" lon="7.801690">
        <ele>300.142074</ele>
        <time>2021-11-19T00:25:11.702Z</time>
      </trkpt>
      <trkpt lat="47.548626" lon="7.802129">
        <ele>300.111957</ele>
        <time>2021-11-19T00:25:17.621Z</time>
      </trkpt>
      <trkpt lat="47.548877" lon="7.802168">
        <ele>300.086358</ele>
        <time>2021-11-19T00:25:22.625Z</time>
      </trkpt>
      <trkpt lat="47.549410" lon="7.802226">
        <ele>300.001864</ele>
        <time>2021-11-19T00:25:33.051Z</time>
      </trkpt>
      <trkpt lat="47.549481" lon="7.802234">
        <ele>299.977366</ele>
        <time>2021-11-19T00:25:34.387Z</time>
      </trkpt>
      <trkpt lat="47.549879" lon="7.802247">
        <ele>299.840398</ele>
        <time>2021-11-19T00:25:41.850Z</time>
      </trkpt>
      <trkpt lat="47.550146" lon="7.802262">
        <ele>299.748469</ele>
        <time>2021-11-19T00:25:46.930Z</time>
      </trkpt>
      <trkpt lat="47.550138" lon="7.802801">
        <ele>299.623272</ele>
        <time>2021-11-19T00:25:53.932Z</time>
      </trkpt>
      <trkpt lat="47.550134" lon="7.803051">
        <ele>299.565201</ele>
        <time>2021-11-19T00:25:57.143Z</time>
      </trkpt>
      <trkpt lat="47.550196" lon="7.803120">
        <ele>299.538522</ele>
        <time>2021-11-19T00:25:58.607Z</time>
      </trkpt>
      <trkpt lat="47.550981" lon="7.803132">
        <ele>299.485923</ele>
        <time>2021-11-19T00:26:13.257Z</time>
      </trkpt>
      <trkpt lat="47.551163" lon="7.803129">
        <ele>299.509751</ele>
        <time>2021-11-19T00:26:16.654Z</time>
      </trkpt>
      <trkpt lat="47.551598" lon="7.803160">
        <ele>299.566764</ele>
        <time>2021-11-19T00:26:25.232Z</time>
      </trkpt>
      <trkpt lat="47.551666" lon="7.803144">
        <ele>299.575778</ele>
        <time>2021-11-19T00:26:29.976Z</time>
      </trkpt>
      <trkpt lat="47.551732" lon="7.803125">
        <ele>299.584580</ele>
        <time>2021-11-19T00:26:34.643Z</time>
      </trkpt>
      <trkpt lat="47.551744" lon="7.803277">
        <ele>299.598102</ele>
        <time>2021-11-19T00:26:36.337Z</time>
      </trkpt>
      <trkpt lat="47.551751" lon="7.803369">
        <ele>299.606282</ele>
        <time>2021-11-19T00:26:37.411Z</time>
      </trkpt>
      <trkpt lat="47.551692" lon="7.803510">
        <ele>299.620941</ele>
        <time>2021-11-19T00:26:40.005Z</time>
      </trkpt>
      <trkpt lat="47.551741" lon="7.804294">
        <ele>299.825800</ele>
        <time>2021-11-19T00:26:53.023Z</time>
      </trkpt>
      <trkpt lat="47.551744" lon="7.804473">
        <ele>299.915259</ele>
        <time>2021-11-19T00:26:55.543Z</time>
      </trkpt>
      <trkpt lat="47.551731" lon="7.804667">
        <ele>300.012661</ele>
        <time>2021-11-19T00:26:59.523Z</time>
      </trkpt>
      <trkpt lat="47.551709" lon="7.805000">
        <ele>300.179828</ele>
        <time>2021-11-19T00:27:04.014Z</time>
      </trkpt>
      <trkpt lat="47.551681" lon="7.805477">
        <ele>300.419044</ele>
        <time>2021-11-19T00:27:11.751Z</time>
      </trkpt>
      <trkpt lat="47.551671" lon="7.806117">
        <ele>300.738884</ele>
        <time>2021-11-19T00:27:21.840Z</time>
      </trkpt>
      <trkpt lat="47.551651" lon="7.806246">
        <ele>300.805013</ele>
        <time>2021-11-19T00:27:24.743Z</time>
      </trkpt>
      <trkpt lat="47.551895" lon="7.806278">
        <ele>300.986341</ele>
        <time>2021-11-19T00:27:28.268Z</time>
      </trkpt>
      <trkpt lat="47.552015" lon="7.806307">
        <ele>300.961565</ele>
        <time>2021-11-19T00:27:31.138Z</time>
      </trkpt>
      <trkpt lat="47.552068" lon="7.806445">
        <ele>300.931782</ele>
        <time>2021-11-19T00:27:32.595Z</time>
      </trkpt>
      <trkpt lat="47.552398" lon="7.808880">
        <ele>300.427165</ele>
        <time>2021-11-19T00:27:54.738Z</time>
      </trkpt>
      <trkpt lat="47.552566" lon="7.810386">
        <ele>299.731174</ele>
        <time>2021-11-19T00:28:07.749Z</time>
      </trkpt>
      <trkpt lat="47.552711" lon="7.812955">
        <ele>298.598223</ele>
        <time>2021-11-19T00:28:30.358Z</time>
      </trkpt>
      <trkpt lat="47.552844" lon="7.816432">
        <ele>297.358980</ele>
        <time>2021-11-19T00:29:00.851Z</time>
      </trkpt>
      <trkpt lat="47.552948" lon="7.819358">
        <ele>297.716937</ele>
        <time>2021-11-19T00:29:32.081Z</time>
      </trkpt>
      <trkpt lat="47.552896" lon="7.820699">
        <ele>298.357750</ele>
        <time>2021-11-19T00:29:48.165Z</time>
      </trkpt>
      <trkpt lat="47.552567" lon="7.824508">
        <ele>300.254813</ele>
        <time>2021-11-19T00:30:34.650Z</time>
      </trkpt>
      <trkpt lat="47.552491" lon="7.827227">
        <ele>301.578089</ele>
        <time>2021-11-19T00:31:06.389Z</time>
      </trkpt>
      <trkpt lat="47.552515" lon="7.828094">
        <ele>302.477686</ele>
        <time>2021-11-19T00:31:18.099Z</time>
      </trkpt>
      <trkpt lat="47.552477" lon="7.828294">
        <ele>302.706178</ele>
        <time>2021-11-19T00:31:20.716Z</time>
      </trkpt>
      <trkpt lat="47.552421" lon="7.828481">
        <ele>302.931159</ele>
        <time>2021-11-19T00:31:23.648Z</time>
      </trkpt>
      <trkpt lat="47.552404" lon="7.828582">
        <ele>303.045632</ele>
        <time>2021-11-19T00:31:25.332Z</time>
      </trkpt>
      <trkpt lat="47.552416" lon="7.828822">
        <ele>303.310287</ele>
        <time>2021-11-19T00:31:28.547Z</time>
      </trkpt>
      <trkpt lat="47.552554" lon="7.829266">
        <ele>303.847848</ele>
        <time>2021-11-19T00:31:35.839Z</time>
      </trkpt>
      <trkpt lat="47.552645" lon="7.830686">
        <ele>306.061304</ele>
        <time>2021-11-19T00:31:58.894Z</time>
      </trkpt>
      <trkpt lat="47.552670" lon="7.831764">
        <ele>308.132316</ele>
        <time>2021-11-19T00:32:18.841Z</time>
      </trkpt>
      <trkpt lat="47.552677" lon="7.832053">
        <ele>308.687561</ele>
        <time>2021-11-19T00:32:24.250Z</time>
      </trkpt>
      <trkpt lat="47.552690" lon="7.832598">
        <ele>309.732756</ele>
        <time>2021-11-19T00:32:34.280Z</time>
      </trkpt>
      <trkpt lat="47.552616" lon="7.832891">
        <ele>310.316314</ele>
        <time>2021-11-19T00:32:39.709Z</time>
      </trkpt>
      <trkpt lat="47.552556" lon="7.832977">
        <ele>310.547038</ele>
        <time>2021-11-19T00:32:42.394Z</time>
      </trkpt>
      <trkpt lat="47.552511" lon="7.833072">
        <ele>310.763535</ele>
        <time>2021-11-19T00:32:44.409Z</time>
      </trkpt>
      <trkpt lat="47.552467" lon="7.833198">
        <ele>311.028165</ele>
        <time>2021-11-19T00:32:46.870Z</time>
      </trkpt>
      <trkpt lat="47.552452" lon="7.833284">
        <ele>311.193855</ele>
        <time>2021-11-19T00:32:48.505Z</time>
      </trkpt>
      <trkpt lat="47.552696" lon="7.833789">
        <ele>312.352361</ele>
        <time>2021-11-19T00:32:59.570Z</time>
      </trkpt>
      <trkpt lat="47.552700" lon="7.833938">
        <ele>312.630516</ele>
        <time>2021-11-19T00:33:02.485Z</time>
      </trkpt>
      <trkpt lat="47.552714" lon="7.835010">
        <ele>314.630530</ele>
        <time>2021-11-19T00:33:21.287Z</time>
      </trkpt>
      <trkpt lat="47.552719" lon="7.836790">
        <ele>316.639478</ele>
        <time>2021-11-19T00:33:46.570Z</time>
      </trkpt>
      <trkpt lat="47.552697" lon="7.838068">
        <ele>318.045989</ele>
        <time>2021-11-19T00:34:04.212Z</time>
      </trkpt>
      <trkpt lat="47.552736" lon="7.838578">
        <ele>318.579733</ele>
        <time>2021-11-19T00:34:11.339Z</time>
      </trkpt>
      <trkpt lat="47.552802" lon="7.839009">
        <ele>319.039323</ele>
        <time>2021-11-19T00:34:17.558Z</time>
      </trkpt>
      <trkpt lat="47.552939" lon="7.839526">
        <ele>319.616908</ele>
        <time>2021-11-19T00:34:25.348Z</time>
      </trkpt>
      <trkpt lat="47.553231" lon="7.841529">
        <ele>321.692759</ele>
        <time>2021-11-19T00:34:55.478Z</time>
      </trkpt>
      <trkpt lat="47.553216" lon="7.841849">
        <ele>322.012553</ele>
        <time>2021-11-19T00:35:00.002Z</time>
      </trkpt>
      <trkpt lat="47.553123" lon="7.842222">
        <ele>322.408982</ele>
        <time>2021-11-19T00:35:05.231Z</time>
      </trkpt>
      <trkpt lat="47.553133" lon="7.842431">
        <ele>322.617869</ele>
        <time>2021-11-19T00:35:08.361Z</time>
      </trkpt>
      <trkpt lat="47.552833" lon="7.842495">
        <ele>323.065592</ele>
        <time>2021-11-19T00:35:15.670Z</time>
      </trkpt>
      <trkpt lat="47.552380" lon="7.842592">
        <ele>323.424343</ele>
        <time>2021-11-19T00:35:26.718Z</time>
      </trkpt>
      <trkpt lat="47.551922" lon="7.842704">
        <ele>323.785872</ele>
        <time>2021-11-19T00:35:37.284Z</time>
      </trkpt>
      <trkpt lat="47.551668" lon="7.842770">
        <ele>323.986713</ele>
        <time>2021-11-19T00:35:43.243Z</time>
      </trkpt>
      <trkpt lat="47.551454" lon="7.842815">
        <ele>324.155052</ele>
        <time>2021-11-19T00:35:47.880Z</time>
      </trkpt>
      <trkpt lat="47.551344" lon="7.844621">
        <ele>325.336300</ele>
        <time>2021-11-19T00:36:10.067Z</time>
      </trkpt>
      <trkpt lat="47.551257" lon="7.845914">
        <ele>326.263886</ele>
        <time>2021-11-19T00:36:27.446Z</time>
      </trkpt>
      <trkpt lat="47.551205" lon="7.846694">
        <ele>327.044228</ele>
        <time>2021-11-19T00:36:38.057Z</time>
      </trkpt>
      <trkpt lat="47.551184" lon="7.847206">
        <ele>327.590166</ele>
        <time>2021-11-19T00:36:45.439Z</time>
      </trkpt>
      <trkpt lat="47.551196" lon="7.847517">
        <ele>327.921710</ele>
        <time>2021-11-19T00:36:49.995Z</time>
      </trkpt>
      <trkpt lat="47.551669" lon="7.848083">
        <ele>328.880481</ele>
        <time>2021-11-19T00:37:03.361Z</time>
      </trkpt>
      <trkpt lat="47.551242" lon="7.848702">
        <ele>329.767826</ele>
        <time>2021-11-19T00:37:16.051Z</time>
      </trkpt>
      <trkpt lat="47.550975" lon="7.849066">
        <ele>330.288900</ele>
        <time>2021-11-19T00:37:23.366Z</time>
      </trkpt>
      <trkpt lat="47.550810" lon="7.849346">
        <ele>330.649194</ele>
        <time>2021-11-19T00:37:29.759Z</time>
      </trkpt>
      <trkpt lat="47.550488" lon="7.850081">
        <ele>331.498557</ele>
        <time>2021-11-19T00:37:45.213Z</time>
      </trkpt>
      <trkpt lat="47.550333" lon="7.850434">
        <ele>331.831337</ele>
        <time>2021-11-19T00:37:52.543Z</time>
      </trkpt>
      <trkpt lat="47.550009" lon="7.851173">
        <ele>332.118932</ele>
        <time>2021-11-19T00:38:07.137Z</time>
      </trkpt>
      <trkpt lat="47.549804" lon="7.851630">
        <ele>332.298014</ele>
        <time>2021-11-19T00:38:15.357Z</time>
      </trkpt>
      <trkpt lat="47.549652" lon="7.851969">
        <ele>332.430838</ele>
        <time>2021-11-19T00:38:21.017Z</time>
      </trkpt>
      <trkpt lat="47.549535" lon="7.852225">
        <ele>332.531739</ele>
        <time>2021-11-19T00:38:25.072Z</time>
      </trkpt>
      <trkpt lat="47.549285" lon="7.852784">
        <ele>332.582743</ele>
        <time>2021-11-19T00:38:33.707Z</time>
      </trkpt>
      <trkpt lat="47.549708" lon="7.853279">
        <ele>332.345305</ele>
        <time>2021-11-19T00:38:44.106Z</time>
      </trkpt>
      <trkpt lat="47.550221" lon="7.853833">
        <ele>332.065676</ele>
        <time>2021-11-19T00:38:56.037Z</time>
      </trkpt>
      <trkpt lat="47.549883" lon="7.854434">
        <ele>331.831466</ele>
        <time>2021-11-19T00:39:02.715Z</time>
      </trkpt>
      <trkpt lat="47.549566" lon="7.855225">
        <ele>331.546046</ele>
        <time>2021-11-19T00:39:13.859Z</time>
      </trkpt>
      <trkpt lat="47.549362" lon="7.855774">
        <ele>331.351604</ele>
        <time>2021-11-19T00:39:21.781Z</time>
      </trkpt>
      <trkpt lat="47.548887" lon="7.857308">
        <ele>331.171763</ele>
        <time>2021-11-19T00:39:43.889Z</time>
      </trkpt>
      <trkpt lat="47.548743" lon="7.857692">
        <ele>331.252703</ele>
        <time>2021-11-19T00:39:49.861Z</time>
      </trkpt>
      <trkpt lat="47.548701" lon="7.857893">
        <ele>331.291472</ele>
        <time>2021-11-19T00:39:52.832Z</time>
      </trkpt>
      <trkpt lat="47.548686" lon="7.857973">
        <ele>331.306770</ele>
        <time>2021-11-19T00:39:53.955Z</time>
      </trkpt>
      <trkpt lat="47.548611" lon="7.858381">
        <ele>331.384684</ele>
        <time>2021-11-19T00:40:00.169Z</time>
      </trkpt>
      <trkpt lat="47.548334" lon="7.859801">
        <ele>332.131418</ele>
        <time>2021-11-19T00:40:23.207Z</time>
      </trkpt>
      <trkpt lat="47.548049" lon="7.860929">
        <ele>333.213678</ele>
        <time>2021-11-19T00:40:44.225Z</time>
      </trkpt>
      <trkpt lat="47.547930" lon="7.861711">
        <ele>333.934497</ele>
        <time>2021-11-19T00:40:58.989Z</time>
      </trkpt>
      <trkpt lat="47.547568" lon="7.863151">
        <ele>335.458563</ele>
        <time>2021-11-19T00:41:28.116Z</time>
      </trkpt>
      <trkpt lat="47.547320" lon="7.863864">
        <ele>336.254110</ele>
        <time>2021-11-19T00:41:42.057Z</time>
      </trkpt>
      <trkpt lat="47.546974" lon="7.864423">
        <ele>336.481321</ele>
        <time>2021-11-19T00:41:52.880Z</time>
      </trkpt>
      <trkpt lat="47.546885" lon="7.864500">
        <ele>336.449667</ele>
        <time>2021-11-19T00:41:55.965Z</time>
      </trkpt>
      <trkpt lat="47.546894" lon="7.864837">
        <ele>336.379750</ele>
        <time>2021-11-19T00:41:59.849Z</time>
      </trkpt>
      <trkpt lat="47.546889" lon="7.865225">
        <ele>336.299300</ele>
        <time>2021-11-19T00:42:05.274Z</time>
      </trkpt>
      <trkpt lat="47.546819" lon="7.865489">
        <ele>336.240500</ele>
        <time>2021-11-19T00:42:09.218Z</time>
      </trkpt>
      <trkpt lat="47.546510" lon="7.865766">
        <ele>336.129576</ele>
        <time>2021-11-19T00:42:15.852Z</time>
      </trkpt>
      <trkpt lat="47.546327" lon="7.865959">
        <ele>336.060585</ele>
        <time>2021-11-19T00:42:19.367Z</time>
      </trkpt>
      <trkpt lat="47.546096" lon="7.866147">
        <ele>335.953981</ele>
        <time>2021-11-19T00:42:23.923Z</time>
      </trkpt>
      <trkpt lat="47.545240" lon="7.866887">
        <ele>335.454541</ele>
        <time>2021-11-19T00:42:40.597Z</time>
      </trkpt>
      <trkpt lat="47.545160" lon="7.866985">
        <ele>335.402229</ele>
        <time>2021-11-19T00:42:42.553Z</time>
      </trkpt>
      <trkpt lat="47.545003" lon="7.867278">
        <ele>335.274976</ele>
        <time>2021-11-19T00:42:48.221Z</time>
      </trkpt>
      <trkpt lat="47.544568" lon="7.867693">
        <ele>335.113277</ele>
        <time>2021-11-19T00:43:00.797Z</time>
      </trkpt>
      <trkpt lat="47.544469" lon="7.867776">
        <ele>335.113277</ele>
        <time>2021-11-19T00:43:03.393Z</time>
      </trkpt>
      <trkpt lat="47.544410" lon="7.867825">
        <ele>335.113277</ele>
        <time>2021-11-19T00:43:05.192Z</time>
      </trkpt>
      <trkpt lat="47.544246" lon="7.867967">
        <ele>335.113277</ele>
        <time>2021-11-19T00:43:09.818Z</time>
      </trkpt>
      <trkpt lat="47.544214" lon="7.867988">
        <ele>335.113277</ele>
        <time>2021-11-19T00:43:10.624Z</time>
      </trkpt>
      <trkpt lat="47.543801" lon="7.868269">
        <ele>335.113277</ele>
        <time>2021-11-19T00:43:21.670Z</time>
      </trkpt>
      <trkpt lat="47.543657" lon="7.868359">
        <ele>335.113277</ele>
        <time>2021-11-19T00:43:25.915Z</time>
      </trkpt>
      <trkpt lat="47.543410" lon="7.868521">
        <ele>335.113277</ele>
        <time>2021-11-19T00:43:31.510Z</time>
      </trkpt>
    </trkseg>
  </trk>
</gpx>